[[{"header":{"parameterUnit":"m.s-1","parameterCategory":1,"la1":30.6,"la2":28.766,"lo1":-90.7593,"lo2":-88.6598,"dx":0.0162,"dy":0.0183,"nx":116,"ny":114,"refTime":"2022-11-19T18:00:00:Z","depth":0,"parameterNumber":2,"parameterNumberName":"U-component_of_WINDS"},"data":[0.0,0.0,0.0,0.0,0.0,0.0,0.0,0.0,0.0,0.0,0.0,0.0,0.0,0.0,0.0,0.0,0.0,0.0,0.0,0.0,0.0,0.0,0.0,0.0,0.0,0.0,0.0,0.0,0.0,0.0,0.0,0.0,0.0,0.0,0.0,0.0,0.0,0.0,0.0,0.0,0.0,0.0,0.0,0.0,0.0,0.0,0.0,0.0,0.0,0.0,0.0,0.0,0.0,0.0,0.0,0.0,0.0,0.0,0.0,0.0,0.0,0.0,0.0,0.0,0.0,0.0,0.0,0.0,0.0,0.0,0.0,0.0,0.0,0.0,0.0,0.0,0.0,0.0,0.0,0.0,0.0,0.0,0.0,0.0,0.0,0.0,0.0,0.0,0.0,0.0,0.0,0.0,0.0,0.0,0.0,0.0,0.0,0.0,0.0,0.0,0.0,0.0,0.0,0.0,0.0,0.0,0.0,0.0,0.0,0.0,0.0,0.0,0.0,0.0,0.0,0.0,0.0,0.0,0.0,0.0,0.0,0.0,0.0,0.0,0.0,0.0,0.0,0.0,0.0,0.0,0.0,0.0,0.0,0.0,0.0,0.0,0.0,0.0,0.0,0.0,0.0,0.0,0.0,0.0,0.0,0.0,0.0,0.0,0.0,0.0,0.0,0.0,0.0,0.0,0.0,0.0,0.0,0.0,0.0,0.0,0.0,0.0,0.0,0.0,0.0,0.0,0.0,0.0,0.0,0.0,0.0,0.0,0.0,0.0,0.0,0.0,0.0,0.0,0.0,0.0,0.0,0.0,0.0,0.0,0.0,0.0,0.0,0.0,0.0,0.0,0.0,0.0,0.0,0.0,0.0,0.0,0.0,0.0,0.0,0.0,0.0,0.0,0.0,0.0,0.0,0.0,0.0,0.0,0.0,0.0,0.0,0.0,0.0,0.0,0.0,0.0,0.0,0.0,0.0,0.0,0.0,0.0,0.0,0.0,0.0,0.0,0.0,0.0,0.0,0.0,0.0,0.0,0.0,0.0,0.0,0.0,0.0,0.0,0.0,0.0,0.0,0.0,0.0,0.0,0.0,0.0,0.0,0.0,0.0,0.0,0.0,0.0,0.0,0.0,0.0,0.0,0.0,0.0,0.0,0.0,0.0,0.0,0.0,0.0,0.0,0.0,0.0,0.0,0.0,0.0,0.0,0.0,0.0,0.0,0.0,0.0,0.0,0.0,0.0,0.0,0.0,0.0,0.0,0.0,0.0,0.0,0.0,0.0,0.0,0.0,0.0,0.0,0.0,0.0,0.0,0.0,0.0,0.0,0.0,0.0,0.0,0.0,0.0,0.0,0.0,0.0,0.0,0.0,0.0,0.0,0.0,0.0,0.0,0.0,0.0,0.0,0.0,0.0,0.0,0.0,0.0,0.0,0.0,0.0,0.0,0.0,0.0,0.0,0.0,0.0,0.0,0.0,0.0,0.0,0.0,0.0,0.0,0.0,0.0,0.0,0.0,0.0,0.0,0.0,0.0,0.0,0.0,0.0,0.0,0.0,0.0,0.0,0.0,0.0,0.0,0.0,0.0,0.0,0.0,0.0,0.0,0.0,0.0,0.0,0.0,0.0,0.0,0.0,0.0,0.0,0.0,0.0,0.0,0.0,0.0,0.0,0.0,0.0,0.0,0.0,0.0,0.0,0.0,0.0,0.0,0.0,0.0,0.0,0.0,0.0,0.0,0.0,0.0,0.0,0.0,0.0,0.0,0.0,0.0,0.0,0.0,0.0,0.0,0.0,0.0,0.0,0.0,0.0,0.0,0.0,0.0,0.0,0.0,0.0,0.0,0.0,0.0,0.0,0.0,0.0,0.0,0.0,0.0,0.0,0.0,0.0,0.0,0.0,0.0,0.0,0.0,0.0,0.0,0.0,0.0,0.0,0.0,0.0,0.0,0.0,0.0,0.0,0.0,0.0,0.0,0.0,0.0,0.0,0.0,0.0,0.0,0.0,0.0,0.0,0.0,0.0,0.0,0.0,0.0,0.0,0.0,0.0,0.0,0.0,0.0,0.0,0.0,0.0,0.0,0.0,0.0,0.0,0.0,0.0,0.0,0.0,0.0,0.0,0.0,0.0,0.0,0.0,0.0,0.0,0.0,0.0,0.0,0.0,0.0,0.0,0.0,0.0,0.0,0.0,0.0,0.0,0.0,0.0,0.0,0.0,0.0,0.0,0.0,0.0,0.0,0.0,0.0,0.0,0.0,0.0,0.0,0.0,0.0,0.0,0.0,0.0,0.0,0.0,0.0,0.0,0.0,0.0,0.0,0.0,0.0,0.0,0.0,0.0,0.0,0.0,0.0,0.0,0.0,0.0,0.0,0.0,0.0,0.0,0.0,0.0,0.0,0.0,0.0,0.0,0.0,0.0,0.0,0.0,0.0,0.0,0.0,0.0,0.0,0.0,0.0,0.0,0.0,0.0,0.0,0.0,0.0,0.0,0.0,0.0,0.0,0.0,0.0,0.0,0.0,0.0,0.0,0.0,0.0,0.0,0.0,0.0,0.0,0.0,0.0,0.0,0.0,0.0,0.0,0.0,0.0,0.0,0.0,0.0,0.0,0.0,0.0,0.0,0.0,0.0,0.0,0.0,0.0,0.0,0.0,0.0,0.0,0.0,0.0,0.0,0.0,0.0,0.0,0.0,0.0,0.0,0.0,0.0,0.0,0.0,0.0,0.0,0.0,0.0,0.0,0.0,0.0,0.0,0.0,0.0,0.0,0.0,0.0,0.0,0.0,0.0,0.0,0.0,0.0,0.0,0.0,0.0,0.0,0.0,0.0,0.0,0.0,0.0,0.0,0.0,0.0,0.0,0.0,0.0,0.0,0.0,0.0,0.0,0.0,0.0,0.0,0.0,0.0,0.0,0.0,0.0,0.0,0.0,0.0,0.0,0.0,0.0,0.0,0.0,0.0,0.0,0.0,0.0,0.0,0.0,0.0,0.0,0.0,0.0,0.0,0.0,0.0,0.0,0.0,0.0,0.0,0.0,0.0,0.0,0.0,0.0,0.0,0.0,0.0,0.0,0.0,0.0,0.0,0.0,0.0,0.0,0.0,0.0,0.0,0.0,0.0,0.0,0.0,0.0,0.0,0.0,0.0,0.0,0.0,0.0,0.0,0.0,0.0,0.0,0.0,0.0,0.0,0.0,0.0,0.0,0.0,0.0,0.0,0.0,0.0,0.0,0.0,0.0,0.0,0.0,0.0,0.0,0.0,0.0,0.0,0.0,0.0,0.0,0.0,0.0,0.0,0.0,0.0,0.0,0.0,0.0,0.0,0.0,0.0,0.0,0.0,0.0,0.0,0.0,0.0,0.0,0.0,0.0,0.0,0.0,0.0,0.0,0.0,0.0,0.0,0.0,0.0,0.0,0.0,0.0,0.0,0.0,0.0,0.0,0.0,0.0,0.0,0.0,0.0,0.0,0.0,0.0,0.0,0.0,0.0,0.0,0.0,0.0,0.0,0.0,0.0,0.0,0.0,0.0,0.0,0.0,0.0,0.0,0.0,0.0,0.0,0.0,0.0,0.0,0.0,0.0,0.0,0.0,0.0,0.0,0.0,0.0,0.0,0.0,0.0,0.0,0.0,0.0,0.0,0.0,0.0,0.0,0.0,0.0,0.0,0.0,0.0,0.0,0.0,0.0,0.0,0.0,0.0,0.0,0.0,0.0,0.0,0.0,0.0,0.0,0.0,0.0,0.0,0.0,0.0,0.0,0.0,0.0,0.0,0.0,0.0,0.0,0.0,0.0,0.0,0.0,0.0,0.0,0.0,0.0,0.0,0.0,0.0,0.0,0.0,0.0,0.0,0.0,0.0,0.0,0.0,0.0,0.0,0.0,0.0,0.0,0.0,0.0,0.0,0.0,0.0,0.0,0.0,0.0,0.0,0.0,0.0,0.0,0.0,0.0,0.0,0.0,0.0,0.0,0.0,0.0,0.0,0.0,0.0,0.0,0.0,0.0,0.0,0.0,0.0,0.0,0.0,0.0,0.0,0.0,0.0,0.0,0.0,0.0,0.0,0.0,0.0,0.0,0.0,0.0,0.0,0.0,0.0,0.0,0.0,0.0,0.0,0.0,0.0,0.0,0.0,0.0,0.0,0.0,0.0,0.0,0.0,0.0,0.0,0.0,0.0,0.0,0.0,0.0,0.0,0.0,0.0,0.0,0.0,0.0,0.0,0.0,0.0,0.0,0.0,0.0,0.0,0.0,0.0,0.0,0.0,0.0,0.0,0.0,0.0,0.0,0.0,0.0,0.0,0.0,0.0,0.0,0.0,0.0,0.0,0.0,0.0,0.0,0.0,0.0,0.0,0.0,0.0,0.0,0.0,0.0,0.0,0.0,0.0,0.0,0.0,0.0,0.0,0.0,0.0,0.0,0.0,0.0,0.0,0.0,0.0,0.0,0.0,0.0,0.0,0.0,0.0,0.0,0.0,0.0,0.0,0.0,0.0,0.0,0.0,0.0,0.0,0.0,0.0,0.0,0.0,0.0,0.0,0.0,0.0,0.0,0.0,0.0,0.0,0.0,0.0,0.0,0.0,0.0,0.0,0.0,0.0,0.0,0.0,0.0,0.0,0.0,0.0,0.0,0.0,0.0,0.0,0.0,0.0,0.0,0.0,0.0,0.0,0.0,0.0,0.0,0.0,0.0,0.0,0.0,0.0,0.0,0.0,0.0,0.0,0.0,0.0,0.0,0.0,0.0,0.0,0.0,0.0,0.0,0.0,0.0,0.0,0.0,0.0,0.0,0.0,0.0,0.0,0.0,0.0,0.0,0.0,0.0,0.0,0.0,0.0,0.0,0.0,0.0,0.0,0.0,0.0,0.0,0.0,0.0,0.0,0.0,0.0,0.0,0.0,0.0,0.0,0.0,0.0,0.0,0.0,0.0,0.0,0.0,0.0,0.0,0.0,0.0,0.0,0.0,0.0,0.0,0.0,0.0,0.0,0.0,0.0,0.0,0.0,0.0,0.0,0.0,0.0,0.0,0.0,0.0,0.0,0.0,0.0,0.0,0.0,0.0,0.0,0.0,0.0,0.0,0.0,0.0,0.0,0.0,0.0,0.0,0.0,0.0,0.0,0.0,0.0,0.0,0.0,0.0,0.0,0.0,0.0,0.0,0.0,0.0,0.0,0.0,0.0,0.0,0.0,0.0,0.0,0.0,0.0,0.0,0.0,0.0,0.0,0.0,0.0,0.0,0.0,0.0,0.0,0.0,0.0,0.0,0.0,0.0,0.0,0.0,0.0,0.0,0.0,0.0,0.0,0.0,0.0,0.0,0.0,0.0,0.0,0.0,0.0,0.0,0.0,0.0,0.0,0.0,0.0,0.0,0.0,0.0,0.0,0.0,0.0,0.0,0.0,0.0,0.0,0.0,0.0,0.0,0.0,0.0,0.0,0.0,0.0,0.0,0.0,0.0,0.0,0.0,0.0,0.0,0.0,0.0,0.0,0.0,0.0,0.0,0.0,0.0,0.0,0.0,0.0,0.0,0.0,0.0,0.0,0.0,0.0,0.0,0.0,0.0,0.0,0.0,0.0,0.0,0.0,0.0,0.0,0.0,0.0,0.0,0.0,0.0,0.0,0.0,0.0,0.0,0.0,0.0,0.0,0.0,0.0,0.0,0.0,0.0,0.0,0.0,0.0,0.0,0.0,0.0,0.0,0.0,0.0,0.0,0.0,0.0,0.0,0.0,0.0,0.0,0.0,0.0,0.0,0.0,0.0,0.0,0.0,0.0,0.0,0.0,0.0,0.0,0.0,0.0,0.0,0.0,0.0,0.0,0.0,0.0,0.0,0.0,0.0,0.0,0.0,0.0,0.0,0.0,0.0,0.0,0.0,0.0,0.0,0.0,0.0,0.0,0.0,0.0,0.0,0.0,0.0,0.0,0.0,0.0,0.0,0.0,0.0,0.0,0.0,0.0,0.0,0.0,0.0,0.0,0.0,0.0,0.0,0.0,0.0,0.0,0.0,0.0,0.0,0.0,0.0,0.0,0.0,0.0,0.0,0.0,0.0,0.0,0.0,0.0,0.0,0.0,0.0,0.0,0.0,0.0,3.2745,0.0,0.0,0.0,0.0,0.0,0.0,0.0,0.0,0.0,0.0,0.0,0.0,0.0,0.0,0.0,0.0,0.0,0.0,0.0,0.0,0.0,0.0,0.0,0.0,2.0925,2.1164,2.1135,2.1061,0.0,0.0,0.0,0.0,0.0,0.0,0.0,0.0,0.0,2.0663,2.1299,2.2093,2.3566,2.5709,2.428,2.3315,2.2749,0.0,0.0,0.0,0.0,0.0,0.0,0.0,0.0,0.0,0.0,0.0,0.0,0.0,0.0,0.0,0.0,0.0,0.0,0.0,0.0,0.0,0.0,0.0,0.0,0.0,0.0,0.0,0.0,0.0,0.0,0.0,0.0,0.0,0.0,0.0,0.0,0.0,0.0,0.0,0.0,0.0,0.0,0.0,0.0,0.0,0.0,0.0,0.0,0.0,0.0,0.0,0.0,0.0,0.0,0.0,0.0,0.0,0.0,0.0,0.0,0.0,0.0,0.0,0.0,0.0,0.0,0.0,0.0,0.0,0.0,0.0,3.3831,0.0,0.0,0.0,0.0,0.0,0.0,0.0,0.0,0.0,0.0,0.0,0.0,0.0,0.0,0.0,0.0,0.0,0.0,0.0,0.0,0.0,2.0542,2.0615,2.1205,2.1691,2.1895,2.1744,2.1712,2.1944,2.1237,0.0,0.0,0.0,0.0,2.0634,2.0589,2.125,2.2639,2.4266,2.6087,2.8116,2.8116,2.7611,2.6614,2.4343,0.0,0.0,0.0,0.0,0.0,0.0,0.0,0.0,0.0,0.0,0.0,0.0,0.0,0.0,0.0,0.0,0.0,0.0,0.0,0.0,0.0,0.0,0.0,0.0,0.0,0.0,0.0,0.0,0.0,0.0,0.0,0.0,0.0,0.0,0.0,0.0,0.0,0.0,0.0,0.0,0.0,0.0,0.0,0.0,0.0,0.0,0.0,0.0,0.0,0.0,0.0,0.0,0.0,0.0,0.0,0.0,0.0,0.0,0.0,0.0,0.0,0.0,0.0,3.3666,3.404,3.4487,3.485,3.533,3.5939,3.6108,3.6325,3.6406,3.4687,0.0,0.0,0.0,0.0,0.0,0.0,0.0,0.0,0.0,0.0,0.0,0.0,0.0,0.0,0.0,0.0,0.0,0.0,0.0,2.0811,2.1166,2.1428,2.2011,2.3066,2.2774,2.2776,2.3287,2.2808,0.0,0.0,0.0,0.0,2.0371,2.0892,2.195,2.3515,2.8142,3.0839,3.1701,3.1701,3.1625,3.1352,2.8051,2.6525,2.6335,0.0,0.0,0.0,0.0,0.0,0.0,0.0,0.0,0.0,0.0,0.0,0.0,0.0,0.0,0.0,0.0,0.0,0.0,0.0,0.0,0.0,0.0,0.0,0.0,0.0,0.0,0.0,0.0,0.0,0.0,0.0,0.0,0.0,0.0,0.0,0.0,0.0,0.0,0.0,0.0,0.0,2.9938,3.0466,0.0,0.0,0.0,0.0,0.0,0.0,0.0,0.0,0.0,0.0,0.0,0.0,0.0,3.3171,3.348,3.426,3.4613,3.4576,3.622,3.7031,3.7138,3.7922,3.8339,3.8444,3.8464,0.0,3.5838,3.5003,0.0,0.0,0.0,0.0,0.0,0.0,0.0,0.0,0.0,0.0,0.0,0.0,0.0,0.0,0.0,0.0,0.0,0.0,0.0,0.0,0.0,2.3852,2.5063,2.6737,2.6731,2.6249,2.5345,2.467,0.0,0.0,0.0,2.193,2.1614,2.2975,2.5317,2.8607,3.176,3.3941,3.5147,3.4769,3.5017,3.5668,3.2926,3.0453,2.828,2.737,0.0,0.0,0.0,0.0,0.0,0.0,0.0,0.0,0.0,0.0,0.0,0.0,0.0,0.0,0.0,0.0,0.0,0.0,0.0,0.0,0.0,0.0,0.0,0.0,0.0,0.0,0.0,0.0,0.0,0.0,0.0,0.0,0.0,0.0,0.0,0.0,0.0,0.0,0.0,2.9476,3.0701,3.1595,3.1383,3.1017,0.0,0.0,0.0,0.0,0.0,0.0,0.0,0.0,0.0,3.5208,3.4882,3.4976,3.5712,3.6039,3.6092,3.5875,3.6701,3.7143,3.7282,3.7661,3.7841,3.7841,3.7841,3.7304,3.645,3.617,3.5779,3.5293,0.0,0.0,0.0,0.0,3.414,3.402,0.0,0.0,0.0,0.0,0.0,0.0,0.0,0.0,0.0,0.0,0.0,0.0,2.4819,2.661,2.8444,3.0338,3.0367,2.9798,2.8652,2.7502,2.6338,0.0,2.4019,2.3421,2.3582,2.5757,2.8895,3.2911,3.4496,3.5996,3.7348,3.6648,3.6907,3.7848,3.62,3.3724,3.0735,2.9751,2.8158,2.619,0.0,0.0,0.0,0.0,0.0,0.0,0.0,0.0,0.0,0.0,0.0,0.0,0.0,0.0,0.0,0.0,0.0,0.0,0.0,0.0,0.0,0.0,0.0,0.0,0.0,0.0,0.0,0.0,0.0,0.0,0.0,0.0,0.0,0.0,0.0,0.0,0.0,3.0783,3.1747,3.2804,3.3171,3.3083,0.0,0.0,0.0,0.0,0.0,0.0,3.5134,3.4572,3.4955,3.6492,3.6235,3.6501,3.7434,3.7302,3.7059,3.68,3.68,3.685,3.6998,3.6998,3.6998,3.7026,3.7167,3.7251,3.7223,3.7054,3.6914,3.6689,3.578,3.503,3.4544,3.5367,3.5321,3.5218,0.0,0.0,0.0,0.0,0.0,0.0,0.0,0.0,0.0,0.0,0.0,2.5007,2.6517,2.9014,3.1214,3.2786,3.2306,3.2464,3.3808,3.1799,3.0845,3.151,2.7641,2.5732,2.6296,2.9038,3.1726,3.4292,3.5837,3.6895,3.7492,3.6821,3.6528,3.6593,3.6337,3.562,3.4412,3.2458,3.0683,2.9018,2.6924,0.0,0.0,0.0,0.0,0.0,0.0,0.0,0.0,0.0,0.0,0.0,0.0,0.0,0.0,0.0,0.0,0.0,0.0,0.0,0.0,0.0,0.0,0.0,0.0,0.0,0.0,0.0,0.0,0.0,0.0,0.0,0.0,0.0,0.0,0.0,0.0,0.0,0.0,3.4333,3.5273,0.0,0.0,0.0,0.0,3.592,3.5986,3.6492,3.7653,3.7119,3.7119,3.7793,3.7231,3.6978,3.7035,3.7015,3.6987,3.6978,3.6978,3.6978,3.6998,3.6998,3.6998,3.7026,3.7597,3.785,3.7821,3.7251,3.6661,3.6145,3.6089,3.5695,3.5302,3.6464,3.6885,3.7054,0.0,0.0,0.0,0.0,0.0,2.0611,2.0611,2.0645,2.0982,2.1762,2.4401,2.6986,2.9068,3.1813,3.4007,3.5311,3.5184,3.4717,3.3969,3.3138,3.186,3.0065,2.8931,2.9058,3.0581,3.267,3.4721,3.6786,3.7711,3.8538,3.9213,3.788,3.7773,3.864,3.7256,3.6579,3.6459,3.5227,3.3285,3.0943,3.0172,2.7849,0.0,0.0,0.0,0.0,0.0,0.0,0.0,0.0,0.0,0.0,0.0,0.0,0.0,0.0,0.0,0.0,0.0,0.0,0.0,0.0,0.0,0.0,0.0,0.0,0.0,0.0,0.0,0.0,0.0,0.0,0.0,0.0,0.0,0.0,0.0,0.0,0.0,3.6037,3.6788,0.0,3.6273,3.7024,3.7673,3.7889,3.7898,3.8094,3.8516,3.756,3.711,3.7307,3.711,3.6998,3.6998,3.7372,3.7569,3.7569,3.801,3.8207,3.8207,3.8207,3.8207,3.8235,3.846,3.8544,3.8516,3.8319,3.7841,3.7279,3.7279,3.7139,3.6998,3.74,3.8123,3.8882,0.0,0.0,0.0,0.0,2.0726,2.0693,2.0611,2.067,2.1352,2.3061,2.5798,2.8667,3.1429,3.4507,3.6658,3.7457,3.749,3.7057,3.6051,3.4523,3.2968,3.1451,3.0859,3.1385,3.3227,3.5004,3.6912,3.8937,3.9317,3.9844,4.0532,3.9028,3.8875,3.9738,3.8125,3.7519,3.7653,3.7095,3.5491,3.3322,3.269,3.0378,2.7169,0.0,0.0,0.0,0.0,0.0,0.0,0.0,0.0,0.0,0.0,0.0,0.0,0.0,0.0,0.0,0.0,0.0,0.0,0.0,0.0,0.0,0.0,0.0,0.0,0.0,0.0,0.0,0.0,0.0,0.0,0.0,0.0,0.0,0.0,0.0,3.6548,3.6942,3.7906,3.8299,3.7701,3.8769,3.95,3.95,3.9303,3.9106,3.893,3.8094,3.7532,3.7307,3.7532,3.7645,3.7645,3.8038,3.8235,3.8243,3.8685,3.8902,3.8902,3.8902,3.8902,3.893,3.9106,3.9191,3.9219,3.9416,3.9135,3.8524,3.8319,3.8235,3.8235,3.8235,3.8769,3.9528,0.0,0.0,0.0,2.0786,2.076,2.0735,2.0786,2.0826,2.1762,2.4309,2.7013,2.9984,3.3415,3.6883,3.9003,3.903,3.8986,3.9364,4.0266,3.6066,3.4323,3.6164,3.3469,3.2639,3.4098,3.6035,3.8172,4.0578,4.0457,4.0718,4.1255,4.0121,3.9617,3.9585,3.8948,3.8468,3.8119,3.799,3.7319,3.6171,3.4326,3.2736,3.1224,0.0,0.0,0.0,0.0,0.0,0.0,0.0,0.0,0.0,0.0,0.0,0.0,0.0,0.0,0.0,0.0,0.0,0.0,0.0,0.0,0.0,0.0,0.0,0.0,0.0,0.0,0.0,0.0,0.0,0.0,0.0,0.0,0.0,3.6239,3.6689,3.7082,3.711,3.8713,3.9613,3.8994,4.0006,4.0659,4.0659,4.0119,3.9528,3.893,3.8902,3.86,3.7962,3.8572,3.8902,3.8902,3.893,3.893,3.893,3.8986,3.8986,3.8986,3.9015,3.9015,3.9043,3.9641,3.9894,3.995,4.0519,4.0407,3.9837,3.9191,3.8958,3.8958,3.8986,3.9015,3.9078,0.0,0.0,2.0778,2.0794,2.0778,2.0745,2.0743,2.1234,2.2559,2.5191,2.8385,3.1319,3.3757,3.6625,3.8316,3.8161,3.8133,3.7565,3.6253,3.4935,3.434,3.455,3.4912,3.5739,3.7101,3.8744,3.9787,4.0252,4.0436,4.0674,4.0912,4.0142,3.9906,4.0156,3.9787,3.9268,3.8698,3.87,3.8086,3.7031,3.6206,3.4559,3.2502,0.0,0.0,0.0,0.0,0.0,0.0,0.0,0.0,0.0,0.0,0.0,0.0,0.0,0.0,0.0,0.0,0.0,0.0,0.0,0.0,0.0,0.0,0.0,0.0,0.0,0.0,0.0,0.0,0.0,0.0,0.0,0.0,3.7597,3.7428,3.8347,3.9191,3.962,4.0126,4.0378,4.021,4.0119,4.0062,4.0062,3.95,3.9078,3.893,3.8902,3.8818,3.8629,3.8797,3.8902,3.8902,3.9331,3.9556,3.9556,4.0435,4.0856,4.0884,4.1356,4.1581,4.1581,4.1777,4.1834,4.1834,4.203,4.1974,4.1721,4.0625,4.021,4.0238,4.0688,4.1187,4.1609,0.0,2.0769,2.0745,2.0745,2.0778,2.0769,2.0718,2.1375,2.3174,2.67,2.9124,3.1819,3.5267,3.6988,3.7934,3.8158,3.737,3.6233,3.4729,3.3846,3.3852,3.4862,3.5844,3.7265,3.922,4.015,4.0638,4.0725,4.0638,4.0784,4.1118,4.0292,4.0158,4.0628,4.0248,3.9789,3.9222,3.9164,3.8554,3.7663,3.7703,3.6321,3.4213,3.4087,3.2897,3.1212,3.0657,2.9352,2.7928,2.8141,0.0,0.0,0.0,0.0,0.0,0.0,0.0,0.0,0.0,0.0,0.0,0.0,0.0,0.0,0.0,0.0,0.0,0.0,0.0,0.0,0.0,0.0,0.0,0.0,3.7878,3.9058,3.9058,3.9704,4.0294,4.0659,4.0688,4.08,4.1053,4.0772,4.0547,4.0547,4.0006,3.9528,3.9275,3.9275,3.9275,3.9275,3.9781,4.0034,4.0034,4.0653,4.0962,4.099,4.1671,4.2008,4.2036,4.2424,4.2593,4.2593,4.2593,4.2593,4.2593,4.2593,4.2593,0.0,0.0,0.0,0.0,0.0,4.2261,4.2593,2.0801,2.0751,2.0701,2.0718,2.0736,2.0793,2.0821,2.1501,2.3647,2.8326,2.9447,3.1813,3.7054,3.755,3.7774,3.8476,3.6762,3.5363,3.474,3.3259,3.3607,3.6309,3.6639,3.8021,4.0672,4.0704,4.1051,4.1731,4.0956,4.0925,4.1573,4.0482,4.0352,4.0927,4.0489,4.0094,3.9738,3.9535,3.8921,3.8169,3.8809,3.781,3.6004,3.5962,3.4935,3.3536,3.3636,3.2666,3.1271,3.1011,0.0,0.0,0.0,0.0,0.0,0.0,0.0,0.0,0.0,0.0,0.0,0.0,0.0,0.0,0.0,0.0,0.0,0.0,0.0,0.0,0.0,0.0,0.0,0.0,3.9479,4.0716,4.08,4.08,4.08,4.08,4.08,4.1053,4.1671,4.1621,4.1593,4.1593,4.1109,4.0575,4.0034,0.0,0.0,0.0,0.0,4.1727,4.1727,4.2289,4.2593,4.2593,4.2677,4.2705,4.2705,4.2789,4.2846,4.2902,4.2902,4.2958,4.3014,4.3014,4.3014,4.3014,4.2789,4.2733,4.2818,4.2902,4.2902,4.293,2.0804,2.0718,2.0726,2.0761,2.076,2.0932,2.1559,2.2177,2.4118,2.8502,2.9962,3.2145,3.624,3.7031,3.7334,3.7538,3.6581,3.5353,3.4085,3.489,3.5934,3.7048,3.884,4.0277,4.1367,4.1415,4.1763,4.249,4.1209,4.0925,4.1573,4.0514,4.0227,4.0673,4.0847,4.0658,4.0195,4.0307,3.9801,3.8903,3.914,3.8154,3.6614,3.7297,3.6893,3.6013,3.6013,3.5382,3.453,3.4626,3.3226,3.1452,3.1489,3.0843,0.0,0.0,0.0,0.0,0.0,0.0,0.0,0.0,0.0,0.0,0.0,0.0,0.0,0.0,0.0,0.0,0.0,0.0,0.0,3.785,3.9479,4.0884,4.1362,4.1446,4.1446,4.1446,4.1446,4.1671,4.2317,4.1924,4.1593,4.1593,4.1481,4.139,4.1278,4.1755,4.2058,4.2058,4.2283,4.2424,4.2424,4.2536,4.2593,4.2621,0.0,0.0,4.3329,4.3835,4.434,4.4766,4.4766,4.5099,4.5577,4.5577,4.5577,4.5436,4.3919,4.361,4.4116,4.4598,4.4766,4.4851,2.181,2.1747,2.1764,2.1808,2.1817,2.1943,2.2289,2.2695,2.4292,2.8012,2.903,3.0839,3.4695,3.4631,3.4345,3.4491,3.3835,3.3569,3.3884,3.5731,3.7581,3.9377,4.0877,4.162,4.1605,4.1953,4.2332,4.2711,4.1272,4.1114,4.2111,4.0499,4.0039,4.0609,4.0769,4.0705,4.048,4.0826,4.0525,3.9863,4.0111,3.9311,3.8044,3.8419,3.8262,3.7778,3.7399,3.704,3.6693,3.6248,3.5201,3.402,3.3722,3.3079,3.2211,0.0,0.0,0.0,0.0,0.0,0.0,0.0,0.0,0.0,0.0,0.0,0.0,0.0,0.0,3.5836,3.6436,0.0,3.8713,3.9592,4.0547,4.1362,4.2008,4.2093,4.2093,4.2093,4.2093,4.2345,4.2986,4.2739,4.2683,4.2969,4.2997,4.2997,4.2997,4.302,4.3071,4.3071,4.3071,4.3071,4.3071,4.3638,4.3947,4.3975,4.4593,4.4902,4.4902,4.5212,4.5521,4.5802,4.5802,4.5998,4.6307,4.6307,4.6307,4.6195,4.5268,4.5099,4.538,4.5689,4.5802,4.5858,2.3086,2.3011,2.2911,2.2714,2.2642,2.2636,2.2736,2.2979,2.4349,2.7581,2.8095,2.9552,3.3144,3.2287,3.1267,3.0894,3.12,3.2115,3.3772,3.6676,3.9393,4.1715,4.2505,4.26,4.2031,4.2459,4.2758,4.2884,4.1336,4.1241,4.2459,4.0419,3.9819,4.0388,4.0388,4.0482,4.0624,4.1014,4.0999,4.0798,4.1085,4.0629,3.9723,3.9626,3.9373,3.8948,3.8169,3.8077,3.8172,3.6947,3.6431,3.6127,3.529,3.4593,3.3797,3.2434,3.2545,0.0,0.0,0.0,0.0,0.0,0.0,0.0,0.0,3.4544,3.4759,3.6005,3.6764,3.7476,3.844,3.9163,4.009,4.1559,4.1783,4.2036,4.2677,4.2902,4.2986,4.3104,4.293,4.3048,4.3778,4.3863,4.4116,4.4734,4.479,4.479,4.479,4.4312,4.4088,4.4228,4.4228,4.4284,4.4397,4.5244,4.5665,4.5665,4.6111,4.6307,4.6307,4.6307,4.6364,4.6476,4.6588,4.6645,4.6645,4.6645,4.6645,4.6645,4.6645,4.6645,4.6645,4.6504,4.6476,4.6476,2.3979,2.3802,2.3241,2.2394,2.1891,2.1794,2.2434,2.2849,2.4357,2.7883,2.8665,2.9861,3.2377,3.2,3.0575,2.8109,3.1211,3.3321,3.3367,3.8842,4.2252,4.2553,4.3232,4.3562,4.3467,4.2947,4.2979,4.3594,4.1572,4.0988,4.17,4.0198,3.9534,3.9629,3.9629,3.9977,4.0609,4.0656,4.1003,4.1494,4.1524,4.1461,4.1351,4.1334,4.048,3.9155,3.835,3.8583,3.9001,3.7339,3.7135,3.752,3.7111,3.5942,3.4789,3.517,3.3978,3.2455,3.2174,3.2718,3.3785,3.5395,3.5789,3.6492,0.0,3.903,3.8629,3.9816,4.0575,4.1025,4.1144,4.1727,4.2255,4.2452,4.2508,4.2705,4.3301,4.3863,4.4401,4.4935,4.4059,4.3863,4.4991,4.5103,4.5356,4.6026,4.6083,4.6083,4.6083,4.6026,4.6223,4.6785,4.6785,4.7038,4.7575,4.7182,4.701,4.6982,4.6504,4.6307,4.6307,4.6307,4.6588,4.715,4.7659,4.7884,4.7884,4.7884,4.7884,4.7884,4.7884,4.7884,4.7828,4.7319,4.7094,4.7178,2.4643,2.4394,2.401,2.3601,2.334,2.3182,2.3159,2.3339,2.4127,2.5847,2.597,2.6519,2.813,2.7707,2.6645,2.5047,2.9816,3.2855,3.2743,3.8968,4.2711,4.2711,4.3737,4.4099,4.372,4.3815,4.3815,4.372,4.2442,4.1984,4.2206,4.0798,4.0135,4.0135,4.0135,4.0324,4.064,4.102,4.1336,4.1605,4.1605,4.1605,4.1555,4.1108,4.0115,3.8834,3.8277,3.8058,0.0,3.6635,3.6645,3.7067,3.6582,3.5947,3.529,3.4836,3.4425,3.4453,3.5892,3.5874,3.5826,3.7335,3.7749,3.8086,3.936,3.9247,3.9331,4.0912,4.1418,4.1727,4.2121,4.2424,4.2705,0.0,4.3413,4.3863,4.4458,4.5099,4.5605,4.5858,4.5436,4.5324,4.583,4.5886,4.6139,4.6785,4.715,4.7491,4.7856,4.7519,4.7463,4.7715,4.7038,4.6982,4.7575,4.7659,4.7884,4.8249,4.8387,4.844,4.844,4.805,4.7996,4.8249,4.853,4.8839,4.9174,4.8783,4.8642,4.8586,4.8249,4.7699,4.7153,4.7572,4.7308,4.685,2.4604,2.4208,2.387,2.387,2.4006,2.3976,2.3529,2.3658,2.3915,2.4227,2.4089,2.4195,2.4846,2.413,2.3351,2.2786,2.7701,3.1171,3.2013,3.8013,4.1958,4.293,4.4085,4.4573,4.4289,4.4352,4.4211,4.372,4.2821,4.2395,4.2364,4.1336,4.0672,4.0324,4.0514,4.0482,4.0356,4.102,4.1447,4.1605,4.1605,4.1605,4.1491,4.0386,3.9168,3.7985,3.7689,3.7062,3.6162,3.5179,3.5245,3.5692,3.5245,3.4873,3.4566,3.4379,3.4693,3.5562,3.7503,3.7518,3.7307,3.8572,3.9275,3.9641,3.9641,3.9781,4.0287,4.1615,4.2008,4.2261,4.2761,4.3104,4.3497,4.3947,4.4537,4.5099,4.5497,4.6139,4.656,4.656,4.6701,4.6813,4.6813,4.6645,4.6869,4.7631,4.794,4.8445,4.9232,4.8698,4.8502,4.8839,4.8021,4.7853,4.8471,4.8752,4.9091,4.9513,4.9846,5.0013,4.9958,4.9511,4.926,4.926,4.926,4.9356,4.9427,4.8957,4.8467,4.7985,4.7683,4.6883,4.6006,4.701,4.6746,4.6032,2.3653,2.2904,2.2257,2.2257,2.2764,2.3146,2.3118,2.3502,2.3821,2.3903,2.4288,2.4402,2.399,2.2823,2.201,2.1841,2.4921,2.8205,3.131,3.5998,4.0128,4.3528,4.432,4.5015,4.571,4.4419,4.3706,4.372,4.2315,4.1637,4.1637,4.1605,4.083,3.9566,4.0293,4.0198,3.9566,4.0324,4.0988,4.1605,4.1605,4.1605,4.1381,3.9412,3.7802,3.656,3.6394,3.559,3.437,3.2982,3.2915,3.3403,3.3375,3.2578,3.2123,3.463,3.4967,3.4638,3.5188,3.6145,3.7307,3.8572,4.021,4.1509,4.1509,4.2008,4.2508,4.2565,4.3042,4.3441,4.3469,4.4429,4.5216,4.5244,4.583,4.6251,4.6251,4.6785,4.7178,4.7178,4.7687,4.8052,0.0,4.7519,4.7659,4.8867,4.8417,4.8668,4.9902,4.9342,4.9541,5.0774,5.0774,5.1055,5.1646,5.1111,5.083,5.083,5.0268,5.0013,5.0013,4.9985,4.9958,4.9958,4.9958,4.9296,4.8138,4.8138,4.7079,4.5586,4.6053,4.5611,4.4723,4.5298,4.5141,4.467,2.4104,2.4025,2.4009,2.4439,2.4762,2.4684,2.3881,2.351,2.3323,2.3375,2.3502,0.0,0.0,0.0,0.0,0.0,2.5983,2.87,3.0002,3.5459,3.931,4.0775,4.2911,4.4162,4.4415,4.3941,4.3485,4.3042,4.2568,4.2079,4.1605,4.1146,4.0672,4.023,3.9977,4.0008,4.0261,4.0482,4.0988,4.1605,4.1605,4.0807,3.9537,3.8757,3.6337,3.3295,0.0,3.2566,3.1833,3.1824,3.2202,3.266,3.2548,3.2309,3.2106,3.2142,3.3108,3.4425,3.5496,3.731,3.9163,4.0378,4.1474,4.2261,4.2261,4.2452,4.2705,4.3104,4.3042,4.3132,4.3947,4.4429,4.4823,4.5244,4.6199,4.6897,4.6897,4.7406,4.78,4.78,4.8333,0.0,0.0,0.0,0.0,4.8925,4.923,4.9734,5.0549,5.0382,5.0465,5.0886,5.0493,5.0577,5.1195,5.0999,5.1111,5.1505,5.1308,5.0971,5.0605,5.0605,5.0605,5.0605,5.0605,5.0101,4.9249,4.887,4.7852,4.6517,4.6669,4.6057,4.5167,4.5901,4.5341,4.4248,2.4143,2.4176,2.4328,2.5016,2.5216,0.0,0.0,0.0,0.0,0.0,0.0,0.0,0.0,0.0,0.0,0.0,0.0,2.7978,2.9232,3.3108,3.6232,3.8121,3.9807,4.0789,4.1055,4.082,4.0586,4.0352,4.0817,4.1014,4.0964,4.1214,4.1119,4.0769,4.0547,4.0499,4.0561,4.002,4.0188,4.0687,3.974,3.8729,3.7687,3.6956,3.4732,0.0,3.1103,3.0528,3.0134,2.9897,3.0375,3.1002,3.0579,3.1026,3.1618,3.1453,3.2836,3.4881,3.6867,3.8734,4.0428,4.1643,4.243,4.2986,4.3188,4.3413,4.375,4.4369,4.3835,4.3469,4.4256,4.457,4.4766,4.4935,4.6055,4.6954,4.7178,4.7519,4.794,4.8361,4.8979,4.937,0.0,0.0,0.0,4.9625,4.9874,5.0352,5.1195,5.1027,5.0999,5.1224,5.0858,5.083,5.1224,5.1224,5.142,5.1787,5.1543,5.1211,5.0795,5.0573,5.046,5.046,5.046,4.9973,4.9112,4.8714,4.7811,4.6599,4.6743,4.6174,4.5385,4.5873,4.5415,4.4528,2.3705,2.348,2.3419,0.0,0.0,0.0,0.0,0.0,0.0,0.0,0.0,0.0,0.0,0.0,0.0,0.0,0.0,0.0,2.8869,2.9318,3.1388,3.5657,3.5462,3.5544,3.6174,3.5544,3.5465,3.6025,3.7214,3.8402,3.961,4.1342,4.1642,4.0783,4.139,4.1135,4.0196,3.8813,3.856,3.8889,3.6411,3.5726,3.5965,3.4224,3.3106,3.2238,3.0378,2.9645,2.9307,2.7523,2.7817,2.8802,2.8145,2.9123,3.0881,3.2658,3.4238,3.6077,3.8984,4.0329,4.1165,4.2396,4.3132,4.375,4.4369,4.4935,4.5497,4.6034,4.514,4.4247,4.4195,4.4728,4.5004,4.4523,4.5553,4.6645,4.7263,4.7347,4.7771,0.0,0.0,0.0,0.0,0.0,0.0,5.0886,0.0,5.0575,5.1758,5.1252,5.1224,5.1786,5.1814,5.1787,5.1787,5.176,5.1761,5.1789,5.1119,5.0736,5.0621,5.0095,4.9762,4.9702,4.9702,4.8999,4.7795,4.7795,4.696,4.5747,4.6219,4.605,4.5441,4.5302,4.5344,4.5515,0.0,0.0,0.0,0.0,0.0,0.0,0.0,0.0,0.0,0.0,0.0,0.0,0.0,0.0,0.0,0.0,0.0,0.0,2.7157,2.9246,3.1037,3.2386,3.3903,3.4711,3.4749,3.4138,3.4156,3.4909,3.5083,3.5633,3.6511,3.6371,3.6177,3.601,3.5674,3.575,3.6101,3.5729,3.5888,3.6334,3.5774,3.4934,3.4092,3.4201,3.291,3.1043,3.1019,3.0138,2.8914,2.8914,3.0227,3.2132,3.3465,3.3713,3.38,3.5311,3.7002,3.8577,3.9359,4.1474,4.3531,4.3863,4.4397,4.4991,4.5661,4.5942,4.5608,4.4077,4.3163,4.2312,4.1308,4.245,4.3839,4.4833,4.6857,4.8555,4.9199,4.9284,0.0,4.9705,0.0,5.0661,5.0661,5.1083,0.0,0.0,5.0999,5.1079,5.2058,5.1755,5.1727,5.2086,5.1896,5.1787,5.1787,5.1265,5.1224,5.1718,5.1741,5.1127,5.0003,5.1025,5.0812,4.9702,4.9702,4.8999,4.7795,4.7795,4.7026,4.5893,4.6424,4.6504,4.6432,4.7061,4.7207,4.7206,0.0,0.0,0.0,0.0,0.0,0.0,0.0,0.0,0.0,0.0,0.0,0.0,0.0,0.0,0.0,0.0,0.0,0.0,0.0,2.8052,2.924,2.9849,3.1075,3.1524,3.1095,3.0809,3.0971,3.1608,3.2149,3.3046,3.4266,3.4362,3.4364,3.4273,3.3925,3.4076,3.4586,3.3597,3.3674,0.0,0.0,3.2921,3.2473,3.3281,3.2634,3.1342,3.1443,3.1162,3.0916,3.2253,3.3221,3.4044,3.5217,3.5507,3.5748,3.7431,3.8858,4.0143,4.1327,4.318,4.4795,4.4795,4.5272,4.5677,4.5442,4.5369,4.5028,4.3776,4.2327,4.1312,4.1382,4.2551,4.3734,4.462,4.6926,4.8839,4.9483,4.9565,4.9814,0.0,5.1103,0.0,5.147,5.178,5.1923,0.0,5.1505,5.1503,5.2004,5.1868,5.2064,5.2618,5.251,5.2595,5.3015,5.1899,5.1511,5.1865,5.099,5.0098,4.9235,4.9837,4.96,4.8743,0.0,4.8332,4.7656,4.7656,4.7328,4.6794,4.6813,4.7119,4.7615,4.7447,4.7752,4.8251,0.0,0.0,0.0,0.0,0.0,0.0,0.0,0.0,0.0,2.4444,2.3728,2.3672,0.0,0.0,0.0,0.0,0.0,0.0,0.0,0.0,2.7163,2.8066,2.8177,2.7895,2.7153,2.7148,2.7368,2.7714,2.8972,3.0455,3.2126,3.3256,3.3636,3.3391,3.3391,3.3592,3.3798,3.1841,3.1683,3.2549,3.0974,3.068,3.1305,0.0,3.2455,3.2455,3.1836,3.2455,3.3864,3.5935,3.6148,3.5628,3.5929,3.667,3.7787,3.9704,4.0643,4.1571,4.3985,4.5019,4.544,4.5525,4.5998,4.6028,4.4652,4.4496,4.4468,4.3824,4.216,4.1214,4.2436,4.3485,4.4227,4.4477,4.6618,4.8527,4.926,4.937,4.9868,5.1235,5.1939,5.2336,5.2336,5.2447,5.2422,5.2204,5.2176,5.2148,5.2036,5.212,5.2429,5.3048,5.3048,5.3386,5.4064,5.2441,5.1681,5.1733,4.9755,4.866,4.843,4.8012,4.7729,4.7497,4.7636,4.7684,4.7684,4.7823,4.8046,4.8245,4.7523,4.7911,4.869,4.7344,4.7753,4.8741,0.0,0.0,0.0,0.0,0.0,0.0,0.0,0.0,0.0,0.0,2.4937,2.4191,0.0,0.0,0.0,0.0,0.0,0.0,0.0,0.0,0.0,2.7635,2.8138,2.8092,2.7288,2.6806,2.6643,2.6814,2.6958,2.7522,2.844,2.8488,2.8576,2.8692,2.8692,2.9078,2.9736,2.9327,2.9528,3.0078,3.0355,3.0751,3.1294,3.2106,0.0,0.0,3.2455,3.3371,3.5002,3.589,3.7418,3.9313,4.1383,4.2161,4.2544,4.3887,4.4381,4.4685,4.5669,4.6055,4.6251,4.6757,4.6982,4.6671,4.5338,4.6058,4.5786,4.1485,4.1949,4.246,4.0298,4.2028,4.4294,4.5871,4.7841,4.9688,5.1111,5.1309,5.142,0.0,5.2481,5.3014,5.3014,5.3744,0.0,0.0,5.4112,5.3884,5.3344,5.3827,5.3556,5.231,5.2281,5.1974,5.1319,4.9914,4.9461,4.9951,4.9831,4.9042,4.7749,4.898,4.8803,4.7521,4.8312,0.0,4.8722,4.9438,4.9778,4.9778,4.9363,4.914,4.8974,4.8392,4.836,4.8534,0.0,0.0,0.0,0.0,0.0,0.0,0.0,2.6272,2.6877,2.8099,2.7509,2.6961,2.6933,2.7186,2.7242,0.0,0.0,0.0,0.0,0.0,0.0,0.0,0.0,0.0,0.0,0.0,0.0,0.0,0.0,2.679,2.7127,2.6705,2.6566,2.6679,2.6679,2.7058,2.7734,2.8086,2.8715,2.9607,3.0596,3.1337,3.1904,0.0,0.0,0.0,3.1926,3.2945,3.4649,3.4442,3.6989,4.0575,4.2452,4.3666,4.4621,4.5549,4.583,4.597,4.6588,4.6785,4.6841,4.715,4.7659,4.7438,4.4729,4.4939,4.48,4.144,4.1178,4.1477,4.1231,4.294,4.4645,4.5539,4.8024,5.0134,5.0904,5.1609,5.2172,5.2675,5.3258,5.3406,5.2911,5.3248,5.3104,5.2128,5.3268,5.3668,5.2883,5.2757,5.2361,5.1537,5.2012,5.2008,5.154,5.0076,4.9469,4.9746,4.9524,4.901,4.8264,4.9512,4.9669,4.8944,4.9178,4.9198,4.8995,4.9227,4.9197,4.8958,4.8431,4.8389,4.8555,4.7994,4.8075,4.8449,0.0,0.0,0.0,0.0,0.0,0.0,2.7608,2.7917,2.8536,3.001,3.0191,3.0038,2.9532,2.9139,2.8648,0.0,0.0,0.0,0.0,0.0,0.0,0.0,0.0,0.0,0.0,0.0,0.0,0.0,0.0,0.0,0.0,0.0,0.0,0.0,2.616,2.6497,2.7242,2.7777,2.8704,0.0,0.0,3.1977,0.0,0.0,0.0,0.0,0.0,3.2527,3.3953,3.3621,3.6353,4.0154,4.1721,4.3526,4.5244,4.5886,4.6083,4.6279,4.7126,4.7319,4.7263,4.7519,4.8305,4.8056,4.4447,4.4091,4.3981,4.2064,4.1105,4.114,4.2967,4.4326,4.5255,4.5412,4.7619,4.9575,5.0214,5.1155,5.2198,5.3372,5.4041,0.0,5.3328,5.3124,0.0,5.0917,5.22,5.2936,5.2686,5.1797,5.1237,5.1092,5.179,5.208,5.1931,5.0685,5.0035,5.0035,4.9446,4.9191,4.9215,4.9909,5.0115,4.997,4.9889,4.9586,4.9115,4.8993,4.8763,4.8426,4.7819,4.7969,4.8388,4.7637,4.7744,4.8268,0.0,0.0,0.0,0.0,0.0,0.0,2.7608,2.8283,2.9463,3.1836,3.2145,3.2117,3.2061,3.0544,2.9279,0.0,0.0,0.0,0.0,0.0,0.0,0.0,0.0,0.0,0.0,0.0,0.0,0.0,0.0,0.0,0.0,0.0,0.0,0.0,0.0,0.0,2.8521,2.8592,0.0,0.0,0.0,0.0,0.0,0.0,0.0,0.0,0.0,3.3213,3.3638,3.5255,3.6478,3.7757,4.0126,4.2542,4.4598,4.5216,4.5384,4.5777,4.7547,4.7603,4.7463,4.8558,4.8897,4.8348,4.5868,4.5774,4.5376,4.2552,4.2964,4.3934,4.413,4.5087,4.6131,4.7027,4.6607,4.7172,4.991,5.0334,5.1094,5.3015,0.0,0.0,5.5703,5.5051,5.4631,5.4455,5.2611,5.2411,5.4542,5.3142,5.197,5.128,5.1357,5.1057,5.0413,5.027,5.017,5.017,5.0118,5.0075,5.01,5.0158,4.981,4.9246,5.0004,4.9945,0.0,5.0111,5.0374,5.0338,4.9937,4.9629,4.9295,4.8562,4.81,4.7794,0.0,0.0,0.0,0.0,0.0,0.0,2.9195,2.9336,3.0247,3.3111,3.2859,3.2539,3.2887,3.1949,3.074,2.9364,0.0,0.0,0.0,0.0,0.0,0.0,0.0,0.0,0.0,0.0,0.0,0.0,0.0,0.0,0.0,0.0,0.0,0.0,0.0,0.0,0.0,0.0,0.0,0.0,0.0,0.0,0.0,0.0,0.0,0.0,0.0,0.0,3.3269,3.3183,3.4856,3.7052,3.731,3.9348,4.2121,4.457,4.5581,4.6199,4.7687,4.8193,4.8417,4.8895,4.867,4.7786,4.5581,4.5122,4.4627,4.2864,4.3464,4.4363,4.4612,4.5357,4.5901,4.5904,4.637,4.6979,4.7494,4.9771,5.1194,5.0792,5.3077,5.4134,0.0,0.0,5.2966,5.3525,5.1748,5.1507,5.3458,5.2,5.0955,5.0647,5.0614,5.0506,5.0183,5.0183,5.0183,5.0216,5.0765,5.0938,5.0675,5.1019,5.0891,5.036,5.0263,4.9912,0.0,4.9581,4.9496,4.9257,4.9137,4.8848,4.8427,4.8159,4.7794,4.7428,0.0,0.0,0.0,0.0,0.0,2.8423,3.0219,3.0134,3.0921,3.3824,3.3308,3.2887,3.3505,3.2859,3.1864,3.0528,3.0078,0.0,0.0,0.0,0.0,0.0,0.0,0.0,0.0,0.0,0.0,0.0,0.0,0.0,0.0,0.0,0.0,0.0,0.0,0.0,0.0,0.0,0.0,0.0,0.0,0.0,0.0,0.0,0.0,0.0,0.0,0.0,0.0,0.0,0.0,3.6631,3.5953,3.7334,3.9929,4.3469,4.4959,4.5858,4.7603,4.8558,4.9091,4.9457,4.8949,4.7949,4.633,4.5331,4.4556,4.3855,4.4031,4.4473,4.51,4.5598,4.5743,4.5256,4.5659,4.6147,4.6489,4.8805,5.0219,4.9605,5.1761,5.2595,5.0815,5.1177,5.1604,5.1783,5.1047,5.1113,5.2261,5.1498,5.0873,5.0623,5.0598,5.0765,5.0981,5.0981,5.0981,5.0981,5.1573,5.1678,5.1437,5.1564,5.1352,5.0824,5.0211,4.964,0.0,4.9047,4.8789,4.8447,4.8754,4.8616,4.8225,4.8115,4.7967,4.7782,0.0,0.0,0.0,0.0,0.0,0.0,3.0219,3.05,3.1382,3.388,3.3655,3.3533,3.4133,3.3111,3.2398,3.237,3.123,0.0,0.0,0.0,0.0,0.0,0.0,0.0,0.0,0.0,3.1668,3.2058,3.2856,3.2943,0.0,0.0,0.0,0.0,0.0,0.0,0.0,0.0,0.0,0.0,0.0,0.0,3.4189,0.0,0.0,0.0,0.0,0.0,0.0,0.0,0.0,0.0,0.0,3.74,3.8524,4.1721,4.3048,4.42,4.7266,4.8558,4.9316,5.0577,5.0116,4.9249,4.8849,4.7218,4.5781,4.5854,4.5012,4.4643,4.5685,4.5917,4.5917,4.5888,4.4177,4.4125,4.7753,4.7326,4.7606,5.0178,5.1284,5.1878,5.2074,5.2076,5.1412,4.9742,5.086,0.0,5.1507,5.2398,5.2482,5.1591,5.1566,5.2011,5.287,5.287,5.287,5.287,5.256,5.2387,5.2352,5.1562,5.0789,5.0104,4.9688,4.9101,0.0,4.8905,4.8854,4.8588,4.9499,4.963,4.9231,4.8854,4.8929,4.9156,0.0,0.0,0.0,0.0,0.0,0.0,0.0,3.05,3.1241,3.329,3.3055,3.3083,3.4076,3.3505,3.3027,3.3027,3.1893,0.0,0.0,0.0,0.0,0.0,0.0,0.0,0.0,0.0,3.1763,3.2313,3.214,3.2174,3.2398,3.1977,3.1893,0.0,0.0,0.0,0.0,0.0,0.0,0.0,0.0,3.4189,3.4245,0.0,0.0,0.0,0.0,0.0,0.0,0.0,0.0,0.0,0.0,0.0,0.0,4.0491,4.2169,4.3602,4.6007,4.7421,4.8329,4.8752,4.7888,4.6914,4.6792,4.5705,4.4766,4.4821,4.5132,4.5504,4.585,4.5917,4.604,4.6453,4.5976,4.5586,4.5743,4.7951,4.8869,4.7088,4.868,5.0215,5.0878,5.092,5.0974,5.1082,5.1763,5.2138,5.2138,5.2416,5.2544,5.2507,5.2482,5.2513,5.2585,5.2585,5.2283,5.1761,5.1632,5.1476,5.1284,5.0819,5.0528,5.037,4.9965,4.9485,4.9024,4.9184,4.8967,4.8629,4.9261,4.9254,4.8914,4.9065,4.9027,4.8876,0.0,0.0,0.0,0.0,0.0,0.0,0.0,3.0883,3.148,3.3129,3.2897,3.3066,3.4292,3.3744,3.3392,3.3599,3.2746,0.0,0.0,0.0,0.0,0.0,0.0,0.0,0.0,3.1836,3.2258,3.3083,3.269,3.269,3.3083,3.269,3.2606,3.2718,3.2342,0.0,0.0,0.0,0.0,0.0,3.4235,3.4431,3.4273,0.0,0.0,0.0,0.0,0.0,0.0,0.0,0.0,0.0,0.0,0.0,0.0,0.0,4.1354,4.3196,4.558,4.695,4.7828,4.8154,4.7311,4.6417,4.6417,4.5619,4.4897,4.4897,4.5458,4.5917,4.5917,4.5827,4.5875,4.6229,4.6189,4.6201,4.654,4.8291,4.8791,4.6697,4.7938,4.9189,4.9733,5.035,5.0906,5.1341,5.2063,5.2431,5.2266,5.2594,5.2868,5.3103,5.268,5.2407,5.2231,5.2231,5.2013,5.157,5.1428,5.1238,5.1077,5.0603,5.0313,5.0206,4.9818,4.9442,0.0,4.9268,4.907,4.8765,4.9539,4.9515,4.9071,4.9668,4.9706,4.9515,0.0,0.0,0.0,0.0,0.0,0.0,0.0,3.1404,3.1867,3.3099,3.3049,3.3346,3.4572,3.3857,3.3533,3.4076,0.0,0.0,0.0,0.0,0.0,0.0,0.0,0.0,0.0,3.2455,3.2999,3.4133,3.4189,3.4189,3.4189,3.4245,3.3936,3.3364,3.3364,3.3336,0.0,0.0,0.0,0.0,3.458,3.4693,0.0,0.0,0.0,0.0,0.0,0.0,0.0,0.0,0.0,0.0,0.0,0.0,0.0,0.0,0.0,0.0,0.0,4.687,4.7538,4.8357,4.7912,4.7289,4.7289,4.6553,0.0,4.5917,4.5917,4.5895,4.5895,4.5663,4.5533,4.5539,4.5218,4.6,4.913,4.838,4.7775,4.8538,4.8812,4.8946,4.898,5.0316,5.1097,5.0851,5.1926,5.2443,5.2063,5.2897,5.3346,5.3346,5.2389,5.1918,5.2098,5.2063,5.2114,5.2162,5.1747,5.1513,5.15,5.0834,5.0299,0.0,4.9571,4.9193,4.8799,4.9269,4.9278,4.9013,5.0297,5.0322,4.9695,5.0516,5.0828,5.0828,0.0,0.0,0.0,0.0,0.0,0.0,0.0,0.0,0.0,0.0,3.2275,3.28,3.3572,3.3445,3.3364,0.0,0.0,0.0,0.0,0.0,0.0,0.0,0.0,0.0,0.0,3.3083,3.3224,3.3505,3.3964,3.4189,3.4217,3.4702,3.4618,3.3992,3.3992,3.3712,0.0,0.0,0.0,0.0,3.3635,3.3645,0.0,0.0,0.0,0.0,3.5648,3.6005,0.0,0.0,0.0,0.0,0.0,0.0,0.0,0.0,4.1689,4.242,4.4004,0.0,4.601,4.62,4.6264,4.6239,0.0,4.6053,4.5917,4.5917,4.5917,4.585,4.5617,4.5549,4.5608,4.5911,4.5553,4.5763,4.7352,4.8094,4.886,4.9829,5.0121,5.0352,5.0607,5.1124,5.1573,5.191,5.2429,5.2694,5.2622,5.2816,5.2925,5.2925,5.2453,5.2452,5.3078,5.2766,5.2333,5.1796,5.1097,5.0788,5.0822,5.0633,5.0749,5.1025,5.0949,5.068,5.0271,5.0407,5.022,4.9908,5.0549,5.0672,5.0555,5.106,5.1277,5.1277,0.0,0.0,0.0,0.0,0.0,0.0,0.0,0.0,0.0,0.0,0.0,3.2808,3.3893,3.3577,0.0,0.0,0.0,0.0,0.0,0.0,0.0,0.0,0.0,0.0,3.328,3.3308,3.3589,3.4169,3.4506,3.4815,3.5068,3.5171,3.4843,3.4189,3.3908,3.3599,0.0,0.0,0.0,3.3757,3.4056,0.0,0.0,0.0,0.0,0.0,3.6203,3.6702,0.0,3.807,3.8631,3.8954,0.0,0.0,0.0,0.0,4.2022,4.2748,4.3573,4.4539,4.5258,4.5136,4.5415,4.5708,4.5708,4.5708,4.5663,4.5549,4.5617,4.5481,4.4736,4.5287,4.5567,4.4553,4.5854,4.7209,4.7896,4.9059,4.9956,5.0346,5.071,5.1112,5.1631,5.1826,5.197,5.2295,5.2719,5.295,5.295,5.3131,5.3252,5.3252,5.2882,5.2601,5.2399,5.2338,5.1977,5.13,5.1036,5.091,5.0957,5.0957,5.104,5.1099,5.1099,5.0905,5.0516,5.0516,5.04,5.0244,5.0633,5.0672,5.0594,5.1176,5.1277,5.116,0.0,0.0,0.0,0.0,0.0,0.0,0.0,0.0,0.0,0.0,0.0,0.0,0.0,0.0,0.0,0.0,0.0,0.0,0.0,0.0,0.0,0.0,0.0,3.2757,3.3245,3.329,3.3814,3.4871,3.5049,3.5461,3.6089,3.5639,3.5059,3.4329,3.3814,3.3477,0.0,0.0,3.4189,3.4245,3.4918,0.0,0.0,0.0,0.0,0.0,0.0,0.0,0.0,3.9097,3.9536,3.9668,4.0395,0.0,0.0,0.0,0.0,0.0,4.3596,4.467,4.5527,4.4838,4.5078,4.5504,4.5504,4.5481,4.539,4.5207,4.5321,4.5132,4.4121,4.5103,4.5411,4.3281,4.6258,4.8915,4.9242,5.0395,5.108,5.0673,5.1093,5.1606,5.2296,5.2392,5.2427,5.2499,5.2969,5.321,5.321,5.3582,5.3785,5.3785,5.3346,5.249,5.1259,5.1614,5.1521,5.0905,5.1215,5.1392,5.1315,5.1392,5.1215,5.0866,0.0,0.0,5.04,5.04,5.04,5.0439,5.075,5.0672,5.0478,5.116,5.1176,5.0967,0.0,0.0,0.0,0.0,0.0,0.0,0.0,0.0,0.0,0.0,0.0,0.0,0.0,0.0,0.0,0.0,0.0,0.0,0.0,0.0,0.0,0.0,3.3224,3.3126,3.3041,3.321,3.3322,3.3338,3.4362,3.5293,3.6117,3.6336,3.5945,3.5021,3.4946,3.4299,3.3336,3.3936,3.4189,3.4245,3.4918,0.0,0.0,0.0,0.0,0.0,0.0,0.0,0.0,3.8218,3.9033,3.977,3.9897,0.0,0.0,0.0,0.0,0.0,4.3079,4.5655,4.7868,4.5584,4.5258,4.5504,4.5504,4.5321,4.523,4.5413,4.5299,4.5294,4.578,4.5416,4.5115,4.54,4.7112,4.8572,4.9066,5.0863,5.2028,5.1773,5.1958,5.2272,5.2696,5.2876,5.3125,5.3558,5.3654,5.3702,5.3702,5.3774,5.3785,5.3785,5.3105,5.226,5.1386,5.1769,5.1739,5.1308,5.137,5.1238,5.0905,5.1215,5.1392,5.1315,0.0,5.1254,5.1238,5.1238,5.1238,5.1238,5.1277,5.1277,5.1215,5.1354,5.1354,5.1361,0.0,0.0,0.0,0.0,0.0,0.0,0.0,0.0,0.0,0.0,0.0,0.0,0.0,0.0,0.0,0.0,0.0,0.0,0.0,0.0,0.0,0.0,3.3796,3.3528,3.3005,3.3854,3.4332,3.4307,3.6138,3.7158,3.739,3.6682,3.6004,3.5337,3.487,3.4391,3.3974,3.4532,3.5001,3.5413,0.0,0.0,0.0,0.0,0.0,0.0,0.0,0.0,0.0,0.0,3.9513,4.0481,4.0481,0.0,0.0,0.0,0.0,0.0,4.3726,4.5327,4.6981,4.7301,4.8537,4.9622,4.9448,4.9556,4.9262,4.7722,4.7172,4.6735,4.5929,4.5801,4.6527,4.865,4.8592,4.8734,5.0046,5.0833,5.1461,5.1943,5.2344,5.2756,5.3275,5.3416,5.3582,5.3761,5.3785,5.3785,5.3785,5.3785,5.3596,5.3181,5.2574,5.2001,5.1464,5.1643,5.1272,5.0377,5.0866,5.1119,5.1174,5.1627,5.1982,5.2212,0.0,5.2212,5.2212,5.2212,5.2212,5.2212,5.2212,5.2212,5.2212,5.2212,5.2212,5.2258,0.0,0.0,0.0,0.0,0.0,0.0,0.0,0.0,0.0,0.0,0.0,0.0,0.0,0.0,0.0,0.0,0.0,0.0,0.0,0.0,3.3589,3.4161,3.4189,3.4032,3.3647,3.4742,3.5515,3.5919,3.7792,3.874,3.8727,3.7557,3.6645,3.5891,3.5225,3.4848,3.4757,3.5225,3.578,3.6382,0.0,0.0,0.0,0.0,0.0,0.0,0.0,0.0,0.0,0.0,0.0,0.0,0.0,0.0,0.0,4.2615,4.3048,4.3589,4.4394,4.5287,4.6523,4.8763,5.0313,5.1592,5.2675,5.2714,5.21,5.0486,4.9577,4.857,4.6961,4.6958,4.7976,5.0366,4.9782,4.9669,5.1412,5.1375,5.1496,5.2344,5.278,5.3252,5.375,5.3785,5.3785,5.3785,5.3942,5.4052,5.4165,5.4097,5.3804,5.327,5.2604,5.2092,5.1831,5.1634,5.1018,5.0028,5.0894,5.1451,5.1696,5.2169,5.2533,5.2901,5.2901,5.2901,5.2901,5.2901,5.2901,5.2901,5.2901,5.2901,5.2901,5.2901,5.2969,5.3084,0.0,0.0,0.0,0.0,0.0,0.0,0.0,0.0,0.0,0.0,0.0,0.0,0.0,0.0,0.0,0.0,0.0,0.0,0.0,0.0,3.3589,3.4161,3.4189,3.4649,3.5589,3.5635,3.6256,3.7446,3.7985,3.8644,3.9431,3.9696,3.8884,3.7175,3.7099,0.0,0.0,0.0,0.0,3.6458,3.6986,0.0,0.0,0.0,0.0,0.0,0.0,0.0,0.0,0.0,0.0,0.0,0.0,0.0,4.2934,4.2942,4.3517,4.4206,4.4509,4.6602,4.8829,4.9194,4.7468,4.7076,5.2337,5.1341,5.0148,5.3047,5.1929,5.0499,5.065,4.957,4.8616,4.8527,5.007,5.167,5.2814,5.3306,5.3595,5.3667,5.3678,5.3726,5.3822,5.3785,5.3785,5.3785,5.4279,5.4734,5.5175,5.4909,5.4864,5.5212,5.3654,5.2809,5.2792,5.2058,5.1635,5.1532,5.2349,5.2571,5.228,5.2656,5.2855,5.2901,5.2901,5.2901,5.2901,5.2901,5.2901,5.2901,5.2901,5.2901,5.2901,5.2901,5.3199,5.3635,0.0,0.0,0.0,0.0,0.0,0.0,0.0,0.0,0.0,0.0,0.0,0.0,0.0,0.0,0.0,0.0,0.0,0.0,0.0,0.0,3.3589,3.4161,3.459,3.519,3.5975,3.7105,3.7972,3.8519,3.973,4.082,4.1751,3.9867,3.8752,3.8245,0.0,0.0,0.0,0.0,0.0,3.8298,3.8047,3.7805,0.0,0.0,0.0,0.0,0.0,0.0,0.0,0.0,4.0271,4.1308,4.1163,4.2266,4.3544,4.3108,4.3676,4.4486,4.4731,4.7103,4.9559,4.9856,4.9251,4.9858,5.4767,5.5481,5.4993,5.4686,5.4015,5.2512,4.9453,5.0289,5.1114,4.9985,5.1562,5.3077,5.3485,5.3702,5.3785,5.3785,5.3785,5.3942,5.4279,5.4303,5.4561,5.5166,5.5422,5.5505,5.5366,5.5251,5.4765,5.3865,5.3455,5.3181,5.2958,5.2941,5.31,5.3356,5.2822,5.2605,5.278,5.3182,5.3566,5.3842,5.3842,5.3842,5.3842,5.3842,5.3842,5.3842,5.3842,5.3842,5.3882,5.4165,5.4424,5.4587,0.0,0.0,0.0,0.0,0.0,0.0,0.0,0.0,0.0,0.0,0.0,0.0,0.0,0.0,0.0,0.0,0.0,0.0,3.3308,3.3308,3.3589,3.4161,3.4833,3.5555,3.6351,3.8207,3.9326,3.9602,4.1153,4.2213,4.2735,4.0182,3.9147,0.0,0.0,0.0,0.0,0.0,0.0,0.0,3.8692,3.8439,0.0,0.0,0.0,0.0,0.0,0.0,0.0,0.0,4.0815,4.2063,4.1773,4.276,4.395,4.3603,4.4882,4.6437,4.657,4.8196,5.0135,5.1417,5.1156,5.1868,5.6904,5.7837,5.7495,5.7102,5.626,5.4115,4.9382,5.1068,5.2657,5.1212,5.2572,5.387,5.4039,5.4025,5.4135,5.4303,5.4441,5.4661,5.5062,5.52,5.5561,5.6232,5.6196,5.6038,5.5844,5.5482,5.4831,5.3799,5.3783,5.3664,5.3442,5.3749,5.4094,5.4393,5.3444,5.3123,5.3442,5.3789,5.4094,5.4416,5.4416,5.4416,5.4416,5.4416,5.4416,5.4416,5.4579,5.462,5.4701,5.5108,5.5311,5.5311,0.0,0.0,0.0,0.0,0.0,0.0,0.0,0.0,0.0,0.0,0.0,0.0,0.0,0.0,0.0,0.0,0.0,0.0,3.3308,3.3308,3.3589,3.4161,3.4833,3.5752,3.697,3.8825,4.0119,4.0716,4.1974,4.2344,4.187,4.0849,0.0,0.0,0.0,0.0,0.0,0.0,0.0,0.0,3.8794,3.911,4.0445,0.0,0.0,0.0,0.0,0.0,0.0,0.0,4.1541,4.2208,4.2789,4.3456,4.4081,4.4469,4.7279,5.0248,5.0248,5.0105,5.0726,5.401,5.2573,5.2,5.8162,5.7203,5.6248,6.0498,5.87,5.52,5.1428,5.2154,5.2926,5.1715,5.2812,5.4015,5.4544,5.4616,5.4808,5.5337,5.5834,5.6103,5.6127,5.6448,5.6715,5.6701,5.6396,5.6375,5.6765,5.5729,5.527,5.5691,5.4841,5.4416,5.4416,5.4416,5.4416,5.4416,5.4416,5.4416,5.4416,5.4416,5.4416,5.4416,5.4416,5.4416,5.4416,5.4416,5.4416,5.4457,5.4905,5.5108,5.5149,5.557,5.5691,5.5691,0.0,0.0,0.0,0.0,0.0,0.0,0.0,0.0,0.0,0.0,0.0,0.0,0.0,0.0,0.0,0.0,0.0,0.0,3.3308,3.3308,3.3589,3.4161,3.4833,3.5358,3.5723,3.8002,4.0119,4.2058,4.2128,4.2184,4.213,0.0,0.0,0.0,0.0,0.0,0.0,0.0,0.0,0.0,3.9478,3.967,4.0494,0.0,0.0,0.0,0.0,0.0,0.0,0.0,0.0,0.0,4.2934,4.3639,4.4434,4.454,4.5699,4.6891,4.6703,4.9792,5.2613,5.0599,5.2972,5.5928,5.6566,5.7679,5.8828,5.9744,5.7015,5.3802,5.1668,5.255,5.3291,5.2248,5.3365,5.4568,5.5097,5.5169,5.5333,5.581,5.6026,5.6364,5.7025,5.7204,5.7274,5.7331,5.7227,5.6851,5.6056,5.5741,5.5287,5.48,5.4538,5.4416,5.4416,5.4416,5.4416,5.4416,5.4416,5.4416,5.4416,5.4416,5.4416,5.4416,5.4416,5.4416,5.4416,5.4742,5.5067,5.5328,5.5449,5.553,5.557,5.6037,5.6181,5.6181,0.0,0.0,0.0,0.0,0.0,0.0,0.0,0.0,3.561,3.5677,3.4888,3.4225,0.0,0.0,0.0,3.3308,3.3308,0.0,3.3308,3.3308,3.3589,3.4161,3.4833,3.5667,3.6652,3.86,4.0231,4.1496,4.1486,4.1504,4.1546,0.0,0.0,0.0,0.0,0.0,0.0,0.0,0.0,0.0,4.0337,4.0684,4.1715,0.0,0.0,0.0,0.0,0.0,0.0,0.0,0.0,0.0,4.3747,4.4117,4.487,4.6257,4.6785,4.7457,4.9879,5.1789,5.3168,5.3541,5.5172,5.6831,5.7503,5.8602,5.9248,5.8507,5.6493,5.4353,5.2718,5.3654,5.4363,5.3381,5.4159,5.5174,5.5859,5.597,5.6222,5.6891,5.7148,5.7387,5.7784,5.8119,5.8243,5.8134,5.7646,5.7052,5.6254,5.557,5.4922,5.4416,5.4416,5.4416,5.4416,5.4416,5.4416,5.4416,5.4416,5.4416,5.4416,5.4416,5.4416,5.4416,5.4416,5.4416,5.4416,5.4701,5.5067,5.5473,5.5651,5.5812,5.6037,5.6462,5.6622,5.6622,0.0,0.0,0.0,0.0,0.0,0.0,0.0,3.5868,3.5787,3.5902,3.4906,3.4223,0.0,0.0,0.0,3.3308,3.3308,3.3308,3.3308,3.3308,3.3617,3.4245,3.503,3.6539,3.8846,4.0034,4.0294,3.9641,4.0294,4.0555,0.0,0.0,0.0,0.0,0.0,0.0,0.0,0.0,0.0,0.0,0.0,4.171,4.3394,4.2984,0.0,0.0,0.0,0.0,0.0,0.0,0.0,0.0,4.4901,4.4775,4.5251,4.8473,4.9171,5.024,5.6119,5.4646,5.3,5.9488,5.786,5.5667,5.9647,5.9388,5.8037,5.7149,5.6849,5.6178,5.4292,5.5053,5.5695,5.5007,5.5222,5.5844,5.6804,5.6955,5.7306,5.8237,5.8653,5.8731,5.8443,5.8965,5.9134,5.8745,5.7567,5.6853,5.6774,5.5247,5.4416,5.4416,5.4416,5.4416,5.4416,5.4416,5.4416,5.4416,5.4416,5.4416,5.4416,5.4416,5.4416,5.4416,5.4457,5.4498,5.4538,5.4579,5.4864,5.5311,5.5674,5.6077,5.6526,5.6861,5.6981,5.6981,0.0,0.0,0.0,0.0,0.0,0.0,3.6687,3.5988,3.5697,3.6681,3.523,3.4393,3.5056,3.4044,0.0,3.3308,3.3308,3.3308,3.3308,3.3308,3.3785,3.4936,3.6492,3.7813,3.8874,3.9613,3.9423,3.8299,3.9423,4.018,0.0,0.0,0.0,0.0,0.0,0.0,0.0,0.0,0.0,0.0,0.0,4.0549,4.2121,4.2353,4.2366,0.0,0.0,0.0,0.0,0.0,0.0,0.0,4.4756,4.4775,4.4835,4.6068,4.7101,4.8105,4.931,5.179,5.4124,5.4321,5.5106,5.6197,5.7536,5.7238,5.6867,5.7462,5.6914,5.6042,5.5134,5.528,5.5832,5.6738,5.6677,5.6868,5.7844,5.7996,5.8177,5.8731,5.856,5.8638,5.9198,5.8472,5.7843,5.7449,5.6534,5.5691,5.5004,5.462,5.4416,5.4416,5.4416,5.4416,5.4416,5.4416,5.4416,5.4416,5.4416,5.4416,5.4416,5.4416,5.4416,5.4416,5.4783,5.5149,5.5449,5.5819,5.6221,5.6622,5.6702,5.6782,5.6861,5.6981,5.6981,5.6981,0.0,0.0,0.0,0.0,0.0,0.0,0.0,0.0,3.6055,3.6009,3.4992,3.4425,3.4785,3.3921,0.0,0.0,3.3308,3.3308,3.3308,3.3589,3.4431,3.5986,3.756,3.8685,3.9303,3.9641,3.9331,3.8376,3.8741,0.0,0.0,0.0,0.0,0.0,0.0,0.0,0.0,0.0,0.0,0.0,0.0,0.0,0.0,4.2146,4.2038,4.2034,4.3017,0.0,0.0,0.0,0.0,0.0,0.0,0.0,4.5389,4.7184,4.6817,4.6717,5.0828,5.2032,5.2438,5.381,5.5373,5.6644,5.6949,5.6957,5.7009,5.7246,5.6507,5.579,5.5696,5.5897,5.6372,5.7323,5.7516,5.7785,5.8472,5.8599,5.8731,5.9134,5.8457,5.8065,5.8276,5.7306,5.6534,5.6094,5.5426,5.4963,5.4678,5.4334,5.4211,5.4375,5.4416,5.4416,5.4416,5.4416,5.4416,5.4416,5.4416,5.4416,5.4416,5.462,5.4864,5.5044,5.527,5.549,5.5732,5.5956,5.6342,5.6702,5.6702,5.6821,5.6981,5.6981,5.6981,5.6981,0.0,0.0,0.0,0.0,0.0,0.0,0.0,0.0,0.0,3.5046,3.4569,3.4327,3.4315,3.3709,3.3308,0.0,0.0,0.0,3.3308,3.3982,3.5105,3.6773,3.8151,3.9163,3.9781,3.9809,3.95,3.8902,3.8347,0.0,0.0,0.0,0.0,0.0,0.0,0.0,0.0,0.0,0.0,0.0,0.0,0.0,0.0,0.0,0.0,4.2024,4.2688,4.3451,4.4211,4.4727,0.0,0.0,0.0,0.0,4.6068,4.8546,4.7119,4.6221,5.332,5.2484,5.0669,5.5231,5.6668,5.7005,5.7141,5.747,5.763,5.7163,5.6381,5.594,5.635,5.6702,5.7145,5.7752,5.8186,5.8482,5.8745,5.8784,5.8862,5.9056,5.808,5.729,5.7012,5.6134,5.5449,5.5166,5.4655,5.4533,5.4882,5.4252,5.407,5.4375,5.4416,5.4416,5.4416,5.4416,5.4416,5.4416,5.4498,5.462,5.4742,5.5149,5.5432,5.5611,5.5651,5.5732,5.5836,5.5893,5.6157,5.6502,5.6502,5.6702,5.6981,5.6981,5.6981,5.6981,0.0,0.0,0.0,0.0,0.0,0.0,0.0,0.0,0.0,0.0,3.4392,3.3969,3.464,3.3857,3.3308,3.3308,3.3308,3.3308,3.3308,0.0,0.0,3.6202,3.7926,3.9163,3.9781,3.9809,3.95,3.8902,3.8797,0.0,0.0,0.0,0.0,0.0,0.0,0.0,0.0,0.0,0.0,0.0,0.0,0.0,0.0,0.0,0.0,0.0,0.0,0.0,4.4785,4.485,4.5366,0.0,0.0,0.0,4.5863,4.6068,4.6686,4.7394,4.7478,4.945,5.238,5.5992,5.6973,5.7141,5.7598,5.7701,5.7786,5.8126,5.7806,5.7548,5.777,5.7677,5.7888,5.9034,5.8993,5.8706,5.833,5.829,5.8055,5.7409,5.6829,5.659,5.6973,5.5893,5.5311,5.557,5.4841,5.4393,5.4498,5.4375,5.4334,5.4416,5.4416,5.4416,5.4416,5.4416,5.4416,5.4416,5.4824,5.5392,5.6165,5.6181,5.5859,5.5189,5.553,5.5916,5.6342,5.6702,5.6861,5.6901,5.6901,5.6941,5.6981,5.6981,5.6981,5.6981,0.0,0.0,0.0,0.0,0.0,0.0,0.0,0.0,0.0,0.0,0.0,3.3814,3.442,3.3779,3.3308,3.3308,3.3308,3.3448,3.3768,3.4664,3.5611,3.6548,3.8086,3.9022,3.9275,3.9407,3.9096,3.8347,0.0,0.0,0.0,4.0885,4.2181,0.0,0.0,0.0,0.0,0.0,0.0,0.0,0.0,0.0,0.0,0.0,0.0,0.0,0.0,0.0,0.0,0.0,4.5104,4.5424,4.5801,0.0,0.0,0.0,4.5514,4.5845,4.7516,5.0705,5.4126,5.6429,5.7596,5.8182,5.8185,5.8782,5.9354,5.9186,5.9299,5.9258,5.8671,5.8441,5.8614,5.9392,5.9328,5.9173,5.8979,5.8486,5.8055,5.7701,5.643,5.5627,5.5869,5.4719,5.4066,5.423,5.3902,5.3801,5.407,5.407,5.4171,5.4375,5.4416,5.4416,5.4416,5.4416,5.4538,5.4783,5.523,5.5634,5.5997,5.5997,5.6077,5.6157,5.6358,5.6542,5.6742,5.6941,5.6981,5.6981,5.6981,5.6981,5.6981,5.6981,5.6981,5.6981,0.0,0.0,0.0,0.0,0.0,0.0,0.0,0.0,0.0,0.0,0.0,3.3861,3.4179,0.0,0.0,0.0,3.3308,3.3505,3.3936,3.459,3.5424,3.6492,3.7729,3.8488,3.8629,3.8771,3.8565,3.7986,0.0,0.0,4.0147,4.1099,4.2444,0.0,4.3428,0.0,0.0,0.0,0.0,0.0,0.0,4.4658,0.0,0.0,0.0,0.0,0.0,0.0,0.0,0.0,0.0,0.0,0.0,0.0,0.0,0.0,0.0,4.3751,4.7645,5.0597,5.3173,5.5692,5.7296,5.8379,5.8813,5.9902,6.0734,6.0198,6.049,6.05,5.9452,5.9164,5.9192,5.9431,5.9483,5.9405,5.9212,5.8408,5.7819,5.7582,5.5949,5.4841,5.4841,5.3984,5.3408,5.3408,5.3408,5.3596,5.3947,5.3947,5.4111,5.4375,5.4416,5.4416,5.4416,5.4416,5.4701,5.527,5.557,5.5812,5.6013,5.6013,5.6398,5.6981,5.6901,5.6901,5.6981,5.6981,5.6981,5.6981,5.6981,5.6981,5.6981,5.6981,5.6981,5.6981,0.0,0.0,0.0,0.0,0.0,0.0,0.0,0.0,0.0,0.0,0.0,3.4179,3.4189,3.4161,3.3908,3.3364,3.3308,3.3308,3.3336,3.3908,3.4544,3.5245,3.6436,0.0,3.7934,3.7962,3.8034,0.0,0.0,0.0,4.0937,4.1645,4.295,4.4759,4.4777,4.3622,4.1602,0.0,0.0,0.0,0.0,4.6565,0.0,0.0,0.0,0.0,0.0,0.0,0.0,0.0,0.0,0.0,0.0,0.0,0.0,0.0,0.0,0.0,4.5579,4.639,4.7527,5.3072,5.5231,5.6658,5.9342,6.0646,6.1347,6.1247,6.1196,6.1,6.0347,5.9933,5.964,5.9506,5.9483,5.9212,5.8369,5.7567,5.6774,5.5933,5.5004,5.4457,5.4457,5.4375,5.4334,5.4334,5.4334,5.4334,5.4375,5.4375,5.4375,5.4416,5.4416,5.4416,5.4416,5.4416,5.48,5.5651,5.5691,5.6157,5.6941,5.6941,5.6941,5.6981,5.6606,5.6622,5.6981,5.6981,5.6981,5.6981,5.6981,5.6981,5.6981,5.6981,5.6981,5.6981,0.0,0.0,0.0,0.0,0.0,0.0,0.0,0.0,0.0,0.0,0.0,0.0,0.0,0.0,0.0,0.0,3.3308,3.3308,3.3308,3.4281,3.4946,3.5189,3.7158,3.7926,3.7335,3.8362,0.0,0.0,0.0,3.8712,4.0622,4.129,4.2336,4.3602,4.377,4.3567,4.2957,4.1953,0.0,0.0,0.0,0.0,0.0,0.0,0.0,0.0,0.0,0.0,0.0,0.0,0.0,0.0,0.0,0.0,0.0,0.0,4.2133,4.2284,4.4314,4.5678,4.7258,5.0272,5.382,5.6788,5.7495,6.0065,6.2177,6.1827,6.1722,6.1416,6.0487,5.9918,5.9578,5.9533,5.9483,5.9367,5.9095,5.8315,5.7464,5.6614,5.5772,5.5004,5.4457,5.4416,5.4416,5.4416,5.4416,5.4416,5.4416,5.4416,5.4416,5.4416,5.4416,5.4538,5.4864,5.5108,5.5553,5.6141,5.6398,5.6702,5.6981,5.6981,5.6981,5.6981,5.6861,5.6861,5.6957,5.662,5.6476,5.6428,5.6131,5.5987,5.5987,5.5987,5.5987,5.5987,0.0,0.0,0.0,0.0,0.0,0.0,0.0,0.0,0.0,0.0,0.0,0.0,0.0,0.0,0.0,0.0,3.3814,3.3944,3.3944,3.4739,3.5273,3.5498,3.7271,3.7994,3.7433,3.845,0.0,0.0,0.0,0.0,0.0,0.0,4.2031,4.3182,4.2984,0.0,0.0,0.0,0.0,4.4024,0.0,0.0,5.2225,0.0,0.0,0.0,0.0,0.0,0.0,0.0,0.0,0.0,0.0,0.0,0.0,0.0,0.0,0.0,4.2668,4.3925,4.5696,4.8184,5.1566,5.4745,5.6763,5.9398,6.1592,6.2169,6.1752,6.1171,6.0699,5.9751,5.9173,5.9444,5.9483,5.9483,5.9483,5.8511,5.7582,5.7052,5.5973,5.5044,5.4457,5.4416,5.4416,5.4416,5.4416,0.0,5.4416,5.4416,5.4416,5.4416,5.4416,5.462,5.5108,5.5392,5.5795,5.6405,5.6662,5.6861,5.6981,5.6981,5.6981,5.6981,5.6981,5.6981,5.6957,5.6596,5.6452,5.6428,5.6083,5.5842,5.5674,5.5674,5.5554,5.5385,0.0,0.0,0.0,0.0,0.0,0.0,0.0,0.0,0.0,0.0,0.0,0.0,0.0,0.0,0.0,0.0,3.4861,3.5217,3.5217,3.5217,3.5498,3.6117,3.6736,3.7462,3.83,0.0,0.0,0.0,0.0,0.0,0.0,0.0,4.2237,0.0,4.2581,4.259,4.3515,0.0,4.4167,4.4881,0.0,5.2986,5.0334,0.0,0.0,0.0,5.593,5.6102,0.0,0.0,0.0,0.0,0.0,0.0,0.0,0.0,0.0,0.0,0.0,0.0,0.0,4.6799,4.8319,5.0471,5.7074,5.8587,5.9332,6.2054,6.1107,6.0067,6.0981,5.9528,5.8486,5.9328,5.9483,5.9483,5.9483,5.808,5.7012,5.7012,5.549,5.4416,5.4416,5.4416,5.4416,5.4416,5.4416,5.4416,5.4416,5.4416,5.4416,5.4416,5.4416,5.462,5.5108,5.5108,5.5577,5.6405,5.6405,5.6622,5.6981,5.6981,5.6981,5.6981,5.6981,5.6981,5.6981,5.6957,5.6997,5.6957,5.6933,5.662,5.614,5.614,5.5803,5.5385,0.0,0.0,0.0,0.0,0.0,3.8572,3.8404,3.7954,0.0,0.0,0.0,0.0,0.0,0.0,0.0,0.0,3.5986,3.5864,3.5864,3.5864,3.6202,3.6929,3.8003,3.8782,0.0,0.0,0.0,0.0,0.0,0.0,0.0,0.0,0.0,0.0,4.3069,4.3194,4.3036,4.2739,0.0,0.0,5.0391,5.3367,0.0,0.0,0.0,0.0,0.0,5.9823,0.0,0.0,5.6151,5.0093,0.0,0.0,0.0,0.0,0.0,0.0,3.9925,0.0,0.0,0.0,0.0,0.0,5.0488,5.3437,5.6122,5.7467,5.7629,5.797,5.943,5.8862,5.829,5.8525,5.9095,5.9483,5.9483,5.855,5.7622,5.7092,5.6013,5.5085,5.4457,5.4416,5.4416,0.0,5.4416,5.4416,5.4416,5.4416,5.4416,5.4416,5.4416,5.462,5.5108,5.5392,5.5836,5.6405,5.6702,5.6901,5.6981,5.6981,5.6981,5.6981,5.6662,5.6742,5.6957,5.6572,5.6404,5.638,5.6011,5.553,5.5049,5.5049,5.4952,5.4832,0.0,0.0,3.9641,3.9641,3.9866,4.0034,4.0034,3.9479,0.0,0.0,0.0,0.0,0.0,0.0,0.0,0.0,3.7307,3.7271,3.7271,3.6998,3.7197,3.7935,3.875,3.9451,3.9902,0.0,0.0,0.0,0.0,0.0,0.0,0.0,0.0,0.0,0.0,0.0,0.0,0.0,0.0,0.0,5.1878,0.0,0.0,6.0681,6.2757,0.0,0.0,0.0,5.9853,6.3917,5.8946,0.0,0.0,0.0,0.0,0.0,0.0,0.0,0.0,0.0,0.0,0.0,0.0,0.0,4.9924,5.2386,5.4613,5.7309,5.7433,5.7394,5.8359,5.7812,5.7266,5.7622,5.8119,5.8472,5.8472,5.7701,5.6988,5.6534,5.5691,5.4963,5.4457,5.4416,5.4416,5.4416,5.4416,5.4416,5.4416,5.4416,5.4416,5.4416,5.4579,5.4905,5.5351,5.5795,5.6197,5.6622,5.6901,5.6981,5.6981,5.6981,5.6901,5.6742,5.6526,5.6422,5.6414,5.6105,5.6128,5.6223,5.5707,5.5317,5.4995,5.4801,5.4812,5.4775,0.0,0.0,4.0912,4.0912,4.134,4.1683,4.1727,4.1228,4.0891,0.0,0.0,0.0,0.0,0.0,0.0,0.0,0.0,3.9015,3.9015,3.8376,3.8339,3.9048,3.9239,3.9747,4.067,4.065,0.0,0.0,0.0,0.0,0.0,0.0,0.0,0.0,4.2513,4.3228,4.4081,4.3976,0.0,4.6005,5.4323,5.5898,0.0,0.0,6.2867,0.0,6.3123,6.3183,6.2527,6.7285,6.3005,0.0,0.0,0.0,0.0,0.0,4.1816,0.0,0.0,0.0,0.0,0.0,0.0,0.0,0.0,5.2653,5.3413,5.8098,5.7792,5.673,5.6971,5.5978,5.5391,5.6101,5.6459,5.6708,5.6988,5.6254,5.5691,5.5691,5.4922,5.4416,5.4416,5.4416,5.4416,5.4416,5.4416,5.4416,5.4416,5.4416,5.4416,5.4416,5.4864,5.527,5.5611,5.6141,5.6582,5.6941,5.6981,5.6981,5.6981,5.6941,5.6742,5.6405,5.6325,5.6037,5.5691,5.5611,5.5876,5.6261,5.5876,5.5626,5.5455,5.4836,5.4807,5.468,0.0,4.1699,4.2227,4.2227,4.2161,4.2178,4.2379,4.2111,0.0,0.0,0.0,0.0,0.0,0.0,0.0,0.0,0.0,0.0,3.9613,3.905,3.9158,4.015,4.022,4.0711,4.1765,4.1571,4.1188,0.0,0.0,0.0,0.0,0.0,0.0,0.0,0.0,4.3398,4.3532,0.0,0.0,4.9526,4.99,0.0,5.748,6.0024,6.3704,6.7418,6.6344,6.5716,6.5192,0.0,6.2402,6.0174,0.0,0.0,0.0,0.0,0.0,0.0,0.0,0.0,0.0,0.0,0.0,0.0,0.0,4.6125,4.7283,4.8461,4.9151,5.0059,5.185,5.1928,5.1642,5.132,5.3016,5.4972,5.6732,5.6254,5.5691,5.5691,5.4922,5.4416,5.4416,5.4416,5.4416,5.4416,5.4416,5.4416,5.4416,5.4416,5.4416,5.4416,5.4864,5.5149,5.523,5.598,5.6446,5.6526,5.6861,5.6981,5.6981,5.6662,5.6486,5.6365,5.5658,5.5473,5.5651,5.4922,5.5149,5.5836,5.5732,5.5426,5.4836,5.3325,5.279,5.2538,4.198,4.2598,4.3071,4.3071,4.3209,4.336,4.3475,4.3131,0.0,0.0,0.0,0.0,0.0,0.0,0.0,0.0,0.0,0.0,0.0,4.0224,4.0194,4.0715,4.0707,4.1221,4.236,4.1938,4.166,4.1585,0.0,0.0,0.0,0.0,0.0,0.0,0.0,0.0,0.0,0.0,4.6356,4.8634,5.2145,0.0,6.1854,6.3763,6.6584,6.9174,6.671,6.6402,6.6868,6.4629,6.1969,0.0,0.0,5.4677,5.1254,0.0,4.6892,4.8201,0.0,0.0,0.0,4.2939,0.0,0.0,0.0,0.0,4.6759,4.8355,4.8713,4.9029,4.9959,4.9696,4.9288,4.9213,5.0867,5.2268,5.2664,5.4043,5.5044,5.5044,5.4661,5.4416,5.4416,5.4416,5.4416,5.4416,5.4416,5.4416,5.4416,5.4416,5.4416,5.4416,5.5067,5.5392,5.5392,5.6261,5.6582,5.6405,5.6582,5.6582,5.6358,5.6117,5.5916,5.5738,5.527,5.5067,5.5004,5.4579,5.4148,5.3733,5.3733,5.3656,5.3365,5.1349,5.0871,5.0871,4.2649,4.3245,4.3666,4.3666,4.4041,4.4326,4.4401,4.3929,0.0,0.0,0.0,0.0,0.0,0.0,0.0,0.0,0.0,0.0,0.0,0.0,4.2356,4.2335,4.1558,4.1883,4.3596,4.2416,4.195,4.2352,0.0,0.0,0.0,0.0,0.0,0.0,0.0,0.0,0.0,0.0,0.0,4.8426,0.0,6.0169,6.2749,6.5603,6.7122,6.7597,6.5989,6.6212,6.7016,6.582,0.0,5.7892,6.0252,5.7012,0.0,0.0,0.0,0.0,0.0,0.0,0.0,0.0,0.0,4.422,0.0,0.0,0.0,0.0,0.0,0.0,4.842,4.747,4.6786,4.7051,4.8422,0.0,0.0,5.0627,0.0,5.3245,5.3934,5.4255,5.3865,5.375,5.3888,5.437,5.3957,5.3888,5.4393,5.4416,5.4416,5.4416,5.5247,5.5691,5.5691,5.6558,5.6782,5.6405,5.6405,5.6141,5.5691,5.5611,5.5409,5.5108,5.4986,5.4742,5.4375,5.4025,5.2992,5.1723,5.1723,5.1701,5.1407,4.9233,4.8892,4.9064,4.3273,4.3891,4.4312,4.4312,4.4158,4.4115,4.4378,4.413,0.0,0.0,0.0,0.0,0.0,0.0,0.0,0.0,0.0,0.0,4.8152,0.0,0.0,4.7214,4.3932,4.3636,4.6875,4.3681,4.171,4.1199,4.1135,0.0,0.0,0.0,0.0,0.0,4.7806,0.0,0.0,0.0,5.1294,0.0,5.5992,5.5109,0.0,5.6429,5.9727,6.3024,6.5415,6.5463,6.4285,0.0,6.2328,6.0677,0.0,5.7387,0.0,0.0,0.0,0.0,0.0,0.0,0.0,0.0,4.4518,0.0,0.0,0.0,0.0,0.0,0.0,0.0,0.0,0.0,0.0,0.0,0.0,0.0,4.323,4.6093,4.8548,4.902,5.2235,5.3704,5.1897,5.1301,5.1982,5.4232,5.2287,5.2028,5.4278,5.4416,5.4416,5.4416,5.5247,5.5691,5.5691,5.6558,5.6782,5.6405,5.6405,5.6141,5.5691,5.5351,5.5149,5.5067,5.4661,5.4457,5.4293,5.2661,5.189,5.1723,5.1723,5.0737,4.9148,4.7215,4.6583,4.6405,0.0,4.4228,0.0,4.4401,4.4303,4.4256,4.4401,4.428,0.0,0.0,0.0,0.0,0.0,0.0,0.0,0.0,0.0,5.1856,0.0,0.0,0.0,0.0,4.4064,4.3906,4.5203,4.3233,4.2209,4.2345,4.2062,4.2411,0.0,0.0,0.0,0.0,4.8543,0.0,5.0271,0.0,5.1952,0.0,0.0,0.0,0.0,5.8054,6.0941,6.1429,6.2716,6.32,6.3224,0.0,6.088,0.0,0.0,0.0,0.0,0.0,0.0,0.0,0.0,0.0,0.0,0.0,0.0,0.0,0.0,0.0,4.309,0.0,0.0,0.0,0.0,0.0,0.0,0.0,0.0,0.0,0.0,0.0,4.6954,0.0,0.0,0.0,5.0865,5.1316,5.2327,5.4278,5.2625,5.2372,5.4301,5.4416,5.4416,5.4416,5.5247,5.557,5.5351,5.6221,5.6301,5.5658,5.5658,5.5392,5.4946,5.4783,5.4701,5.4701,5.4498,5.382,5.2785,5.2015,5.0442,4.8527,4.8507,4.8034,4.7148,4.531,4.4643,4.4529,0.0,0.0,0.0,4.4401,4.4401,4.4458,4.4598,4.4654,0.0,0.0,0.0,0.0,4.7965,4.9608,0.0,0.0,0.0,5.5392,0.0,0.0,5.0959,0.0,4.5766,0.0,0.0,4.418,4.2829,4.2848,4.252,4.2693,4.3373,0.0,0.0,0.0,0.0,4.9687,5.2138,0.0,5.2685,5.1967,5.3994,5.3878,5.3121,5.9518,6.1415,6.0632,6.0632,6.1291,6.2107,6.1747,5.9147,0.0,6.1669,0.0,0.0,0.0,0.0,0.0,4.7683,0.0,0.0,0.0,0.0,0.0,0.0,0.0,0.0,0.0,0.0,0.0,0.0,0.0,0.0,0.0,0.0,0.0,0.0,0.0,0.0,0.0,0.0,0.0,0.0,5.0191,5.1224,5.3429,0.0,5.2097,5.4301,5.4416,5.4416,5.4416,5.5247,5.549,5.5108,5.594,5.594,5.5108,5.5108,5.4864,5.4416,5.4416,5.4416,5.4416,5.4416,5.3386,5.1682,5.1157,4.9083,4.6143,4.5642,4.5467,4.531,4.3952,4.3499,4.3499,0.0,4.4401,0.0,4.4401,4.4401,4.4598,4.5188,4.5272,0.0,0.0,0.0,0.0,0.0,0.0,0.0,0.0,0.0,6.6545,6.2534,0.0,5.7712,0.0,0.0,4.7793,0.0,4.7788,4.3347,4.1763,4.1741,4.1929,4.2328,4.1567,0.0,0.0,4.5971,4.749,4.8484,5.1808,5.4928,5.7604,5.7306,5.8252,5.9629,0.0,5.8237,6.0213,6.0213,0.0,0.0,5.7945,5.7475,0.0,0.0,0.0,0.0,0.0,0.0,0.0,0.0,0.0,0.0,4.5573,0.0,0.0,0.0,0.0,4.379,0.0,0.0,0.0,0.0,0.0,0.0,0.0,0.0,0.0,0.0,0.0,0.0,0.0,0.0,0.0,0.0,0.0,0.0,0.0,4.964,0.0,5.4209,5.4416,5.4416,5.4416,5.5247,5.549,5.5108,5.594,5.594,5.5108,5.5108,5.4864,5.4416,5.4416,5.4416,5.4416,5.4416,5.3386,5.1556,4.9807,4.7948,4.6017,4.4263,4.357,4.3589,4.3544,4.3499,4.3499,0.0,0.0,4.4401,4.4401,4.4401,4.4598,4.5216,4.5665,0.0,0.0,0.0,0.0,0.0,5.8481,6.0723,0.0,0.0,6.4685,6.3072,5.9625,0.0,0.0,0.0,4.8369,0.0,0.0,4.4026,4.2293,4.2693,4.2539,4.1841,4.2081,4.1823,0.0,0.0,4.7305,0.0,0.0,0.0,0.0,0.0,5.7035,5.8119,0.0,5.9698,6.0213,6.0507,6.0674,0.0,6.049,5.9346,5.81,5.8797,5.7482,5.5801,5.6315,5.6128,0.0,0.0,0.0,5.4975,4.8157,0.0,0.0,0.0,0.0,0.0,0.0,0.0,0.0,0.0,0.0,0.0,0.0,0.0,0.0,0.0,0.0,0.0,0.0,0.0,0.0,0.0,0.0,0.0,0.0,0.0,0.0,0.0,5.4416,5.4416,5.4416,5.5247,5.5368,5.4661,5.5513,5.5513,5.4661,5.4661,5.4538,5.4416,5.4416,5.4416,5.4416,5.4416,5.2702,4.9892,4.9254,4.7191,4.4333,4.3748,4.3499,4.3499,4.3499,4.3499,4.3499,4.471,4.4542,4.4401,4.4401,4.457,4.4935,4.5553,0.0,0.0,0.0,5.3403,0.0,5.8141,0.0,6.1194,0.0,6.4734,6.4978,6.3864,6.1832,0.0,6.038,5.4923,0.0,0.0,0.0,0.0,4.4892,4.4022,4.2725,4.1044,4.1168,4.0717,3.9954,0.0,4.5777,4.9582,5.3064,5.5545,0.0,0.0,5.6936,0.0,0.0,5.9757,5.9201,0.0,6.1174,6.1357,6.1779,6.058,5.9271,6.0871,5.8654,5.5863,5.8324,5.7654,5.6036,5.5337,5.6987,0.0,5.0798,5.1064,0.0,4.5858,0.0,0.0,0.0,0.0,0.0,0.0,0.0,0.0,0.0,0.0,0.0,0.0,0.0,0.0,0.0,0.0,0.0,0.0,0.0,0.0,0.0,0.0,0.0,0.0,0.0,5.4416,5.4416,5.5108,5.5125,5.4416,5.5125,5.5125,5.4416,5.4416,5.4416,5.4416,5.4416,5.459,5.4873,5.3888,5.1936,4.942,4.8417,4.6211,4.3499,4.3499,4.3499,4.3499,4.3499,4.3499,4.3544,4.5348,4.4926,4.4537,4.4532,4.4987,4.5605,0.0,0.0,5.0599,0.0,5.5537,5.7425,5.8801,6.1944,6.3945,6.3945,6.6979,0.0,6.5431,6.5112,0.0,0.0,6.1832,6.1164,6.4909,0.0,0.0,0.0,0.0,4.2445,3.9929,3.8921,3.8842,3.9518,3.9594,0.0,4.9074,5.0586,5.4393,5.9312,5.8375,5.7966,5.804,5.9015,5.833,5.7238,6.0327,6.168,6.1935,6.1349,6.0906,6.0629,6.0941,6.0228,5.966,6.1306,6.1597,6.0957,5.9206,5.8073,5.6644,5.3301,5.1765,0.0,0.0,0.0,4.9038,0.0,0.0,0.0,0.0,0.0,0.0,0.0,0.0,0.0,0.0,0.0,0.0,0.0,0.0,0.0,0.0,0.0,0.0,0.0,0.0,0.0,0.0,0.0,5.4278,5.4416,5.4864,5.4864,5.4416,5.4864,5.4864,5.4416,5.4416,5.4416,5.4439,5.4439,5.4984,5.5752,5.297,5.1228,5.0179,4.7411,4.5191,4.3554,4.3536,4.3518,4.3499,4.3499,4.3499,4.3589,4.5898,4.6375,4.6696,4.6434,4.6207,4.6397,0.0,0.0,0.0,0.0,6.0421,6.3628,6.657,6.8084,6.8866,6.8866,6.9688,0.0,0.0,0.0,0.0,6.9345,6.3835,6.2064,6.497,5.6818,0.0,4.9294,0.0,4.1285,3.9111,3.9224,3.8974,3.8471,3.924,4.2567,4.7635,4.9127,5.2886,5.7786,5.721,5.6384,5.576,0.0,5.7771,5.6127,5.9341,5.9842,5.9109,5.9251,5.9202,5.9056,5.8461,5.8343,5.8438,5.8897,5.9255,5.9391,5.889,5.8313,5.7133,5.4247,5.2717,5.1514,0.0,0.0,0.0,0.0,0.0,0.0,0.0,0.0,0.0,0.0,0.0,0.0,0.0,0.0,0.0,0.0,0.0,0.0,0.0,0.0,0.0,0.0,0.0,0.0,0.0,0.0,0.0,5.4347,5.4864,5.4864,5.4416,5.4864,5.4864,5.4416,5.4416,5.4623,5.5013,5.5013,5.5307,5.5766,5.3626,5.1766,5.0158,4.7987,4.6024,4.4343,4.405,4.3756,4.3499,4.3499,4.3499,4.3544,4.7281,4.8239,4.8895,4.8563,4.9323,0.0,5.0449,5.1761,0.0,5.9127,6.2194,0.0,6.7434,6.9263,7.0308,7.0308,7.057,0.0,6.9118,0.0,0.0,6.9466,6.7211,6.6392,6.7267,6.1487,0.0,5.1296,0.0,0.0,3.9152,3.9,3.8703,3.8383,3.9224,4.1941,4.6133,4.959,5.2926,5.5909,5.5956,5.5538,0.0,5.7219,5.6741,5.5209,5.7651,5.8403,5.8266,5.8255,5.7996,5.7622,5.7285,5.712,5.7229,5.8023,5.8501,5.8879,5.9238,5.8856,5.7953,5.6438,5.513,5.3822,5.2222,5.1974,5.198,0.0,0.0,0.0,0.0,0.0,0.0,0.0,0.0,0.0,0.0,0.0,0.0,0.0,0.0,0.0,0.0,0.0,0.0,0.0,0.0,0.0,0.0,0.0,0.0,5.3946,5.4303,5.4453,5.4416,5.4453,5.469,5.5066,5.4843,5.5118,5.5809,5.5601,5.5435,5.5167,5.2844,5.1019,4.9506,4.7173,4.564,4.4701,4.448,4.4196,4.4013,4.4013,4.3793,4.3499,4.9033,5.0211,5.0975,5.0537,5.3029,0.0,0.0,5.4695,0.0,6.0862,0.0,6.4648,6.5751,6.8421,7.0198,7.0198,0.0,7.0018,6.7783,7.0773,7.1382,6.8625,7.0659,7.1276,7.0118,6.7277,0.0,0.0,0.0,4.6142,3.9801,3.8695,3.8455,3.8908,3.9465,4.1625,4.5205,5.069,5.3441,5.4113,5.4799,5.5146,5.5353,5.6128,5.5643,5.4748,5.5964,5.7105,5.7986,5.7531,5.6838,5.6279,5.6557,5.6291,5.6132,5.7709,5.8367,5.8771,5.9462,5.9148,5.8601,5.853,5.7538,5.6191,5.4613,5.3934,5.3786,5.4284,5.2604,5.2286,0.0,0.0,0.0,0.0,0.0,0.0,0.0,0.0,0.0,0.0,0.0,0.0,0.0,0.0,0.0,0.0,0.0,0.0,0.0,0.0,0.0,5.3578,5.3704,5.398,5.4416,5.4003,5.4459,5.5793,5.5404,5.5578,5.621,5.579,5.5084,5.3996,5.127,4.9628,4.8689,4.5986,4.4847,4.4792,4.4792,4.4774,4.4719,4.4719,4.4233,4.3646,5.0242,0.0,0.0,0.0,0.0,5.809,6.0289,6.1731,6.3174,6.4781,6.8011,7.0285,7.0517,7.1469,7.2108,7.2108,7.2224,0.0,0.0,0.0,0.0,7.1818,7.0962,7.0266,6.9626,6.3636,5.8547,0.0,0.0,4.4226,4.0912,3.9826,3.9369,3.9489,4.0018,4.2651,4.682,4.9775,0.0,5.3901,5.4357,5.4962,5.563,5.5792,5.5705,5.5513,5.5745,5.5515,5.5096,5.5003,5.4899,5.4776,5.4847,5.5076,5.5376,5.5708,5.6725,5.7679,5.7345,5.7511,5.7613,5.7175,5.6563,5.6046,5.6191,5.6164,5.6256,5.6786,5.6491,5.5708,5.402,0.0,0.0,0.0,0.0,0.0,0.0,0.0,0.0,0.0,0.0,0.0,0.0,0.0,0.0,0.0,0.0,0.0,0.0,0.0,0.0,0.0,5.4273,0.0,0.0,0.0,5.4641,5.5321,5.5261,5.4878,5.4319,5.4233,5.3429,5.2082,4.999,4.896,4.8652,4.657,4.548,4.5187,4.5187,4.4985,4.4719,4.4719,4.4627,4.4416,0.0,0.0,0.0,0.0,0.0,0.0,0.0,6.6668,6.7939,6.7053,6.8567,6.9733,6.9733,7.144,7.228,7.1457,7.1385,7.0992,7.0127,6.9626,6.9374,6.9374,6.7991,0.0,6.6272,6.3464,5.8974,5.2894,0.0,4.6151,4.0889,3.9742,3.9406,3.9842,4.172,4.3876,4.6404,0.0,0.0,5.332,5.4393,5.5214,5.5816,5.5816,5.5816,5.5816,5.5816,5.5528,5.5128,5.46,5.4416,5.4462,5.4737,5.5174,5.5633,5.5908,5.6689,5.7424,5.7214,5.7286,5.7467,5.7171,5.6712,5.6391,5.662,5.6482,5.6436,5.6965,5.7099,5.6207,5.3406,5.0008,0.0,0.0,0.0,0.0,0.0,0.0,0.0,0.0,0.0,0.0,0.0,0.0,0.0,0.0,0.0,0.0,0.0,0.0,0.0,0.0,0.0,0.0,0.0,0.0,5.493,5.592,5.4953,5.4487,5.45,5.327,5.1774,5.0145,4.9203,4.8254,4.7205,4.6306,4.5773,4.5608,4.5608,4.548,4.5297,4.5297,4.5157,4.4833,0.0,5.5362,0.0,0.0,6.1298,6.3449,6.6017,6.9217,7.0742,6.8939,6.8528,6.8518,6.8852,7.0467,7.1174,7.0155,6.9719,6.8943,6.7522,6.6764,6.6441,6.6575,6.516,6.4068,6.3326,6.3423,5.9715,0.0,0.0,0.0,4.1793,4.0114,3.9918,4.1128,4.3796,4.569,0.0,0.0,5.2565,5.3505,5.4838,5.5545,5.5889,5.5889,5.5889,5.5889,5.5889,5.5889,5.5775,5.5013,5.4737,5.4806,5.5243,5.561,5.5958,5.6413,5.6965,5.747,5.7332,5.7513,5.7607,5.7516,5.7171,5.685,5.685,5.662,5.6505,5.6781,5.685,5.6,5.3245,5.1064,0.0,0.0,0.0,0.0,0.0,0.0,0.0,0.0,0.0,0.0,0.0,0.0,0.0,0.0,0.0,0.0,0.0,0.0,0.0,0.0,0.0,5.3222,5.3612,0.0,5.4995,5.5824,5.4467,5.38,5.3769,5.1937,5.0008,4.8208,4.8208,4.7298,4.5883,4.5883,4.5836,4.5742,4.5742,4.5648,4.5554,4.5554,4.5318,4.4897,0.0,0.0,0.0,0.0,0.0,6.4387,6.4696,6.7918,7.0586,7.1271,7.0549,7.0529,7.1989,6.9745,6.8538,6.9477,6.8235,6.7165,6.657,6.6427,6.6628,6.7082,6.5157,6.3842,6.3391,6.1147,5.8201,0.0,0.0,4.8165,4.5456,4.2383,4.2305,4.4784,4.6016,0.0,0.0,5.2372,5.3709,5.5587,5.5794,5.5843,5.5889,5.5889,5.5889,5.5889,5.5889,5.5889,5.5866,5.5775,5.5752,5.5752,5.5798,5.5843,5.5889,5.5935,5.6712,5.7378,5.6938,5.7424,5.8021,5.7584,5.7447,5.7444,5.7444,5.7699,5.7883,5.7493,5.7444,5.6387,5.2878,5.4641,5.5059,0.0,0.0,0.0,0.0,0.0,0.0,0.0,0.0,0.0,0.0,0.0,0.0,0.0,0.0,0.0,0.0,0.0,0.0,5.078,5.088,5.0888,5.0957,5.375,5.4546,5.3445,5.369,5.2236,4.9367,4.9157,4.8023,4.6166,4.6166,4.6072,4.5883,4.5883,4.5601,4.5176,4.5176,4.4892,4.4531,4.4531,4.4531,4.4465,0.0,0.0,0.0,0.0,0.0,0.0,0.0,6.7184,6.8298,6.8706,6.9066,6.9383,6.9626,6.7729,6.6466,6.6543,6.5765,6.45,6.2728,6.2132,6.1672,6.1331,6.0231,5.9729,5.9814,5.882,5.701,0.0,0.0,0.0,4.5133,4.4428,4.5195,4.7265,4.9364,5.1137,5.2704,5.4032,5.5298,5.6391,5.6391,5.6574,5.685,5.685,5.685,5.685,5.685,5.685,5.685,5.685,5.6436,5.5935,5.6276,5.6391,5.6436,5.6758,5.7148,5.7424,5.7217,5.7447,5.7722,5.7539,5.747,5.747,5.747,5.763,5.7722,5.7516,5.7217,5.6666,5.5564,5.4531,5.3865,0.0,0.0,0.0,0.0,0.0,0.0,0.0,0.0,0.0,0.0,0.0,0.0,0.0,0.0,0.0,0.0,0.0,0.0,4.9947,0.0,5.2602,5.2005,5.414,5.4442,5.3037,5.2129,5.0552,4.8418,4.7243,4.6439,4.5883,4.5883,4.5883,4.5883,4.5883,4.5601,4.5081,4.5081,4.4797,4.4388,4.4388,4.4198,4.3912,6.2532,0.0,6.1442,0.0,6.4365,6.3483,6.5945,6.6228,6.5997,6.5522,6.6052,6.6742,6.7429,6.5642,6.4376,6.4235,6.3281,6.182,5.9829,5.8856,5.8201,5.7846,5.746,0.0,5.7849,5.7633,5.6702,5.509,5.2612,0.0,4.7187,4.7362,4.8357,5.0033,5.231,5.3568,5.4142,5.5693,5.6597,5.6961,5.6961,5.7148,5.747,5.747,5.747,5.747,5.747,5.747,5.747,5.747,5.6987,5.6459,5.6804,5.6961,5.6987,5.7378,5.747,5.747,5.747,5.747,5.747,5.747,5.747,5.747,5.747,5.7584,5.7699,5.7699,5.7263,5.6987,5.7194,5.4898,5.3589,5.5495,0.0,0.0,0.0,0.0,0.0,0.0,0.0,0.0,0.0,0.0,0.0,0.0,0.0,0.0,0.0,0.0,0.0,0.0,0.0,0.0,5.2235,5.4347,5.4325,5.2153,5.1061,4.9405,4.7316,4.5927,4.5443,4.5718,4.5847,4.5883,4.5883,4.5883,4.5506,4.4892,4.4892,4.4513,4.3912,4.3912,4.3674,4.3387,6.2543,6.2714,6.3331,6.6109,6.5293,6.4482,6.5109,6.4884,6.4071,6.247,6.1602,6.2705,6.6659,6.3776,6.2035,6.3215,6.0993,5.9346,5.8879,5.7917,5.7846,0.0,0.0,5.84,5.8901,5.7963,5.7493,5.7467,0.0,0.0,5.326,5.16,5.174,5.3376,5.4459,5.5892,5.7467,5.7447,5.747,5.747,5.747,5.747,5.747,5.747,5.747,5.747,5.747,5.747,5.747,5.747,5.747,5.747,5.7513,5.747,5.747,5.747,5.747,5.747,5.747,5.747,5.747,5.747,5.747,5.747,5.747,5.7837,5.8181,5.8181,5.7814,5.7309,5.6781,5.6643,5.5977,5.4049,0.0,0.0,0.0,0.0,0.0,0.0,0.0,4.7561,5.1048,0.0,0.0,0.0,0.0,0.0,0.0,0.0,0.0,5.0521,5.0612,0.0,5.0734,5.4163,5.4001,5.0234,5.0842,4.9051,4.5343,4.5297,4.5297,4.5333,4.5718,4.5883,4.5883,4.5883,4.5318,4.4436,4.4436,4.3769,4.2813,4.2813,4.2813,4.2813,6.406,6.3661,6.364,6.4625,6.3735,6.2587,6.1862,6.1614,6.1118,5.9931,5.9385,5.9542,6.0813,5.9278,5.8582,0.0,5.9002,5.8216,0.0,5.7381,5.7299,5.7004,5.7135,5.7309,5.7482,5.7482,5.7501,5.747,0.0,0.0,5.4459,5.3082,5.3808,5.6214,5.6537,5.7001,5.747,5.747,5.747,5.747,5.747,5.747,5.747,5.747,5.747,5.747,5.747,5.747,5.747,5.747,5.747,5.747,5.747,5.747,5.747,5.747,5.747,5.747,5.747,5.747,5.747,5.747,5.747,5.747,5.747,5.7607,5.7699,5.7699,5.7584,5.7424,5.7306,5.6919,5.6368,5.538,5.5334,0.0,0.0,0.0,0.0,0.0,0.0,5.2763,0.0,5.1592,0.0,0.0,0.0,0.0,0.0,0.0,0.0,0.0,5.2076,0.0,5.1745,5.2596,5.1912,4.9648,4.8651,4.7147,4.5297,4.5297,4.5443,4.57,4.5828,4.5883,4.5883,4.5883,4.5336,4.4388,4.4388,4.3769,4.2813,4.2813,4.2813,4.2813,6.3164,6.2638,6.2448,6.2802,6.1762,6.0782,6.0472,5.978,5.9153,5.8535,5.796,5.7573,5.7573,5.6868,0.0,5.7765,5.7702,5.7315,5.6752,5.6819,5.6734,5.6386,5.6647,5.6864,5.7037,5.734,0.0,5.747,5.646,5.5962,5.5939,5.516,5.5786,5.747,5.747,5.747,5.747,5.747,5.747,5.747,5.747,5.747,5.747,5.747,5.747,5.747,5.747,5.747,5.747,5.747,5.747,5.747,5.747,5.747,5.747,5.747,5.747,5.747,5.747,5.747,5.747,5.747,5.747,5.747,5.747,5.747,5.747,5.747,5.747,5.747,5.747,5.7033,5.6574,5.6253,5.5794,5.543,5.543,0.0,0.0,0.0,0.0,0.0,0.0,5.2074,5.127,0.0,0.0,0.0,0.0,0.0,0.0,5.1701,5.3647,0.0,5.2534,5.2157,5.0847,4.8618,4.6842,4.5589,4.4856,4.5168,4.5443,4.5682,4.5828,4.5883,4.5883,4.5883,4.5336,4.4388,4.4388,4.3769,4.2813,4.2813,4.2813,4.2813,6.0327,6.0045,6.0189,6.0579,5.9522,5.9082,6.0408,5.9115,5.7956,5.7913,5.7094,5.6552,5.6552,5.6252,5.6384,5.7228,5.6926,0.0,5.6709,5.6363,5.6386,5.6821,5.6821,5.7037,5.7493,5.747,5.747,5.747,5.747,5.747,5.747,5.747,5.747,5.747,5.747,5.747,5.747,5.747,5.747,5.747,5.747,5.747,5.747,5.747,5.747,5.747,5.747,5.747,5.747,5.747,5.747,5.747,5.747,5.747,5.747,5.747,5.747,5.747,5.747,5.747,5.747,5.747,5.747,5.747,5.747,5.747,5.747,5.747,5.747,5.747,5.747,5.7079,5.6712,5.6689,5.6299,5.5935,5.5889,5.5889,0.0,0.0,0.0,0.0,0.0,5.0329,5.1408,0.0,0.0,0.0,0.0,0.0,5.2032,5.5105,5.522,5.4481,5.297,5.2428,5.0454,4.7127,4.5504,4.4471,4.416,4.4948,4.5297,4.5315,4.5718,4.5883,4.5883,4.5883,4.5336,4.4388,4.4388,4.3769,4.2813,4.2813,4.2813,4.2813,5.895,5.9205,5.9412,5.8383,5.8243,5.8111,5.7754,5.7019,5.6379,5.5993,5.5397,5.5001,5.5001,5.5317,5.5741,5.6341,5.6647,5.6777,5.6777,5.7037,5.721,5.734,5.734,5.7383,5.747,5.747,5.747,5.747,5.747,5.747,5.747,5.747,5.747,5.747,5.747,5.747,5.747,5.747,5.747,5.747,5.747,5.747,5.747,5.747,5.747,5.747,5.747,5.747,5.747,5.747,5.747,5.747,5.747,5.747,5.747,5.747,5.747,5.747,5.747,5.747,5.747,5.747,5.747,5.747,5.747,5.747,5.747,5.747,5.747,5.747,5.747,5.7378,5.7171,5.68,5.6574,5.6368,5.5935,5.5889,5.5568,0.0,5.4627,5.4582,5.4467,5.4467,5.4003,0.0,0.0,0.0,5.294,5.2779,5.3449,5.5151,5.522,5.3984,5.1443,5.0358,4.8137,4.4875,4.4755,4.4664,4.4545,4.5058,4.5297,4.5315,4.5718,4.5883,4.5883,4.5883,4.5336,4.4388,4.4388,4.3769,4.2813,4.2813,4.2813,4.2813,5.8161,5.8234,5.8327,5.7556,5.7294,5.7122,5.7035,5.6484,5.6048,5.6012,5.5918,5.598,5.6206,5.6694,5.7119,5.7391,5.7254,5.7208,5.7479,5.794,5.8181,5.8181,5.8181,5.8181,5.8181,5.7929,5.7699,5.747,5.747,5.747,5.747,5.747,5.747,5.747,5.747,5.747,5.747,5.747,5.747,5.747,5.747,5.747,5.747,5.747,5.747,5.747,5.747,5.747,5.747,5.747,5.747,5.747,5.747,5.747,5.747,5.747,5.7352,5.7056,5.6827,5.6942,5.7171,5.7424,5.747,5.747,5.747,5.747,5.747,5.747,5.747,5.747,5.747,5.747,5.7378,5.7102,5.6643,5.6413,5.6597,5.623,5.5981,5.6253,5.6276,5.6184,5.5912,5.5889,5.5316,5.4003,5.4096,0.0,5.3888,5.4096,5.4748,5.5809,5.458,5.2946,5.0952,4.8166,4.5749,4.3829,4.4215,4.4535,4.4737,4.5113,4.5407,4.559,4.5792,4.5883,4.5883,4.5648,4.5081,4.4388,4.415,4.3531,4.2813,4.2813,4.2813,4.2813,5.7559,5.7188,5.721,5.7279,5.6716,5.6521,5.7393,5.6849,5.6481,5.6951,5.7303,5.768,5.8157,5.8603,5.8916,5.8985,5.8288,5.7999,5.8407,5.8763,5.9008,5.9008,5.9008,5.9008,5.9008,5.8549,5.809,5.7584,5.7584,5.7561,5.747,5.747,5.747,5.747,5.747,5.747,5.7493,5.7561,5.7539,5.7536,5.7561,5.7584,5.7584,5.7516,5.7516,5.7584,5.7516,5.747,5.7493,5.7561,5.7584,5.7607,5.7676,5.7722,5.7676,5.7516,5.7217,5.6804,5.6299,5.6482,5.6919,5.7398,5.747,5.747,5.747,5.747,5.747,5.747,5.747,5.747,5.747,5.747,5.7378,5.7079,5.6528,5.6368,5.6942,5.6528,5.6322,5.6758,5.6804,5.662,5.6207,5.605,5.6004,5.6004,5.5587,5.5495,5.5866,5.5514,5.5652,5.6443,5.3828,5.1724,5.0291,4.6108,4.3829,4.3499,4.3829,4.4196,4.4645,4.5021,4.5425,4.581,4.5865,4.5883,4.5836,4.5318,4.4797,4.4341,4.3817,4.3292,4.2813,4.2813,4.2813,4.2813,5.6539,5.6299,5.6434,5.6816,5.6774,5.6997,5.8023,5.7662,5.7456,5.7919,5.7707,5.7521,5.7613,5.8023,5.8503,5.8962,5.9194,5.9219,5.8919,5.8941,5.9008,5.9008,5.9008,5.9008,5.9008,5.8916,5.8618,5.809,5.809,5.7883,5.747,5.747,5.747,5.747,5.747,5.747,5.7516,5.7906,5.786,5.7516,5.7929,5.809,5.8044,5.763,5.7722,5.8044,5.763,5.747,5.7539,5.7952,5.809,5.8158,5.8618,5.8755,5.8595,5.7722,5.7699,5.786,5.7378,5.7286,5.7378,5.747,5.747,5.747,5.747,5.747,5.747,5.747,5.747,5.747,5.747,5.747,5.6919,5.5174,5.6207,5.6689,5.5105,5.6253,5.7263,5.7355,5.7398,5.7332,5.724,5.6827,5.6574,5.6574,5.6092,5.5798,5.5889,5.5782,5.5757,5.5909,5.365,5.0633,4.6999,4.473,4.3554,4.3499,4.3554,4.3793,4.4196,4.4581,4.5003,4.5407,4.5737,4.5883,4.5836,4.5318,4.4797,4.4341,4.3817,4.3292,4.2813,4.2813,4.2813,4.2813,5.7658,5.7682,5.775,5.7977,5.8,5.8135,5.8629,5.8469,5.8512,5.8941,5.8824,5.8778,5.9098,5.9328,5.9513,5.9766,5.9995,6.0018,5.9812,5.9789,5.9789,5.9789,5.9789,5.9651,5.9398,5.9375,5.9146,5.8618,5.8618,5.8503,5.8296,5.8296,5.8296,5.8296,5.8296,5.8296,5.8319,5.8526,5.8503,5.8319,5.8549,5.8618,5.8595,5.8388,5.8434,5.8595,5.8388,5.8296,5.8342,5.8549,5.8618,5.8664,5.8916,5.9008,5.8893,5.8434,5.786,5.7401,5.747,5.747,5.747,5.747,5.747,5.747,5.747,5.747,5.747,5.747,5.747,5.747,5.747,5.747,5.7214,5.623,5.6391,5.6505,5.6115,5.6391,5.685,5.7424,5.747,5.747,5.747,5.7306,5.7102,5.7102,5.6368,5.5889,5.5889,5.5362,5.5048,5.5048,5.2345,4.9484,4.6627,4.4736,4.3811,4.3811,4.3811,4.4141,4.4746,4.4691,4.5021,4.5627,4.5528,4.5459,4.5412,4.4608,4.4133,4.3912,4.3387,4.3005,4.2813,4.2813,4.2813,4.2813,5.8916,5.9008,5.9031,5.9146,5.9169,5.9215,5.9329,5.9329,5.9467,5.9835,5.988,6.0041,6.0477,6.0523,6.0523,6.0523,6.0523,6.0523,6.0523,6.0523,6.0523,6.0523,6.0523,6.0339,5.9903,5.988,5.9651,5.9169,5.9169,5.91,5.9008,5.9008,5.9008,5.9008,5.9008,5.9008,5.9008,5.9123,5.91,5.9008,5.9123,5.9169,5.9146,5.9031,5.9077,5.9146,5.9031,5.9008,5.9008,5.9123,5.9169,5.9192,5.9306,5.9329,5.9306,5.9192,5.8319,5.7424,5.7607,5.7745,5.7837,5.7837,5.7837,5.7837,5.7837,5.7837,5.7837,5.7837,5.7837,5.7837,5.7837,5.7837,5.763,5.7056,5.6666,5.6528,5.6735,5.6482,5.6597,5.7378,5.747,5.747,5.747,5.7398,5.7286,5.7286,5.6459,5.5889,5.5889,5.5279,5.476,5.4408,5.1247,4.8673,4.6757,4.4949,4.4086,4.4086,4.4086,4.4508,4.5297,4.4828,4.5019,4.5695,4.5176,4.4939,4.4845,4.3942,4.3626,4.3531,4.3005,4.2813,4.2813,4.2669,4.2717,4.2765,5.8985,5.9008,5.9146,5.9582,5.9674,5.9812,6.0339,6.0408,6.0408,6.0454,6.0454,6.0477,6.05,6.0523,6.0523,6.0523,6.0523,6.0523,6.0523,6.0523,6.0523,6.0523,6.0523,6.05,6.0454,6.0454,6.0156,5.9674,5.9674,5.9444,5.9008,5.9008,5.9008,5.9008,5.9008,5.9008,5.9031,5.9467,5.9398,5.9031,5.949,5.9674,5.9605,5.9169,5.9284,5.9605,5.9146,5.9008,5.9054,5.9513,5.9674,5.9743,6.0202,6.0408,6.0316,5.9789,5.9582,5.9284,5.8388,5.8503,5.8893,5.8893,5.8893,5.8893,5.8893,5.8893,5.8893,5.8893,5.8893,5.8893,5.8893,5.8893,5.8113,5.5748,5.6873,5.724,5.4967,5.6207,5.7401,5.747,5.747,5.747,5.747,5.7033,5.6735,5.6735,5.623,5.5889,5.5889,5.6239,5.5771,5.4375,5.1252,4.8525,4.6279,4.4834,4.4086,4.4086,4.4086,4.4508,4.5297,4.4748,4.4732,4.5129,4.4655,4.4436,4.4436,4.3865,4.3626,4.3531,4.3005,4.2813,4.2765,4.2316,4.2412,4.2765,5.9835,5.9903,6.0017,6.0156,6.0179,6.0248,6.0477,6.0523,6.0523,6.0523,6.0202,5.9995,5.9995,5.9743,5.9674,5.9972,5.9995,5.9995,5.9995,5.9995,6.0133,6.05,6.0523,6.0523,6.0523,6.0523,6.0431,6.0179,6.0179,6.0087,5.9903,5.9903,5.9903,5.9903,5.9903,5.9903,5.9926,6.011,6.0064,5.9971,6.011,6.0179,6.0156,5.9972,6.0018,6.0156,5.9972,5.9903,5.9971,6.011,6.0179,6.0202,6.0454,6.0523,6.0477,6.027,6.0179,6.0087,5.972,5.9513,5.9375,5.9077,5.9008,5.9008,5.9008,5.9008,5.9008,5.9008,5.9008,5.9008,5.9008,5.9008,5.8687,5.7722,5.8204,5.8365,5.7401,5.763,5.7929,5.7929,5.7653,5.747,5.747,5.7309,5.7214,5.7214,5.6689,5.6391,5.6391,5.5116,5.4107,5.3573,5.0337,4.8201,4.7371,4.5675,4.4838,4.4838,4.4838,4.5132,4.5663,4.4847,4.4703,4.5081,4.4228,4.3912,4.3865,4.334,4.31,4.31,4.2861,4.2813,4.2765,4.2268,4.2412,4.2717,6.0202,6.0225,6.0179,6.0041,6.004,6.004,6.004,6.004,6.004,6.004,5.9697,5.9559,5.9697,5.9421,5.9352,5.9674,5.972,5.9651,5.949,5.9628,5.988,6.0225,6.0431,6.0523,6.0523,6.0523,6.0523,6.0523,6.0523,6.0523,6.0523,6.0523,6.0523,6.0523,6.0523,6.0523,6.0523,6.0523,6.0523,6.0523,6.0523,6.0523,6.0523,6.0523,6.0523,6.0523,6.0523,6.0523,6.0523,6.0523,6.0523,6.0523,6.0523,6.0523,6.0523,6.0523,6.0523,6.0523,6.0523,6.0202,5.9858,5.9536,5.9467,5.9467,5.9467,5.9467,5.9467,5.9467,5.9467,5.9467,5.9467,5.9329,5.9215,5.9215,5.91,5.9008,5.9008,5.8687,5.8457,5.8457,5.8158,5.8039,5.8169,5.7878,5.7786,5.7916,5.7303,5.6662,5.6081,5.3844,5.2341,5.1771,4.8746,4.7163,4.7199,4.5813,4.5168,4.5297,4.5168,4.537,4.5883,4.4905,4.4594,4.4797,4.3799,4.334,4.334,4.2957,4.2813,4.2813,4.2813,4.2813,4.2765,4.2268,4.2412,4.2717,5.9812,5.972,5.9559,5.9077,5.9008,5.9008,5.9008,5.9008,5.9008,5.9008,5.8985,5.9169,5.9651,5.9697,5.9697,5.9697,5.9697,5.949,5.9031,5.9444,5.972,5.972,6.0202,6.0523,6.05,6.0523,6.0523,6.0523,6.0523,6.0523,6.0523,6.0523,6.0523,6.0523,6.0523,6.0523,6.0523,6.0523,6.0523,6.0523,6.0523,6.0523,6.0523,6.0523,6.0523,6.0523,6.0523,6.0523,6.0523,6.0523,6.0523,6.0523,6.0523,6.0523,6.0523,6.0523,6.0523,6.0523,6.0523,6.0523,6.0523,6.0523,6.0523,6.0523,6.0523,6.0523,6.0523,6.0523,6.0523,6.0523,6.0523,6.0064,5.972,5.972,5.9306,5.9008,5.9008,5.9008,5.8985,5.8985,5.8985,5.9183,5.9645,5.8787,5.84,5.8858,5.8005,5.6624,5.4675,5.2721,5.0782,4.8881,4.6549,4.5297,4.5297,4.4875,4.4875,4.5297,4.4875,4.5141,4.5836,4.4845,4.437,4.4341,4.3275,4.2813,4.2813,4.2813,4.2813,4.2813,4.2813,4.2813,4.2765,4.2268,4.2412,4.2717,5.9238,5.949,5.9674,5.9536,5.949,5.949,5.949,5.9215,5.9008,5.9008,5.8664,5.8641,5.9146,5.8572,5.8434,5.9146,5.887,5.8755,5.8985,5.9444,5.972,5.972,6.0202,6.0294,5.9949,6.0339,6.0523,6.0523,6.0523,6.0523,6.0523,6.0523,6.0523,6.0523,6.0523,6.0523,6.0523,6.0523,6.0523,6.0523,6.0523,6.0523,6.0523,6.0523,6.0523,6.0523,6.0523,6.0523,6.0523,6.0523,6.0523,6.0523,6.0523,6.0523,6.0523,6.0523,6.0523,6.0523,6.0523,6.0523,6.0523,6.0523,6.0523,6.0523,6.0523,6.0523,6.0523,6.0523,6.0523,6.0523,6.0523,6.0385,6.0248,6.0248,5.9835,5.949,5.949,5.8893,5.8434,5.8434,5.8397,5.8296,5.8189,5.8158,5.8065,5.7916,5.6365,5.4631,5.2677,5.0737,4.9387,4.8835,4.6812,4.5718,4.5718,4.5021,4.4774,4.4856,4.4774,4.4948,4.5415,4.4146,4.3856,4.4323,4.2998,4.2556,4.2813,4.2813,4.2813,4.2813,4.2813,4.2813,4.2765,4.2268,4.2412,4.2717,5.8732,5.8916,5.9054,5.887,5.8824,5.8824,5.8824,5.8595,5.8388,5.8388,5.8113,5.8113,5.8618,5.8319,5.8319,5.8939,5.8503,5.8342,5.8664,5.8962,5.9123,5.9123,5.9605,5.9926,5.9995,6.0317,6.0523,6.0523,6.0523,6.0523,6.0523,6.0523,6.0523,6.0523,6.0523,6.0523,6.0523,6.0523,6.0523,6.0523,6.0523,6.0523,6.0523,6.0523,6.0523,6.0523,6.0523,6.0523,6.0523,6.0523,6.0523,6.0523,6.0523,6.0523,6.0523,6.0523,6.0523,6.0523,6.0523,6.0523,6.0523,6.0523,6.0523,6.0523,6.0523,6.0523,6.0523,6.0523,6.0523,6.0523,6.0523,6.0339,6.0225,6.0477,6.0041,5.9834,6.0265,5.9758,5.9454,5.9631,5.9616,5.9561,5.9518,5.9375,5.8638,5.7049,5.4762,5.2587,5.0646,4.9413,4.842,4.7651,4.6374,4.5645,4.5645,4.5003,4.4792,4.4911,4.46,4.4655,4.504,4.3954,4.3652,4.3862,4.2818,4.2421,4.2591,4.2591,4.2676,4.2813,4.2813,4.2813,4.2765,4.246,4.2556,4.2765,5.8296,5.8204,5.8067,5.7676,5.7561,5.7539,5.7539,5.7516,5.747,5.747,5.747,5.7676,5.8135,5.8595,5.887,5.8916,5.848,5.8204,5.8204,5.825,5.8273,5.8273,5.8732,5.9421,6.0362,6.0385,6.0385,6.0385,6.0431,6.0454,6.0454,6.05,6.0523,6.0523,6.0523,6.0523,6.0523,6.0523,6.0523,6.0523,6.0523,6.0523,6.0523,6.0523,6.0523,6.0523,6.0523,6.0523,6.0523,6.0523,6.0523,6.0523,6.0523,6.0523,6.0523,6.0523,6.0523,6.0523,6.0523,6.0477,6.0454,6.0454,6.0408,6.0408,6.05,6.0523,6.0523,6.0523,6.0523,6.0523,6.0523,6.0087,5.9926,6.0476,6.004,6.0036,6.0992,6.1082,6.117,6.162,6.1709,6.1911,6.238,6.1599,5.9658,5.6043,5.3374,5.095,4.8767,4.859,4.7801,4.6033,4.5553,4.5352,4.5352,4.493,4.4911,4.5242,4.4453,4.4288,4.4673,4.4078,4.359,4.3154,4.2609,4.2306,4.2244,4.2279,4.2501,4.2762,4.2796,4.2813,4.2813,4.2813,4.2813,4.2813,5.8135,5.8204,5.8296,5.8618,5.8319,5.8044,5.8044,5.7722,5.747,5.747,5.747,5.7676,5.8135,5.7975,5.7952,5.8342,5.8273,5.8204,5.8204,5.8595,5.8824,5.8824,5.8939,5.91,5.9306,5.9306,5.9306,5.9306,5.9697,5.988,5.988,6.0271,6.0523,6.0523,6.0523,6.0523,6.0523,6.0523,6.0523,6.0523,6.0523,6.0523,6.0523,6.0523,6.0523,6.0523,6.0523,6.0523,6.0523,6.0523,6.0523,6.0523,6.0523,6.0523,6.0523,6.0523,6.0523,6.0523,6.0523,6.0179,5.988,5.988,5.9605,5.9513,6.0339,6.0523,6.0523,6.0523,6.0523,6.0523,6.0523,6.0431,6.0476,6.0953,6.0233,5.9854,6.0479,5.9843,5.9535,6.0064,6.0415,6.0711,6.0851,6.0692,5.8829,5.4543,5.3615,5.1547,4.7681,4.7173,4.6817,4.6389,4.5975,4.5755,4.5755,4.537,4.504,4.4801,4.4325,4.4288,4.4655,4.3561,4.3116,4.3136,4.2375,4.1954,4.1851,4.2159,4.233,4.2433,4.2693,4.2813,4.2813,4.2813,4.2813,4.2813,5.8113,5.8021,5.809,5.887,5.8549,5.8296,5.8549,5.8365,5.8113,5.786,5.8044,5.8204,5.8204,5.8411,5.8549,5.8572,5.8572,5.8365,5.7883,5.8113,5.8273,5.8273,5.8273,5.8273,5.8273,5.8273,5.8503,5.9008,5.9261,5.9375,5.9375,5.988,6.011,6.011,6.0408,6.0523,6.0523,6.0523,6.0523,6.0523,6.0523,6.0523,6.0523,6.0523,6.0523,6.0523,6.0523,6.0523,6.0523,6.0523,6.0523,6.0523,6.0523,6.0523,6.0523,6.0523,6.0339,6.011,6.011,5.9743,5.9375,5.9375,5.9192,5.9123,5.9651,5.9766,5.9766,5.9766,5.9766,5.9924,6.0379,6.0471,6.0675,6.1425,6.105,6.0783,6.1033,6.0837,6.0691,6.0999,6.143,6.1736,6.178,5.9441,5.6949,5.4578,5.2046,4.9537,4.719,4.6892,4.6599,4.6213,4.6177,4.5993,4.5608,4.559,4.537,4.4966,4.4563,4.4425,4.438,4.3506,4.2936,4.2587,4.1937,4.1556,4.1474,4.1679,4.1851,4.2056,4.2433,4.2539,4.2556,4.2745,4.2813,4.2813,5.8342,5.8067,5.8021,5.8962,5.8687,5.848,5.8939,5.9008,5.8801,5.8273,5.8595,5.8687,5.825,5.8939,5.9306,5.8893,5.8778,5.8388,5.7539,5.747,5.747,5.747,5.747,5.747,5.747,5.747,5.7883,5.8732,5.8824,5.8847,5.887,5.9444,5.972,5.9743,6.0248,6.0523,6.0523,6.0523,6.0523,6.0523,6.0523,6.0523,6.0523,6.0523,6.0523,6.0523,6.0523,6.0523,6.0523,6.0523,6.0523,6.0523,6.0523,6.0523,6.0523,6.0523,6.0179,5.9835,5.9835,5.949,5.91,5.9008,5.896,5.898,5.8888,5.8914,5.9029,5.9074,5.9118,5.9366,6.0226,6.0384,6.0681,6.1709,6.1728,6.1694,6.1919,6.2058,6.2305,6.2556,6.3033,6.3145,6.2722,5.8592,5.56,5.4718,5.0497,4.778,4.7314,4.724,4.6892,4.6213,4.6452,4.6269,4.5608,4.5865,4.5828,4.5498,4.5077,4.4682,4.4178,4.3642,4.2928,4.2073,4.1614,4.1273,4.108,4.1195,4.1337,4.1645,4.2039,4.2193,4.2227,4.2574,4.271,4.2727,5.9329,5.9123,5.8962,5.9513,5.9215,5.8916,5.8985,5.9008,5.8801,5.8273,5.825,5.8273,5.8204,5.8319,5.8388,5.8319,5.7929,5.7674,5.7536,5.747,5.747,5.747,5.747,5.747,5.747,5.747,5.7582,5.7676,5.809,5.8296,5.8319,5.9284,5.972,5.9743,6.0248,6.0523,6.0523,6.0523,6.0523,6.0523,6.0523,6.0523,6.0523,6.0523,6.0523,6.0523,6.0523,6.0523,6.0523,6.0523,6.0523,6.0523,6.0523,6.0523,6.0523,6.0523,6.0477,6.0408,6.0408,5.9995,5.9513,5.91,5.8948,5.8814,5.833,5.8628,5.9118,5.9469,5.9513,5.9668,6.0221,6.0309,6.0628,6.1631,6.1055,6.0967,6.2281,6.136,6.1042,6.2432,6.3033,6.2455,6.0317,5.9408,5.723,5.2827,5.1847,5.0445,4.8269,4.7809,4.7571,4.7461,4.7167,4.6965,4.6855,4.6562,4.6379,4.6305,4.592,4.5333,4.4563,4.3839,4.3135,4.2508,4.2081,4.1433,4.0686,4.1075,4.1246,4.1286,4.1645,4.1782,4.1834,4.2227,4.2364,4.2416,5.9949,5.9513,5.9329,6.0386,5.9926,5.949,5.9766,5.9812,5.9743,5.9535,5.9467,5.9582,5.9858,5.9903,5.9674,5.91,5.8847,5.8618,5.8342,5.8319,5.8319,5.8319,5.8319,5.8319,5.8319,5.8319,5.8181,5.7883,5.7837,5.7791,5.7814,5.8526,5.9031,5.9329,5.9835,6.0202,6.0523,6.0523,6.0523,6.0523,6.0523,6.0523,6.0523,6.0523,6.0523,6.0523,6.0523,6.0523,6.0523,6.0523,6.0523,6.0523,6.0523,6.0523,6.0499,6.0449,6.0238,6.0005,5.9993,5.9606,5.9196,5.8948,5.8898,5.8805,5.8551,5.8722,5.8962,5.9111,5.9155,5.9378,6.0135,6.0293,6.0632,6.1656,6.1432,6.1279,6.1662,6.1326,6.1446,6.248,6.1508,6.0491,5.9681,5.7039,5.448,5.2275,5.0794,4.9463,4.8385,4.8121,4.7827,4.7387,4.7406,4.7222,4.6764,4.68,4.6455,4.5714,4.555,4.5309,4.5003,4.4426,4.3676,4.2934,4.2482,4.1861,4.12,4.1183,4.1212,4.1229,4.1337,4.1662,4.2073,4.2467,4.2556,4.2591]},{"header":{"parameterUnit":"m.s-1","parameterCategory":1,"la1":30.6,"la2":28.766,"lo1":-90.7593,"lo2":-88.6598,"dx":0.0162,"dy":0.0183,"nx":116,"ny":114,"refTime":"2022-11-19T18:00:00:Z","depth":0,"parameterNumber":3,"parameterNumberName":"V-component_of_WINDS"},"data":[0.0,0.0,0.0,0.0,0.0,0.0,0.0,0.0,0.0,0.0,0.0,0.0,0.0,0.0,0.0,0.0,0.0,0.0,0.0,0.0,0.0,0.0,0.0,0.0,0.0,0.0,0.0,0.0,0.0,0.0,0.0,0.0,0.0,0.0,0.0,0.0,0.0,0.0,0.0,0.0,0.0,0.0,0.0,0.0,0.0,0.0,0.0,0.0,0.0,0.0,0.0,0.0,0.0,0.0,0.0,0.0,0.0,0.0,0.0,0.0,0.0,0.0,0.0,0.0,0.0,0.0,0.0,0.0,0.0,0.0,0.0,0.0,0.0,0.0,0.0,0.0,0.0,0.0,0.0,0.0,0.0,0.0,0.0,0.0,0.0,0.0,0.0,0.0,0.0,0.0,0.0,0.0,0.0,0.0,0.0,0.0,0.0,0.0,0.0,0.0,0.0,0.0,0.0,0.0,0.0,0.0,0.0,0.0,0.0,0.0,0.0,0.0,0.0,0.0,0.0,0.0,0.0,0.0,0.0,0.0,0.0,0.0,0.0,0.0,0.0,0.0,0.0,0.0,0.0,0.0,0.0,0.0,0.0,0.0,0.0,0.0,0.0,0.0,0.0,0.0,0.0,0.0,0.0,0.0,0.0,0.0,0.0,0.0,0.0,0.0,0.0,0.0,0.0,0.0,0.0,0.0,0.0,0.0,0.0,0.0,0.0,0.0,0.0,0.0,0.0,0.0,0.0,0.0,0.0,0.0,0.0,0.0,0.0,0.0,0.0,0.0,0.0,0.0,0.0,0.0,0.0,0.0,0.0,0.0,0.0,0.0,0.0,0.0,0.0,0.0,0.0,0.0,0.0,0.0,0.0,0.0,0.0,0.0,0.0,0.0,0.0,0.0,0.0,0.0,0.0,0.0,0.0,0.0,0.0,0.0,0.0,0.0,0.0,0.0,0.0,0.0,0.0,0.0,0.0,0.0,0.0,0.0,0.0,0.0,0.0,0.0,0.0,0.0,0.0,0.0,0.0,0.0,0.0,0.0,0.0,0.0,0.0,0.0,0.0,0.0,0.0,0.0,0.0,0.0,0.0,0.0,0.0,0.0,0.0,0.0,0.0,0.0,0.0,0.0,0.0,0.0,0.0,0.0,0.0,0.0,0.0,0.0,0.0,0.0,0.0,0.0,0.0,0.0,0.0,0.0,0.0,0.0,0.0,0.0,0.0,0.0,0.0,0.0,0.0,0.0,0.0,0.0,0.0,0.0,0.0,0.0,0.0,0.0,0.0,0.0,0.0,0.0,0.0,0.0,0.0,0.0,0.0,0.0,0.0,0.0,0.0,0.0,0.0,0.0,0.0,0.0,0.0,0.0,0.0,0.0,0.0,0.0,0.0,0.0,0.0,0.0,0.0,0.0,0.0,0.0,0.0,0.0,0.0,0.0,0.0,0.0,0.0,0.0,0.0,0.0,0.0,0.0,0.0,0.0,0.0,0.0,0.0,0.0,0.0,0.0,0.0,0.0,0.0,0.0,0.0,0.0,0.0,0.0,0.0,0.0,0.0,0.0,0.0,0.0,0.0,0.0,0.0,0.0,0.0,0.0,0.0,0.0,0.0,0.0,0.0,0.0,0.0,0.0,0.0,0.0,0.0,0.0,0.0,0.0,0.0,0.0,0.0,0.0,0.0,0.0,0.0,0.0,0.0,0.0,0.0,0.0,0.0,0.0,0.0,0.0,0.0,0.0,0.0,0.0,0.0,0.0,0.0,0.0,0.0,0.0,0.0,0.0,0.0,0.0,0.0,0.0,0.0,0.0,0.0,0.0,0.0,0.0,0.0,0.0,0.0,0.0,0.0,0.0,0.0,0.0,0.0,0.0,0.0,0.0,0.0,0.0,0.0,0.0,0.0,0.0,0.0,0.0,0.0,0.0,0.0,0.0,0.0,0.0,0.0,0.0,0.0,0.0,0.0,0.0,0.0,0.0,0.0,0.0,0.0,0.0,0.0,0.0,0.0,0.0,0.0,0.0,0.0,0.0,0.0,0.0,0.0,0.0,0.0,0.0,0.0,0.0,0.0,0.0,0.0,0.0,0.0,0.0,0.0,0.0,0.0,0.0,0.0,0.0,0.0,0.0,0.0,0.0,0.0,0.0,0.0,0.0,0.0,0.0,0.0,0.0,0.0,0.0,0.0,0.0,0.0,0.0,0.0,0.0,0.0,0.0,0.0,0.0,0.0,0.0,0.0,0.0,0.0,0.0,0.0,0.0,0.0,0.0,0.0,0.0,0.0,0.0,0.0,0.0,0.0,0.0,0.0,0.0,0.0,0.0,0.0,0.0,0.0,0.0,0.0,0.0,0.0,0.0,0.0,0.0,0.0,0.0,0.0,0.0,0.0,0.0,0.0,0.0,0.0,0.0,0.0,0.0,0.0,0.0,0.0,0.0,0.0,0.0,0.0,0.0,0.0,0.0,0.0,0.0,0.0,0.0,0.0,0.0,0.0,0.0,0.0,0.0,0.0,0.0,0.0,0.0,0.0,0.0,0.0,0.0,0.0,0.0,0.0,0.0,0.0,0.0,0.0,0.0,0.0,0.0,0.0,0.0,0.0,0.0,0.0,0.0,0.0,0.0,0.0,0.0,0.0,0.0,0.0,0.0,0.0,0.0,0.0,0.0,0.0,0.0,0.0,0.0,0.0,0.0,0.0,0.0,0.0,0.0,0.0,0.0,0.0,0.0,0.0,0.0,0.0,0.0,0.0,0.0,0.0,0.0,0.0,0.0,0.0,0.0,0.0,0.0,0.0,0.0,0.0,0.0,0.0,0.0,0.0,0.0,0.0,0.0,0.0,0.0,0.0,0.0,0.0,0.0,0.0,0.0,0.0,0.0,0.0,0.0,0.0,0.0,0.0,0.0,0.0,0.0,0.0,0.0,0.0,0.0,0.0,0.0,0.0,0.0,0.0,0.0,0.0,0.0,0.0,0.0,0.0,0.0,0.0,0.0,0.0,0.0,0.0,0.0,0.0,0.0,0.0,0.0,0.0,0.0,0.0,0.0,0.0,0.0,0.0,0.0,0.0,0.0,0.0,0.0,0.0,0.0,0.0,0.0,0.0,0.0,0.0,0.0,0.0,0.0,0.0,0.0,0.0,0.0,0.0,0.0,0.0,0.0,0.0,0.0,0.0,0.0,0.0,0.0,0.0,0.0,0.0,0.0,0.0,0.0,0.0,0.0,0.0,0.0,0.0,0.0,0.0,0.0,0.0,0.0,0.0,0.0,0.0,0.0,0.0,0.0,0.0,0.0,0.0,0.0,0.0,0.0,0.0,0.0,0.0,0.0,0.0,0.0,0.0,0.0,0.0,0.0,0.0,0.0,0.0,0.0,0.0,0.0,0.0,0.0,0.0,0.0,0.0,0.0,0.0,0.0,0.0,0.0,0.0,0.0,0.0,0.0,0.0,0.0,0.0,0.0,0.0,0.0,0.0,0.0,0.0,0.0,0.0,0.0,0.0,0.0,0.0,0.0,0.0,0.0,0.0,0.0,0.0,0.0,0.0,0.0,0.0,0.0,0.0,0.0,0.0,0.0,0.0,0.0,0.0,0.0,0.0,0.0,0.0,0.0,0.0,0.0,0.0,0.0,0.0,0.0,0.0,0.0,0.0,0.0,0.0,0.0,0.0,0.0,0.0,0.0,0.0,0.0,0.0,0.0,0.0,0.0,0.0,0.0,0.0,0.0,0.0,0.0,0.0,0.0,0.0,0.0,0.0,0.0,0.0,0.0,0.0,0.0,0.0,0.0,0.0,0.0,0.0,0.0,0.0,0.0,0.0,0.0,0.0,0.0,0.0,0.0,0.0,0.0,0.0,0.0,0.0,0.0,0.0,0.0,0.0,0.0,0.0,0.0,0.0,0.0,0.0,0.0,0.0,0.0,0.0,0.0,0.0,0.0,0.0,0.0,0.0,0.0,0.0,0.0,0.0,0.0,0.0,0.0,0.0,0.0,0.0,0.0,0.0,0.0,0.0,0.0,0.0,0.0,0.0,0.0,0.0,0.0,0.0,0.0,0.0,0.0,0.0,0.0,0.0,0.0,0.0,0.0,0.0,0.0,0.0,0.0,0.0,0.0,0.0,0.0,0.0,0.0,0.0,0.0,0.0,0.0,0.0,0.0,0.0,0.0,0.0,0.0,0.0,0.0,0.0,0.0,0.0,0.0,0.0,0.0,0.0,0.0,0.0,0.0,0.0,0.0,0.0,0.0,0.0,0.0,0.0,0.0,0.0,0.0,0.0,0.0,0.0,0.0,0.0,0.0,0.0,0.0,0.0,0.0,0.0,0.0,0.0,0.0,0.0,0.0,0.0,0.0,0.0,0.0,0.0,0.0,0.0,0.0,0.0,0.0,0.0,0.0,0.0,0.0,0.0,0.0,0.0,0.0,0.0,0.0,0.0,0.0,0.0,0.0,0.0,0.0,0.0,0.0,0.0,0.0,0.0,0.0,0.0,0.0,0.0,0.0,0.0,0.0,0.0,0.0,0.0,0.0,0.0,0.0,0.0,0.0,0.0,0.0,0.0,0.0,0.0,0.0,0.0,0.0,0.0,0.0,0.0,0.0,0.0,0.0,0.0,0.0,0.0,0.0,0.0,0.0,0.0,0.0,0.0,0.0,0.0,0.0,0.0,0.0,0.0,0.0,0.0,0.0,0.0,0.0,0.0,0.0,0.0,0.0,0.0,0.0,0.0,0.0,0.0,0.0,0.0,0.0,0.0,0.0,0.0,0.0,0.0,0.0,0.0,0.0,0.0,0.0,0.0,0.0,0.0,0.0,0.0,0.0,0.0,0.0,0.0,0.0,0.0,0.0,0.0,0.0,0.0,0.0,0.0,0.0,0.0,0.0,0.0,0.0,0.0,0.0,0.0,0.0,0.0,0.0,0.0,0.0,0.0,0.0,0.0,0.0,0.0,0.0,0.0,0.0,0.0,0.0,0.0,0.0,0.0,0.0,0.0,0.0,0.0,0.0,0.0,0.0,0.0,0.0,0.0,0.0,0.0,0.0,0.0,0.0,0.0,0.0,0.0,0.0,0.0,0.0,0.0,0.0,0.0,0.0,0.0,0.0,0.0,0.0,0.0,0.0,0.0,0.0,0.0,0.0,0.0,0.0,0.0,0.0,0.0,0.0,0.0,0.0,0.0,0.0,0.0,0.0,0.0,0.0,0.0,0.0,0.0,0.0,0.0,0.0,0.0,0.0,0.0,0.0,0.0,0.0,0.0,0.0,0.0,0.0,0.0,0.0,0.0,0.0,0.0,0.0,0.0,0.0,0.0,0.0,0.0,0.0,0.0,0.0,0.0,0.0,0.0,0.0,0.0,0.0,0.0,0.0,0.0,0.0,0.0,0.0,0.0,0.0,0.0,0.0,0.0,0.0,0.0,0.0,0.0,0.0,0.0,0.0,0.0,0.0,0.0,0.0,0.0,0.0,0.0,0.0,0.0,0.0,0.0,0.0,0.0,0.0,0.0,0.0,0.0,0.0,0.0,0.0,0.0,0.0,0.0,0.0,0.0,0.0,0.0,0.0,0.0,0.0,0.0,0.0,0.0,0.0,0.0,0.0,0.0,0.0,0.0,0.0,0.0,0.0,0.0,0.0,0.0,0.0,0.0,0.0,0.0,0.0,0.0,0.0,0.0,0.0,0.0,0.0,0.0,0.0,0.0,0.0,0.0,0.0,0.0,0.0,0.0,0.0,0.0,0.0,0.0,0.0,0.0,0.0,0.0,0.0,0.0,0.0,0.0,0.0,0.0,0.0,0.0,0.0,0.0,0.0,0.0,0.0,0.0,0.0,0.0,0.0,0.0,0.0,0.0,0.0,0.0,0.0,0.0,0.0,0.0,0.0,0.0,0.0,0.0,0.0,0.0,0.0,0.0,0.0,0.0,0.0,0.0,0.0,0.0,0.0,0.0,0.0,0.0,0.0,0.0,0.0,0.0,0.0,0.0,0.0,0.0,0.0,0.0,0.0,0.0,0.0,0.0,0.0,0.0,0.0,0.0,0.0,0.0,0.0,0.0,0.0,0.0,0.0,0.0,0.0,0.0,0.0,0.0,0.0,0.0,0.0,3.0236,0.0,0.0,0.0,0.0,0.0,0.0,0.0,0.0,0.0,0.0,0.0,0.0,0.0,0.0,0.0,0.0,0.0,0.0,0.0,0.0,0.0,0.0,0.0,0.0,1.559,1.5661,1.5765,1.5799,0.0,0.0,0.0,0.0,0.0,0.0,0.0,0.0,0.0,1.5999,1.6454,1.6895,1.7339,1.7835,1.762,1.7154,1.6471,0.0,0.0,0.0,0.0,0.0,0.0,0.0,0.0,0.0,0.0,0.0,0.0,0.0,0.0,0.0,0.0,0.0,0.0,0.0,0.0,0.0,0.0,0.0,0.0,0.0,0.0,0.0,0.0,0.0,0.0,0.0,0.0,0.0,0.0,0.0,0.0,0.0,0.0,0.0,0.0,0.0,0.0,0.0,0.0,0.0,0.0,0.0,0.0,0.0,0.0,0.0,0.0,0.0,0.0,0.0,0.0,0.0,0.0,0.0,0.0,0.0,0.0,0.0,0.0,0.0,0.0,0.0,0.0,0.0,0.0,0.0,3.1479,0.0,0.0,0.0,0.0,0.0,0.0,0.0,0.0,0.0,0.0,0.0,0.0,0.0,0.0,0.0,0.0,0.0,0.0,0.0,0.0,0.0,1.5514,1.5676,1.5997,1.6326,1.6574,1.6515,1.6492,1.6574,1.6149,0.0,0.0,0.0,0.0,1.5391,1.571,1.6324,1.7274,1.7772,1.8586,1.9641,1.9641,1.8998,1.7825,1.7666,0.0,0.0,0.0,0.0,0.0,0.0,0.0,0.0,0.0,0.0,0.0,0.0,0.0,0.0,0.0,0.0,0.0,0.0,0.0,0.0,0.0,0.0,0.0,0.0,0.0,0.0,0.0,0.0,0.0,0.0,0.0,0.0,0.0,0.0,0.0,0.0,0.0,0.0,0.0,0.0,0.0,0.0,0.0,0.0,0.0,0.0,0.0,0.0,0.0,0.0,0.0,0.0,0.0,0.0,0.0,0.0,0.0,0.0,0.0,0.0,0.0,0.0,0.0,3.312,3.3016,3.2549,3.3471,3.4043,3.4367,3.419,3.4811,3.5737,3.3133,0.0,0.0,0.0,0.0,0.0,0.0,0.0,0.0,0.0,0.0,0.0,0.0,0.0,0.0,0.0,0.0,0.0,0.0,0.0,1.5611,1.637,1.635,1.668,1.768,1.7161,1.7027,1.7648,1.7051,0.0,0.0,0.0,0.0,1.5738,1.6213,1.6824,1.754,1.8982,2.0003,2.0611,2.0611,2.0513,2.0288,1.946,1.9249,1.9376,0.0,0.0,0.0,0.0,0.0,0.0,0.0,0.0,0.0,0.0,0.0,0.0,0.0,0.0,0.0,0.0,0.0,0.0,0.0,0.0,0.0,0.0,0.0,0.0,0.0,0.0,0.0,0.0,0.0,0.0,0.0,0.0,0.0,0.0,0.0,0.0,0.0,0.0,0.0,0.0,0.0,2.9613,3.0466,0.0,0.0,0.0,0.0,0.0,0.0,0.0,0.0,0.0,0.0,0.0,0.0,0.0,3.2173,3.2472,3.363,3.4163,3.4089,3.5593,3.6272,3.6218,3.6701,3.6943,3.7004,3.6983,0.0,3.5257,3.4323,0.0,0.0,0.0,0.0,0.0,0.0,0.0,0.0,0.0,0.0,0.0,0.0,0.0,0.0,0.0,0.0,0.0,0.0,0.0,0.0,0.0,1.6876,1.7326,1.7781,1.7505,1.7456,1.7809,1.7274,0.0,0.0,0.0,1.6657,1.6492,1.6692,1.7645,1.9341,2.1372,2.2678,2.3263,2.2986,2.3177,2.3608,2.2366,2.1274,2.0288,1.9411,0.0,0.0,0.0,0.0,0.0,0.0,0.0,0.0,0.0,0.0,0.0,0.0,0.0,0.0,0.0,0.0,0.0,0.0,0.0,0.0,0.0,0.0,0.0,0.0,0.0,0.0,0.0,0.0,0.0,0.0,0.0,0.0,0.0,0.0,0.0,0.0,0.0,0.0,0.0,2.8745,3.0006,3.1048,3.0538,3.0018,0.0,0.0,0.0,0.0,0.0,0.0,0.0,0.0,0.0,3.4,3.3944,3.4184,3.4827,3.5609,3.5778,3.5331,3.6106,3.6381,3.6239,3.6409,3.6503,3.6503,3.6503,3.6103,3.5469,3.5197,3.4702,3.4082,0.0,0.0,0.0,0.0,3.2969,3.2925,0.0,0.0,0.0,0.0,0.0,0.0,0.0,0.0,0.0,0.0,0.0,0.0,1.6643,1.7405,1.7947,1.8072,1.8022,1.806,1.8275,1.7753,1.7392,0.0,1.7113,1.7075,1.7252,1.7764,1.9261,2.1758,2.3323,2.4452,2.5103,2.4603,2.4777,2.5409,2.436,2.3069,2.1621,2.0711,1.9648,1.8509,0.0,0.0,0.0,0.0,0.0,0.0,0.0,0.0,0.0,0.0,0.0,0.0,0.0,0.0,0.0,0.0,0.0,0.0,0.0,0.0,0.0,0.0,0.0,0.0,0.0,0.0,0.0,0.0,0.0,0.0,0.0,0.0,0.0,0.0,0.0,0.0,0.0,2.9922,3.0893,3.1991,3.2173,3.1983,0.0,0.0,0.0,0.0,0.0,0.0,3.3965,3.3422,3.3756,3.5201,3.5298,3.5752,3.6586,3.6777,3.6577,3.6006,3.6006,3.5898,3.569,3.569,3.569,3.5717,3.5852,3.5934,3.5906,3.5744,3.5608,3.5391,3.4477,3.3791,3.3395,3.4117,3.4109,3.4047,0.0,0.0,0.0,0.0,0.0,0.0,0.0,0.0,0.0,0.0,0.0,1.6572,1.7262,1.7845,1.8432,1.9072,1.8887,1.9004,1.9568,1.8825,1.8442,1.87,1.7609,1.7316,1.7946,1.9887,2.2112,2.4573,2.4059,2.416,2.4816,2.4343,2.4149,2.4192,2.4366,2.431,2.3928,2.236,2.1286,2.0531,1.9094,0.0,0.0,0.0,0.0,0.0,0.0,0.0,0.0,0.0,0.0,0.0,0.0,0.0,0.0,0.0,0.0,0.0,0.0,0.0,0.0,0.0,0.0,0.0,0.0,0.0,0.0,0.0,0.0,0.0,0.0,0.0,0.0,0.0,0.0,0.0,0.0,0.0,0.0,3.4333,3.455,0.0,0.0,0.0,0.0,3.4612,3.4713,3.5201,3.6361,3.5845,3.5845,3.6497,3.5954,3.571,3.5764,3.5784,3.5757,3.571,3.571,3.571,3.569,3.569,3.569,3.5717,3.6307,3.6551,3.6524,3.5934,3.5364,3.4829,3.4775,3.4395,3.4016,3.5174,3.5581,3.5744,0.0,0.0,0.0,0.0,0.0,1.5356,1.5356,1.5311,1.5579,1.6362,1.6634,1.711,1.8054,1.8414,1.8657,1.8874,1.8781,1.8825,1.9048,1.8772,1.872,1.9038,1.8923,1.9439,2.0675,2.2876,2.451,2.5579,2.5888,2.6271,2.6668,2.6125,2.5659,2.5274,2.5308,2.5052,2.4534,2.3845,2.2743,2.1391,2.0858,1.9409,0.0,0.0,0.0,0.0,0.0,0.0,0.0,0.0,0.0,0.0,0.0,0.0,0.0,0.0,0.0,0.0,0.0,0.0,0.0,0.0,0.0,0.0,0.0,0.0,0.0,0.0,0.0,0.0,0.0,0.0,0.0,0.0,0.0,0.0,0.0,0.0,0.0,3.5221,3.5682,0.0,3.5259,3.5832,3.634,3.651,3.6557,3.6747,3.7154,3.6232,3.5798,3.5988,3.5798,3.569,3.569,3.609,3.628,3.628,3.6666,3.6856,3.6856,3.6856,3.6856,3.6883,3.71,3.7181,3.7154,3.6964,3.6503,3.5961,3.5961,3.5825,3.569,3.6117,3.6774,3.7507,0.0,0.0,0.0,0.0,1.5267,1.5312,1.5356,1.5277,1.5602,1.664,1.6934,1.7439,1.8375,1.8882,1.9083,1.8982,1.9516,1.9834,1.9804,1.9656,1.9687,1.9988,2.0328,2.1369,2.3239,2.4853,2.6147,2.7138,2.7275,2.7544,2.7922,2.7075,2.6469,2.6022,2.5837,2.5546,2.5278,2.5198,2.4222,2.2688,2.2573,2.1246,1.9357,0.0,0.0,0.0,0.0,0.0,0.0,0.0,0.0,0.0,0.0,0.0,0.0,0.0,0.0,0.0,0.0,0.0,0.0,0.0,0.0,0.0,0.0,0.0,0.0,0.0,0.0,0.0,0.0,0.0,0.0,0.0,0.0,0.0,0.0,0.0,3.5256,3.5635,3.6605,3.6985,3.6368,3.7398,3.8103,3.8103,3.7913,3.7724,3.7512,3.6747,3.6205,3.5988,3.6205,3.6313,3.6313,3.6693,3.6883,3.6931,3.7317,3.7485,3.7485,3.7485,3.7485,3.7512,3.7724,3.7805,3.7832,3.8022,3.7751,3.7202,3.6964,3.6883,3.6883,3.6883,3.7398,3.813,0.0,0.0,0.0,1.5119,1.5222,1.5256,1.5119,1.5131,1.5434,1.6281,1.6921,1.7596,1.8356,1.9328,1.982,1.9593,2.1113,2.2045,2.1948,2.1431,2.1292,2.1649,2.1761,2.2987,2.5434,2.5763,2.7071,2.9414,2.8099,2.7789,2.8387,2.6998,2.6347,2.6325,2.5871,2.5886,2.626,2.6447,2.5769,2.4542,2.4119,2.3324,2.2349,0.0,0.0,0.0,0.0,0.0,0.0,0.0,0.0,0.0,0.0,0.0,0.0,0.0,0.0,0.0,0.0,0.0,0.0,0.0,0.0,0.0,0.0,0.0,0.0,0.0,0.0,0.0,0.0,0.0,0.0,0.0,0.0,0.0,3.4957,3.5391,3.5771,3.5798,3.7344,3.8212,3.7615,3.8591,3.9264,3.9264,3.87,3.813,3.7512,3.7485,3.7235,3.6659,3.7208,3.7485,3.7485,3.7512,3.7512,3.7512,3.7567,3.7567,3.7567,3.7594,3.7594,3.7621,3.8239,3.8483,3.8537,3.9129,3.902,3.8429,3.7805,3.754,3.754,3.7567,3.7594,3.7696,0.0,0.0,1.5131,1.5108,1.5131,1.5176,1.5244,1.5499,1.6334,1.8093,1.8899,1.9905,2.1531,2.217,2.215,2.1316,2.1684,2.1497,2.0485,2.0272,2.0966,2.2679,2.4304,2.5906,2.7484,2.8149,2.8973,2.9989,2.9277,2.8945,2.8947,2.8141,2.7523,2.7086,2.7281,2.7209,2.7002,2.7067,2.6854,2.6384,2.5588,2.4736,2.3913,0.0,0.0,0.0,0.0,0.0,0.0,0.0,0.0,0.0,0.0,0.0,0.0,0.0,0.0,0.0,0.0,0.0,0.0,0.0,0.0,0.0,0.0,0.0,0.0,0.0,0.0,0.0,0.0,0.0,0.0,0.0,0.0,3.6307,3.6144,3.6991,3.7805,3.826,3.8749,3.8993,3.883,3.87,3.8646,3.8646,3.8103,3.7696,3.7512,3.7485,3.7404,3.7262,3.7425,3.7485,3.7485,3.794,3.8157,3.8157,3.9047,3.9454,3.9481,3.9893,4.011,4.011,4.03,4.0354,4.0354,4.0544,4.049,4.0246,3.9188,3.883,3.8857,3.9292,3.973,4.0137,0.0,1.5142,1.5176,1.5176,1.5131,1.5142,1.5278,1.5637,1.6683,1.887,1.976,2.0787,2.236,2.3366,2.3474,2.2421,2.29,2.2806,2.1675,2.1536,2.2459,2.4581,2.5893,2.7261,2.8757,2.9271,2.9729,3.0204,2.9729,2.9529,2.96,2.8674,2.8119,2.7988,2.7921,2.7828,2.7751,2.7968,2.7947,2.7774,2.7456,2.6632,2.5606,2.5774,2.5529,2.5078,2.502,2.4575,2.4198,2.5255,0.0,0.0,0.0,0.0,0.0,0.0,0.0,0.0,0.0,0.0,0.0,0.0,0.0,0.0,0.0,0.0,0.0,0.0,0.0,0.0,0.0,0.0,0.0,0.0,3.6578,3.7718,3.7718,3.8342,3.8912,3.9264,3.9292,3.94,3.9644,3.9373,3.9156,3.9156,3.8591,3.813,3.7886,3.7886,3.7886,3.7886,3.8374,3.8618,3.8618,3.9215,3.9513,3.9541,4.0241,4.0567,4.0594,4.0924,4.1086,4.1086,4.1086,4.1086,4.1086,4.1086,4.1086,0.0,0.0,0.0,0.0,0.0,4.0811,4.1086,1.5165,1.5233,1.5301,1.5278,1.5187,1.5176,1.5336,1.5729,1.6828,1.9128,2.012,2.1081,2.2292,2.3865,2.4385,2.3262,2.4361,2.4819,2.4072,2.4136,2.4982,2.6715,2.6926,2.7815,2.955,2.9573,2.9825,3.0285,2.9757,2.9734,3.017,2.8743,2.8386,2.8858,2.8121,2.8074,2.8575,2.8988,2.8964,2.873,2.9179,2.8492,2.7254,2.7439,2.7172,2.6676,2.6487,2.6013,2.5749,2.7496,0.0,0.0,0.0,0.0,0.0,0.0,0.0,0.0,0.0,0.0,0.0,0.0,0.0,0.0,0.0,0.0,0.0,0.0,0.0,0.0,0.0,0.0,0.0,0.0,3.8125,3.9319,3.94,3.94,3.94,3.94,3.94,3.9644,4.0241,4.0237,4.021,4.021,3.9699,3.9183,3.8618,0.0,0.0,0.0,0.0,4.0296,4.0296,4.0838,4.1086,4.1086,4.1168,4.1195,4.1195,4.1276,4.133,4.1385,4.1385,4.1439,4.1493,4.1493,4.1493,4.1493,4.1276,4.1222,4.1303,4.1385,4.1385,4.1412,1.5359,1.5278,1.5267,1.5153,1.5222,1.5383,1.5717,1.6261,1.7644,2.0448,2.1894,2.3409,2.5405,2.6384,2.6294,2.4817,2.4703,2.4354,2.3509,2.5146,2.6499,2.7227,2.8349,2.9296,3.0055,3.0055,3.0308,3.0835,2.994,2.9734,3.017,2.8699,2.8495,2.9348,2.8768,2.8901,2.954,2.9453,2.9351,2.9249,2.9128,2.8621,2.8,2.8265,2.815,2.7885,2.7821,2.7551,2.7559,2.977,2.959,2.8757,3.0877,3.0642,0.0,0.0,0.0,0.0,0.0,0.0,0.0,0.0,0.0,0.0,0.0,0.0,0.0,0.0,0.0,0.0,0.0,0.0,0.0,3.6551,3.8125,3.9481,3.9943,4.0024,4.0024,4.0024,4.0024,4.0241,4.0865,4.0485,4.021,4.021,4.0101,3.997,3.9861,4.0323,4.0571,4.0571,4.0788,4.0924,4.0924,4.1032,4.1086,4.1113,0.0,0.0,4.1842,4.2331,4.2819,4.3278,4.3278,4.3552,4.4013,4.4013,4.4013,4.3877,4.2412,4.2114,4.2602,4.3115,4.3278,4.3359,1.6101,1.6055,1.6031,1.5972,1.596,1.6052,1.6306,1.7005,1.8326,2.0657,2.21,2.3398,2.4748,2.5567,2.5298,2.3539,2.3664,2.3972,2.4337,2.605,2.7556,2.874,2.9733,3.0239,3.0193,3.0445,3.0721,3.0996,2.9986,2.9871,3.056,2.9055,2.8758,2.9504,2.9215,2.9304,2.9681,2.9935,2.9817,2.9464,2.9851,2.9422,2.8636,2.8918,2.8931,2.8858,2.9285,2.9298,2.9482,3.1893,3.2009,3.1447,3.3175,3.2935,3.1758,0.0,0.0,0.0,0.0,0.0,0.0,0.0,0.0,0.0,0.0,0.0,0.0,0.0,0.0,3.4531,3.5147,0.0,3.7344,3.8233,3.9156,3.9943,4.0567,4.0648,4.0648,4.0648,4.0648,4.0892,4.1466,4.1272,4.1218,4.154,4.1567,4.1567,4.1567,4.1544,4.1547,4.1547,4.1547,4.1547,4.1547,4.2141,4.2439,4.2466,4.3063,4.3362,4.3362,4.366,4.3959,4.423,4.423,4.442,4.4719,4.4719,4.4719,4.461,4.3715,4.3552,4.3823,4.4122,4.423,4.4284,1.72,1.7301,1.7304,1.698,1.6946,1.7019,1.7211,1.7793,1.8895,2.0713,2.1778,2.2702,2.3559,2.4138,2.3803,2.2139,2.2981,2.4173,2.5478,2.7139,2.8785,3.0308,3.0882,3.095,3.0537,3.0813,3.1065,3.1157,3.0032,2.9963,3.0813,2.9366,2.893,2.9343,2.9343,2.9412,2.9549,3.0141,3.0096,2.9709,3.0505,3.0202,2.9259,2.9456,2.9468,2.9449,3.0327,3.0629,3.0946,3.334,3.3787,3.3542,3.4755,3.4405,3.3321,3.1977,3.1808,0.0,0.0,0.0,0.0,0.0,0.0,0.0,0.0,3.3395,3.3566,3.4694,3.5425,3.6151,3.7121,3.7778,3.8673,4.0133,4.035,4.0594,4.1168,4.1385,4.1466,4.1625,4.1412,4.1571,4.2276,4.2358,4.2602,4.3199,4.3253,4.3253,4.3253,4.2792,4.2575,4.2711,4.2711,4.2765,4.2873,4.3739,4.4146,4.4146,4.4529,4.4719,4.4719,4.4719,4.4773,4.4881,4.499,4.5044,4.5044,4.5044,4.5044,4.5044,4.5044,4.5044,4.5044,4.4908,4.4881,4.4881,1.8671,1.9146,1.9031,1.7654,1.7906,1.8389,1.872,1.8523,1.9202,2.1541,2.1675,2.2425,2.4732,2.4582,2.3996,2.3197,2.4577,2.5683,2.6069,2.8939,3.0698,3.0881,3.141,3.1686,3.1617,3.1203,3.1226,3.1709,3.0238,2.978,3.0262,2.9206,2.8723,2.8792,2.8792,2.9045,2.9504,2.9572,2.9825,3.0147,3.0238,3.0192,3.0078,3.01,2.9681,2.9172,3.0097,3.0622,3.1162,3.3253,3.4177,3.4797,3.6469,3.5707,3.4262,3.4599,3.3136,3.1341,3.107,3.163,3.2662,3.4144,3.4523,3.5201,0.0,3.7691,3.7262,3.845,3.9183,3.9617,3.9775,4.0296,4.0761,4.0951,4.1005,4.1195,4.1815,4.2358,4.2925,4.3441,4.2548,4.2358,4.3495,4.3603,4.3848,4.4447,4.4501,4.4501,4.4501,4.4447,4.4637,4.518,4.518,4.5424,4.5993,4.5613,4.5397,4.537,4.4908,4.4719,4.4719,4.4719,4.499,4.5533,4.6074,4.6291,4.6291,4.6291,4.6291,4.6291,4.6291,4.6291,4.6237,4.5695,4.5478,4.556,1.8444,1.9469,2.0124,1.9455,1.9585,1.9712,1.9497,1.9889,2.047,2.1212,2.1432,2.1933,2.3111,2.2764,2.221,2.1677,2.401,2.5583,2.5726,2.9032,3.0996,3.0996,3.1777,3.2077,3.1801,3.187,3.187,3.1801,3.0836,3.0468,3.0629,2.9642,2.916,2.916,2.916,2.9297,2.9527,2.9802,3.0032,3.0193,3.0193,3.0193,3.0261,3.0801,3.0366,2.9664,3.1065,3.2005,0.0,3.42,3.5042,3.5561,3.5949,3.548,3.4755,3.427,3.3462,3.2982,3.4359,3.4492,3.4597,3.6015,3.6374,3.6699,3.7968,3.7859,3.794,3.9509,3.9997,4.0296,4.0675,4.0924,4.1195,0.0,4.1924,4.2358,4.2979,4.3552,4.404,4.4284,4.3877,4.3769,4.4257,4.4312,4.4556,4.518,4.5533,4.5911,4.6264,4.5938,4.5884,4.6128,4.5424,4.537,4.5993,4.6074,4.6291,4.6644,4.6727,4.6727,4.6727,4.6401,4.64,4.6644,4.6916,4.7214,4.7486,4.716,4.7024,4.697,4.6644,4.6873,4.7256,4.6444,4.649,4.6952,1.8562,1.9823,2.0888,2.0888,2.1029,2.1004,2.0566,2.1069,2.1368,2.1014,2.1172,2.1406,2.167,2.1419,2.1118,2.0811,2.3321,2.5129,2.5578,2.8807,3.0835,3.1226,3.203,3.2421,3.2215,3.226,3.2121,3.1801,3.1111,3.0767,3.0744,3.0032,2.955,2.9297,2.9435,2.9412,2.932,2.9802,3.0078,3.0193,3.0193,3.0193,3.0283,3.0849,3.0636,3.0181,3.1836,3.2682,3.31,3.3861,3.4522,3.496,3.4522,3.4121,3.382,3.3564,3.3466,3.3857,3.5784,3.5994,3.5988,3.7208,3.7886,3.8239,3.8239,3.8374,3.8863,4.0187,4.0567,4.0811,4.1249,4.1625,4.2005,4.2439,4.3009,4.3552,4.3984,4.4556,4.4963,4.4963,4.5098,4.5207,4.5207,4.5044,4.5261,4.6047,4.6346,4.6834,4.7595,4.7079,4.6889,4.7214,4.6374,4.6211,4.6808,4.7079,4.7459,4.7866,4.8083,4.8192,4.8192,4.7812,4.7622,4.7622,4.7622,4.8028,4.8625,4.8268,4.8151,4.8247,4.7996,4.8126,4.8374,4.7838,4.7987,4.8349,1.9759,2.0623,2.1376,2.1376,2.1863,2.2255,2.2227,2.1821,2.1472,2.1381,2.0882,2.0749,2.1342,2.1517,2.163,2.1746,2.3163,2.4654,2.6069,2.8538,3.0479,3.1734,3.2237,3.2743,3.3249,3.2235,3.1754,3.1801,3.0744,3.0216,3.0216,3.0193,2.9665,2.8746,2.9274,2.9206,2.8746,2.9297,2.978,3.0193,3.0193,3.0193,3.0169,2.9936,3.0035,3.0508,3.2022,3.187,3.0947,3.1299,3.182,3.2327,3.23,3.1494,3.0953,3.3079,3.3292,3.3014,3.3796,3.4829,3.5988,3.7208,3.883,4.0128,4.0128,4.0567,4.1005,4.1059,4.152,4.1951,4.1978,4.2952,4.3712,4.3739,4.4257,4.4664,4.4664,4.518,4.556,4.556,4.6101,4.6454,0.0,4.5938,4.6074,4.7242,4.6807,4.6998,4.8137,4.7649,4.7893,4.8978,4.8978,4.9249,4.9874,4.9304,4.9032,4.9032,4.849,4.8192,4.8192,4.8164,4.8192,4.8192,4.8192,4.8814,4.9848,4.9848,5.0101,5.0573,5.1203,5.0656,4.9615,5.0254,5.0079,4.9557,2.0315,2.1302,2.2194,2.2591,2.3447,2.3811,2.3012,2.2383,2.2012,2.2013,2.1821,0.0,0.0,0.0,0.0,0.0,2.3913,2.5392,2.6514,2.8586,3.0198,3.1112,3.1716,3.2123,3.2306,3.1962,3.1593,3.1272,3.0928,3.0537,3.0193,2.9894,2.955,2.9228,2.9045,2.9068,2.9251,2.9412,2.978,3.0193,3.0193,3.0093,3.003,3.0967,3.0288,2.9039,0.0,3.0601,3.0011,3.0531,3.1097,3.1746,3.2583,3.1993,3.114,3.1828,3.3072,3.4463,3.538,3.6545,3.7778,3.8993,4.0051,4.0811,4.0811,4.0951,4.1195,4.1625,4.152,4.1652,4.2439,4.2952,4.3332,4.3739,4.4662,4.5288,4.5288,4.583,4.621,4.621,4.6726,0.0,0.0,0.0,0.0,4.735,4.7541,4.7975,4.8761,4.8653,4.868,4.9087,4.8707,4.8788,4.9385,4.9195,4.9304,4.9683,4.9493,4.9168,4.8815,4.8815,4.8815,4.8815,4.8815,4.9666,5.1055,5.0661,5.1036,5.1889,5.2173,5.2402,5.2709,5.3212,5.3382,5.3026,2.0872,2.172,2.2538,2.3175,2.3877,0.0,0.0,0.0,0.0,0.0,0.0,0.0,0.0,0.0,0.0,0.0,0.0,2.5553,2.6786,2.7997,2.9307,3.0698,3.0961,3.1158,3.1325,3.1181,3.1037,3.0893,3.0341,3.0141,3.0208,2.9533,2.9195,2.9215,2.9056,2.9189,2.9503,2.9647,3.001,3.0451,3.015,3.0055,3.0179,3.1009,3.0125,0.0,2.9419,2.9512,2.9132,2.8872,2.9333,3.0201,3.1288,3.178,3.1965,3.2182,3.3671,3.5495,3.6827,3.7939,3.8998,4.0214,4.0974,4.1466,4.1707,4.1924,4.2249,4.2846,4.2331,4.1978,4.2738,4.3088,4.3278,4.3441,4.4474,4.5343,4.556,4.5938,4.6346,4.6753,4.735,4.7676,0.0,0.0,0.0,4.7975,4.811,4.8571,4.9385,4.9222,4.9195,4.9412,4.906,4.9032,4.9412,4.9412,4.9602,5.001,5.0652,5.0766,5.0409,5.1072,5.1348,5.1348,5.1348,5.2202,5.3596,5.322,5.3509,5.426,5.4548,5.4724,5.4874,5.5586,5.5709,5.5171,2.1485,2.2016,2.2591,0.0,0.0,0.0,0.0,0.0,0.0,0.0,0.0,0.0,0.0,0.0,0.0,0.0,0.0,0.0,2.6833,2.6865,2.7954,3.0488,3.0054,2.9957,3.0421,2.9957,2.999,3.0598,2.914,2.907,3.0257,2.9218,2.872,2.8723,2.9218,2.9443,2.9473,2.9883,3.0398,3.0864,3.0015,3.0044,3.0548,3.0113,2.9548,2.8995,2.8765,2.8627,2.8302,2.6607,2.6921,2.815,2.8861,3.106,3.348,3.4115,3.5032,3.6235,3.8018,3.8988,3.9753,4.0897,4.1652,4.2249,4.2846,4.3441,4.3984,4.4552,4.3734,4.2916,4.2913,4.343,4.365,4.3136,4.4038,4.5044,4.5641,4.5723,4.6183,0.0,0.0,0.0,0.0,0.0,0.0,4.9087,0.0,4.8734,4.9927,4.9439,4.9412,4.9954,4.9982,5.001,5.001,5.0093,5.0149,5.0176,5.1906,5.2769,5.2879,5.455,5.5327,5.5382,5.5382,5.6057,5.7086,5.7086,5.7221,5.7448,5.817,5.7506,5.6241,5.7401,5.7069,5.6081,0.0,0.0,0.0,0.0,0.0,0.0,0.0,0.0,0.0,0.0,0.0,0.0,0.0,0.0,0.0,0.0,0.0,0.0,2.6311,2.6828,2.7702,2.9065,2.9052,2.9126,2.9385,2.8836,2.8755,2.9195,2.8985,2.9178,2.9831,2.9322,2.9003,2.8836,2.8631,2.866,2.891,2.8997,2.942,2.9985,2.9621,2.977,3.0262,3.0492,3.0057,2.9426,2.9791,2.9072,2.7922,2.7922,2.9932,3.2556,3.3102,3.4834,3.6685,3.6766,3.7901,3.9257,3.9747,4.089,4.2083,4.2358,4.2873,4.3495,4.4094,4.4366,4.443,4.4366,4.3732,4.3199,4.3246,4.3719,4.4272,4.4881,4.5946,4.6889,4.7459,4.7541,0.0,4.7948,0.0,4.887,4.887,4.9276,0.0,0.0,4.9195,4.9112,4.9671,4.9761,4.9734,4.9698,4.9897,5.001,5.001,5.1321,5.224,5.2686,5.2882,5.3584,5.4688,5.4004,5.4311,5.5382,5.5382,5.6057,5.7086,5.7086,5.7621,5.8477,5.9153,5.919,5.8899,5.9497,5.9082,5.823,0.0,0.0,0.0,0.0,0.0,0.0,0.0,0.0,0.0,0.0,0.0,0.0,0.0,0.0,0.0,0.0,0.0,0.0,0.0,2.6562,2.7237,2.8357,2.8475,2.8446,2.8338,2.7955,2.8009,2.8585,2.7916,2.8131,2.9169,2.8263,2.789,2.8002,2.7749,2.7996,2.8606,2.8568,2.9079,0.0,0.0,2.9871,3.0414,3.0866,3.0699,3.03,3.0364,3.0093,2.9953,3.1938,3.3622,3.4948,3.5217,3.6849,3.8715,3.8846,3.9802,4.0894,4.1372,4.2387,4.3305,4.3305,4.3766,4.4303,4.4655,4.473,4.4685,4.4498,4.3783,4.3297,4.3607,4.4111,4.465,4.5257,4.6266,4.7214,4.7785,4.7812,4.7948,0.0,4.8974,0.0,4.9325,4.9623,4.9868,0.0,4.9683,4.9573,4.9783,4.9925,5.0004,4.9932,5.0103,5.0239,5.0365,5.2012,5.3051,5.3416,5.468,5.5761,5.6576,5.6516,5.6932,5.7769,0.0,5.8113,5.872,5.872,5.9035,5.9558,6.0188,6.0445,6.0602,6.1278,6.1189,6.0796,0.0,0.0,0.0,0.0,0.0,0.0,0.0,0.0,0.0,2.3554,2.2889,2.2835,0.0,0.0,0.0,0.0,0.0,0.0,0.0,0.0,2.6752,2.8005,2.8115,2.7956,2.7481,2.7266,2.7488,2.8079,2.6607,2.6709,2.8298,2.69,2.6487,2.6919,2.6919,2.7477,2.8391,2.8326,2.8968,2.9989,2.9781,3.0084,3.073,0.0,3.1341,3.1341,3.0744,3.1341,3.2917,3.6211,3.6824,3.6295,3.6601,3.8223,4.0125,4.0668,4.1224,4.1844,4.2849,4.3522,4.3929,4.4011,4.442,4.4838,4.4896,4.4886,4.4858,4.4889,4.3945,4.3336,4.3896,4.4347,4.4712,4.5014,4.5911,4.6862,4.7622,4.7676,4.7947,4.8779,4.9342,4.9719,4.9719,4.9716,4.9855,5.0084,5.0112,5.0085,4.9977,5.0058,5.03,5.0727,5.0783,5.0995,5.1529,5.3016,5.3811,5.3923,5.6797,5.8248,5.849,5.9888,6.0612,6.0794,6.0834,6.0896,6.0896,6.0936,6.081,6.0652,6.117,6.1462,6.1694,6.2685,6.3012,6.3092,0.0,0.0,0.0,0.0,0.0,0.0,0.0,0.0,0.0,0.0,2.4055,2.331,0.0,0.0,0.0,0.0,0.0,0.0,0.0,0.0,0.0,2.7275,2.7711,2.7757,2.7347,2.6835,2.6556,2.6494,2.6348,2.6665,2.7344,2.7182,2.7088,2.708,2.708,2.7354,2.7851,2.783,2.8298,2.9078,2.941,2.9956,3.0685,3.114,0.0,0.0,3.1341,3.2191,3.3764,3.4924,3.6491,3.8297,4.0314,4.1251,4.1808,4.2893,4.3282,4.353,4.4199,4.4474,4.4664,4.5153,4.537,4.5465,4.5536,4.531,4.5141,4.5273,4.4254,4.3491,4.3977,4.3855,4.4149,4.5721,4.6503,4.7514,4.9304,4.9549,4.9602,0.0,5.0076,5.0253,5.0253,5.0447,0.0,0.0,5.0682,5.0468,5.0017,5.0415,5.1269,5.2596,5.2624,5.3528,5.5334,5.6604,5.7466,5.7971,5.828,5.9098,6.0298,5.9352,5.9599,6.0824,6.1147,0.0,6.1321,6.1599,6.1676,6.1676,6.2058,6.2334,6.2614,6.3065,6.3237,6.3251,0.0,0.0,0.0,0.0,0.0,0.0,0.0,2.5315,2.5926,2.7135,2.6565,2.6008,2.5981,2.6225,2.6279,0.0,0.0,0.0,0.0,0.0,0.0,0.0,0.0,0.0,0.0,0.0,0.0,0.0,0.0,2.624,2.6454,2.6215,2.6078,2.6018,2.6018,2.6301,2.6782,2.7093,2.779,2.8779,2.9611,3.0361,3.1011,0.0,0.0,0.0,3.2594,3.3125,3.3791,3.5705,3.7476,3.9183,4.0951,4.2168,4.309,4.3986,4.4257,4.4393,4.499,4.518,4.5234,4.5533,4.6074,4.6414,4.5916,4.593,4.5738,4.4731,4.4014,4.3517,4.3212,4.3458,4.4017,4.4947,4.6427,4.7783,4.873,4.9405,4.9835,4.9986,4.9937,5.035,5.1488,5.1702,5.2185,5.3104,5.2575,5.2054,5.1629,5.2757,5.375,5.4487,5.463,5.5225,5.6246,5.7605,5.8435,5.8763,5.9612,6.0388,6.1085,6.0533,6.0657,6.1393,6.1756,6.199,6.215,6.2515,6.2687,6.2875,6.3331,6.3706,6.407,6.4492,6.4821,6.5029,0.0,0.0,0.0,0.0,0.0,0.0,2.6632,2.693,2.7526,2.898,2.9187,2.9007,2.8519,2.8139,2.7635,0.0,0.0,0.0,0.0,0.0,0.0,0.0,0.0,0.0,0.0,0.0,0.0,0.0,0.0,0.0,0.0,0.0,0.0,0.0,2.5263,2.5588,2.6336,2.6794,2.7689,0.0,0.0,3.088,0.0,0.0,0.0,0.0,0.0,3.3426,3.3329,3.6213,3.7769,3.8776,4.0246,4.2032,4.3739,4.4312,4.4501,4.4691,4.5558,4.5695,4.5641,4.5938,4.6699,4.7122,4.6026,4.626,4.6094,4.4037,4.36,4.3352,4.2547,4.2946,4.3559,4.3902,4.5835,4.7406,4.7756,4.8863,4.9751,5.0043,4.9955,0.0,5.2234,5.272,0.0,5.4961,5.4828,5.4281,5.3322,5.4941,5.61,5.6495,5.6705,5.7023,5.7422,5.8628,5.9235,5.9235,6.0789,6.1496,6.1527,6.1771,6.1956,6.2123,6.2439,6.2829,6.3148,6.349,6.3765,6.3972,6.4476,6.49,6.5318,6.5868,6.6321,6.6665,0.0,0.0,0.0,0.0,0.0,0.0,2.6632,2.7282,2.8421,3.0744,3.1042,3.1015,3.0961,2.9496,2.8275,0.0,0.0,0.0,0.0,0.0,0.0,0.0,0.0,0.0,0.0,0.0,0.0,0.0,0.0,0.0,0.0,0.0,0.0,0.0,0.0,0.0,2.7542,2.7581,0.0,0.0,0.0,0.0,0.0,0.0,0.0,0.0,0.0,3.2355,3.259,3.4457,3.5496,3.6422,3.8749,4.1082,4.3115,4.3712,4.3875,4.4255,4.5966,4.602,4.5884,4.6943,4.7323,4.7047,4.5669,4.5874,4.5774,4.3729,4.3104,4.2845,4.2756,4.209,4.1994,4.3329,4.4519,4.5903,4.7622,4.8927,4.9882,5.0309,0.0,0.0,5.1323,5.2815,5.3862,5.4041,5.6852,5.7196,5.4009,5.5332,5.6964,5.8732,5.882,5.9648,6.136,6.1528,6.161,6.161,6.1753,6.1838,6.1868,6.1871,6.2201,6.2749,6.3146,6.364,0.0,6.4501,6.4693,6.4721,6.508,6.5413,6.5714,6.6306,6.6738,6.7005,0.0,0.0,0.0,0.0,0.0,0.0,2.8193,2.8329,2.9241,3.201,3.1766,3.1422,3.1793,3.0853,2.9686,2.8356,0.0,0.0,0.0,0.0,0.0,0.0,0.0,0.0,0.0,0.0,0.0,0.0,0.0,0.0,0.0,0.0,0.0,0.0,0.0,0.0,0.0,0.0,0.0,0.0,0.0,0.0,0.0,0.0,0.0,0.0,0.0,0.0,3.2409,3.3878,3.497,3.5859,3.6824,3.854,4.0675,4.3088,4.4065,4.4662,4.6101,4.659,4.6807,4.7269,4.7724,4.7839,4.6995,4.6623,4.5961,4.4242,4.3322,4.2514,4.1511,4.1335,4.1375,4.1605,4.3005,4.4582,4.5964,4.7541,4.933,5.135,5.2045,5.3198,0.0,0.0,5.711,5.7336,5.9464,5.9776,5.7452,5.8775,5.9991,6.0761,6.0789,6.1132,6.1901,6.1901,6.1901,6.1874,6.2133,6.2345,6.2508,6.2933,6.3338,6.381,6.4334,6.4754,0.0,6.5498,6.5758,6.5889,6.6027,6.6241,6.6501,6.6744,6.7005,6.7265,0.0,0.0,0.0,0.0,0.0,2.7418,2.9214,2.9132,2.9893,3.2735,3.22,3.1793,3.239,3.1766,3.0771,2.9512,2.9078,0.0,0.0,0.0,0.0,0.0,0.0,0.0,0.0,0.0,0.0,0.0,0.0,0.0,0.0,0.0,0.0,0.0,0.0,0.0,0.0,0.0,0.0,0.0,0.0,0.0,0.0,0.0,0.0,0.0,0.0,0.0,0.0,0.0,0.0,3.5451,3.5641,3.6688,3.8559,4.1978,4.3416,4.4284,4.602,4.6943,4.7459,4.7812,4.7997,4.7897,4.7301,4.6584,4.5539,4.376,4.3081,4.2342,4.0921,4.1012,4.1142,4.0749,4.2392,4.3983,4.4699,4.6517,4.8709,5.12,5.1874,5.3522,5.7059,5.8614,5.9692,6.0363,6.1445,6.1593,6.0518,6.1577,6.2196,6.2097,6.2067,6.2133,6.2259,6.2259,6.2259,6.2259,6.2632,6.29,6.3096,6.3748,6.427,6.4688,6.5214,6.565,0.0,6.6434,6.6769,6.7066,6.7181,6.7377,6.761,6.7688,6.7793,6.7924,0.0,0.0,0.0,0.0,0.0,0.0,2.9214,2.9485,3.0371,3.2789,3.2572,3.2418,3.3033,3.201,3.1287,3.126,3.0191,0.0,0.0,0.0,0.0,0.0,0.0,0.0,0.0,0.0,3.0749,3.1469,3.1937,3.1847,0.0,0.0,0.0,0.0,0.0,0.0,0.0,0.0,0.0,0.0,0.0,0.0,3.3088,0.0,0.0,0.0,0.0,0.0,0.0,0.0,0.0,0.0,0.0,3.6117,3.7202,4.0246,4.1571,4.2683,4.5694,4.6943,4.7676,4.8788,4.8028,4.6786,4.5902,4.535,4.4307,4.1834,4.2112,4.2504,4.1498,4.1299,4.1299,4.1273,4.2988,4.4318,4.4385,4.6305,4.8128,4.931,4.9687,5.1147,5.4516,5.8027,6.0731,6.2256,6.2458,0.0,6.2483,6.2862,6.2893,6.2516,6.2485,6.2675,6.3078,6.3078,6.3078,6.3078,6.3337,6.348,6.3508,6.4101,6.4715,6.5297,6.5565,6.6054,0.0,6.7313,6.7784,6.8118,6.8522,6.8861,6.9099,6.9367,6.9313,6.9153,0.0,0.0,0.0,0.0,0.0,0.0,0.0,2.9485,3.0235,3.2218,3.1956,3.1983,3.2979,3.239,3.1929,3.1929,3.0798,0.0,0.0,0.0,0.0,0.0,0.0,0.0,0.0,0.0,3.0707,3.1375,3.1105,3.107,3.1287,3.088,3.0798,0.0,0.0,0.0,0.0,0.0,0.0,0.0,0.0,3.3088,3.3142,0.0,0.0,0.0,0.0,0.0,0.0,0.0,0.0,0.0,0.0,0.0,0.0,3.9102,4.0456,4.1558,4.3563,4.4854,4.5713,4.6062,4.5893,4.5552,4.5285,4.433,4.3278,4.2487,4.2041,4.1696,4.1374,4.1299,4.1455,4.1872,4.2453,4.3496,4.5296,4.7951,5.0716,5.3576,5.6746,5.9185,6.0567,6.1702,6.2668,6.3434,6.3284,6.3178,6.3178,6.3304,6.3248,6.2923,6.2893,6.307,6.3367,6.3367,6.3565,6.3991,6.4045,6.457,6.5419,6.5781,6.6447,6.73,6.7601,6.7954,6.8335,6.8557,6.8808,6.9047,6.8982,6.9131,6.9372,6.9265,6.9292,6.9399,0.0,0.0,0.0,0.0,0.0,0.0,0.0,2.9084,2.9646,3.1199,3.1218,3.155,3.2755,3.248,3.2282,3.2517,3.1657,0.0,0.0,0.0,0.0,0.0,0.0,0.0,0.0,3.0744,3.1151,3.1983,3.1603,3.1603,3.1983,3.1603,3.1522,3.163,3.1232,0.0,0.0,0.0,0.0,0.0,3.3096,3.3286,3.3169,0.0,0.0,0.0,0.0,0.0,0.0,0.0,0.0,0.0,0.0,0.0,0.0,0.0,3.933,4.0679,4.2877,4.4214,4.4992,4.5101,4.4799,4.4435,4.4435,4.3291,4.2235,4.2235,4.1746,4.1299,4.1299,4.1399,4.1579,4.1945,4.251,4.3699,4.5934,4.8714,5.1923,5.5713,5.9797,6.2396,6.2663,6.337,6.3926,6.4328,6.4149,6.4101,6.4185,6.4371,6.4348,6.4205,6.3693,6.3716,6.4213,6.4213,6.459,6.5343,6.5456,6.5951,6.6716,6.7076,6.7684,6.8394,6.8726,6.8997,0.0,6.9552,6.9836,7.0049,6.9935,7.0143,7.0407,7.0035,7.0008,7.0143,0.0,0.0,0.0,0.0,0.0,0.0,0.0,2.8462,2.8882,2.9966,3.0483,3.1197,3.2345,3.2305,3.2418,3.2979,0.0,0.0,0.0,0.0,0.0,0.0,0.0,0.0,0.0,3.1341,3.1902,3.3033,3.3088,3.3088,3.3088,3.3142,3.2843,3.2255,3.2255,3.2227,0.0,0.0,0.0,0.0,3.3357,3.3466,0.0,0.0,0.0,0.0,0.0,0.0,0.0,0.0,0.0,0.0,0.0,0.0,0.0,0.0,0.0,0.0,0.0,4.4527,4.5014,4.5341,4.4386,4.3333,4.3333,4.2285,0.0,4.1299,4.1299,4.1324,4.1324,4.1522,4.1723,4.1774,4.3146,4.4811,4.6571,4.9339,5.2596,5.6456,5.9743,6.1741,6.1714,6.3397,6.4671,6.5014,6.5061,6.5197,6.5452,6.5835,6.6024,6.6024,6.4839,6.4617,6.5423,6.5452,6.5959,6.6915,6.7285,6.7514,6.7573,6.8075,6.852,0.0,6.9097,6.9366,6.9692,7.0364,7.0786,7.1065,7.1169,7.1534,7.197,7.1397,7.1175,7.1175,0.0,0.0,0.0,0.0,0.0,0.0,0.0,0.0,0.0,0.0,3.0795,3.1433,3.2208,3.2227,3.2255,0.0,0.0,0.0,0.0,0.0,0.0,0.0,0.0,0.0,0.0,3.1983,3.2119,3.239,3.287,3.3088,3.3115,3.3512,3.343,3.2898,3.2898,3.2626,0.0,0.0,0.0,0.0,3.2481,3.2526,0.0,0.0,0.0,0.0,3.4388,3.4694,0.0,0.0,0.0,0.0,0.0,0.0,0.0,0.0,3.9431,4.0079,4.1758,0.0,4.2531,4.2613,4.2254,4.1817,0.0,4.1557,4.1299,4.1299,4.1299,4.1374,4.1572,4.1647,4.193,4.258,4.4038,4.6215,4.9411,5.5083,5.9603,6.1534,6.3152,6.4015,6.3764,6.485,6.5788,6.6368,6.6208,6.6097,6.6155,6.625,6.6313,6.6313,6.6239,6.609,6.5839,6.604,6.6533,6.7198,6.7731,6.8402,6.9154,6.9292,6.9691,7.0311,7.0367,7.0561,7.0804,7.0995,7.1224,7.1442,7.1278,7.1286,7.1369,7.1009,7.0901,7.0901,0.0,0.0,0.0,0.0,0.0,0.0,0.0,0.0,0.0,0.0,0.0,3.0628,3.1296,3.1863,0.0,0.0,0.0,0.0,0.0,0.0,0.0,0.0,0.0,0.0,3.2173,3.22,3.2472,3.2996,3.3322,3.362,3.3865,3.3927,3.3647,3.3088,3.2816,3.2517,0.0,0.0,0.0,3.2635,3.2888,0.0,0.0,0.0,0.0,0.0,3.4657,3.4982,0.0,3.5696,3.6182,3.6524,0.0,0.0,0.0,0.0,3.9704,4.0301,4.1304,4.1761,4.179,4.1404,4.1388,4.1473,4.1473,4.1473,4.1522,4.1647,4.1572,4.1721,4.2406,4.3638,4.4584,4.4553,4.7328,5.0515,5.3486,5.7758,6.128,6.3223,6.4181,6.4908,6.5494,6.6037,6.6519,6.686,6.7024,6.7091,6.7091,6.7396,6.7549,6.7549,6.7839,6.7859,6.7522,6.752,6.8044,6.9092,6.9287,6.9671,7.0216,7.0216,7.0493,7.0981,7.0981,7.112,7.1397,7.1397,7.1479,7.1589,7.1314,7.1286,7.1341,7.0925,7.0901,7.0985,0.0,0.0,0.0,0.0,0.0,0.0,0.0,0.0,0.0,0.0,0.0,0.0,0.0,0.0,0.0,0.0,0.0,0.0,0.0,0.0,0.0,0.0,0.0,3.1702,3.2209,3.2218,3.2689,3.3675,3.3884,3.4244,3.4775,3.4454,3.393,3.3224,3.2689,3.2363,0.0,0.0,3.3088,3.3142,3.3683,0.0,0.0,0.0,0.0,0.0,0.0,0.0,0.0,3.6141,3.6587,3.6789,3.7096,0.0,0.0,0.0,0.0,0.0,4.1281,4.2021,4.2362,4.1267,4.1352,4.1696,4.1696,4.1721,4.182,4.2018,4.1895,4.227,4.3881,4.6097,4.7592,4.7284,5.1544,5.5715,5.791,5.9595,6.1417,6.3562,6.4376,6.5315,6.6711,6.6983,6.7104,6.7196,6.7721,6.8029,6.8029,6.8581,6.8919,6.8919,6.9209,6.942,6.9511,6.9199,6.9706,7.112,7.0897,7.0817,7.0873,7.0817,7.0897,7.1148,0.0,0.0,7.1479,7.1479,7.1479,7.1452,7.1231,7.1286,7.1424,7.0985,7.0925,7.1124,0.0,0.0,0.0,0.0,0.0,0.0,0.0,0.0,0.0,0.0,0.0,0.0,0.0,0.0,0.0,0.0,0.0,0.0,0.0,0.0,0.0,0.0,3.2119,3.2164,3.2363,3.2246,3.2355,3.2618,3.3694,3.4418,3.4802,3.5474,3.5092,3.3856,3.371,3.3086,3.2227,3.2843,3.3088,3.3142,3.3683,0.0,0.0,0.0,0.0,0.0,0.0,0.0,0.0,3.6109,3.6439,3.6563,3.6599,0.0,0.0,0.0,0.0,0.0,4.0747,4.2854,4.4491,4.2415,4.179,4.1696,4.1696,4.1895,4.1993,4.1796,4.1919,4.3123,4.6637,4.6774,4.7334,5.0477,5.4797,5.8727,6.1546,6.4159,6.5629,6.5233,6.5983,6.6531,6.6545,6.7299,6.7997,6.8551,6.8674,6.8735,6.8735,6.8828,6.8919,6.8919,6.9443,6.9984,7.0484,7.0202,7.0322,7.0782,7.0785,7.0929,7.112,7.0897,7.0817,7.0873,0.0,7.0869,7.0929,7.0929,7.0929,7.0929,7.0901,7.0901,7.0897,7.0845,7.0845,7.0936,0.0,0.0,0.0,0.0,0.0,0.0,0.0,0.0,0.0,0.0,0.0,0.0,0.0,0.0,0.0,0.0,0.0,0.0,0.0,0.0,0.0,0.0,3.2707,3.2591,3.2399,3.2872,3.3445,3.4083,3.5397,3.6198,3.6464,3.5734,3.4807,3.3754,3.3563,3.3103,3.2523,3.3238,3.3653,3.39,0.0,0.0,0.0,0.0,0.0,0.0,0.0,0.0,0.0,0.0,3.6207,3.677,3.677,0.0,0.0,0.0,0.0,0.0,4.0686,4.2176,4.3667,4.3724,4.4573,4.547,4.5659,4.606,4.6089,4.499,4.5454,4.6735,4.9038,5.0589,5.3288,5.856,5.9872,6.1061,6.3411,6.4482,6.5131,6.5447,6.6175,6.6995,6.773,6.8215,6.8581,6.8888,6.8919,6.8919,6.8919,6.8919,6.9065,6.9385,6.9847,7.0517,7.1488,7.1407,7.1386,7.1447,7.1148,7.1255,7.1744,7.1467,7.1547,7.1863,0.0,7.1863,7.1863,7.1863,7.1863,7.1863,7.1863,7.1863,7.1863,7.1863,7.1863,7.1926,0.0,0.0,0.0,0.0,0.0,0.0,0.0,0.0,0.0,0.0,0.0,0.0,0.0,0.0,0.0,0.0,0.0,0.0,0.0,0.0,3.2472,3.3061,3.3088,3.3081,3.3028,3.3807,3.4749,3.5841,3.7058,3.7821,3.8057,3.6348,3.5042,3.4022,3.3757,3.336,3.2947,3.3757,3.4251,3.4525,0.0,0.0,0.0,0.0,0.0,0.0,0.0,0.0,0.0,0.0,0.0,0.0,0.0,0.0,0.0,3.8836,3.975,4.0603,4.0769,4.1817,4.3241,4.4732,4.6104,4.7483,4.8959,4.9318,4.9172,4.8488,4.9307,5.0571,5.1699,5.4981,5.9114,6.4104,6.3718,6.336,6.507,6.495,6.5103,6.6175,6.6727,6.7549,6.8797,6.8919,6.8919,6.8919,6.9043,6.9106,6.9017,6.9319,6.9645,7.0054,7.0605,7.1371,7.233,7.2472,7.2524,7.2453,7.1847,7.1882,7.2475,7.2135,7.2306,7.2811,7.2811,7.2811,7.2811,7.2811,7.2811,7.2811,7.2811,7.2811,7.2811,7.2811,7.2906,7.3064,0.0,0.0,0.0,0.0,0.0,0.0,0.0,0.0,0.0,0.0,0.0,0.0,0.0,0.0,0.0,0.0,0.0,0.0,0.0,0.0,3.2472,3.3061,3.3088,3.368,3.4897,3.5018,3.5668,3.6798,3.7696,3.8308,3.8622,3.8125,3.694,3.5278,3.5245,0.0,0.0,0.0,0.0,3.4559,3.5137,0.0,0.0,0.0,0.0,0.0,0.0,0.0,0.0,0.0,0.0,0.0,0.0,0.0,3.8658,3.8707,3.9876,4.1087,4.0874,4.2984,4.5236,4.5128,4.3831,4.3851,4.8805,4.8668,4.8164,5.0615,5.1872,5.3157,5.5154,5.8554,6.1255,6.1972,6.4087,6.606,6.7446,6.8152,6.8521,6.8614,6.8705,6.8766,6.8889,6.8919,6.8919,6.8919,6.9474,6.9664,6.9365,7.0518,7.1097,7.0827,7.2015,7.2685,7.2745,7.332,7.3571,7.3596,7.2969,7.2857,7.321,7.2892,7.2748,7.2811,7.2811,7.2811,7.2811,7.2811,7.2811,7.2811,7.2811,7.2811,7.2811,7.2811,7.3222,7.3823,0.0,0.0,0.0,0.0,0.0,0.0,0.0,0.0,0.0,0.0,0.0,0.0,0.0,0.0,0.0,0.0,0.0,0.0,0.0,0.0,3.2472,3.3061,3.3403,3.4019,3.4893,3.6028,3.7153,3.8268,3.9043,3.9548,3.9707,3.7833,3.6454,3.5508,0.0,0.0,0.0,0.0,0.0,3.5909,3.5948,3.6033,0.0,0.0,0.0,0.0,0.0,0.0,0.0,0.0,3.642,3.7194,3.7063,3.8057,3.9207,3.8815,3.9759,4.0898,4.0631,4.3304,4.6114,4.5735,4.5527,4.6595,5.1183,5.242,5.2875,5.3974,5.6118,5.8002,5.8806,6.2519,6.5056,6.3906,6.5996,6.7935,6.8458,6.8735,6.8919,6.8919,6.8919,6.9043,6.9474,6.9505,6.96,6.9821,7.0066,7.025,7.031,7.0797,7.1371,7.2052,7.2405,7.2946,7.3733,7.3794,7.4016,7.4458,7.3543,7.341,7.3909,7.362,7.3728,7.4107,7.4107,7.4107,7.4107,7.4107,7.4107,7.4107,7.4107,7.4107,7.4078,7.3871,7.3971,7.4192,0.0,0.0,0.0,0.0,0.0,0.0,0.0,0.0,0.0,0.0,0.0,0.0,0.0,0.0,0.0,0.0,0.0,0.0,3.22,3.22,3.2472,3.3061,3.3601,3.426,3.5066,3.6856,3.8226,3.9173,4.0046,4.041,4.0201,3.7841,3.6545,0.0,0.0,0.0,0.0,0.0,0.0,0.0,3.6517,3.6557,0.0,0.0,0.0,0.0,0.0,0.0,0.0,0.0,3.675,3.7874,3.7612,3.8501,3.9573,3.9433,4.0813,4.2412,4.2208,4.4309,4.67,4.727,4.7495,4.8792,5.353,5.4646,5.5401,5.7855,5.9806,6.1233,6.1943,6.4346,6.5977,6.5327,6.7289,6.8951,6.9166,6.9227,6.9289,6.9505,6.9447,6.9572,7.0002,6.9943,7.0006,7.022,7.0649,7.0924,7.1077,7.1656,7.2352,7.3122,7.3183,7.3609,7.4492,7.4319,7.4455,7.4866,7.4154,7.4048,7.4492,7.429,7.4455,7.4897,7.4897,7.4897,7.4897,7.4897,7.4897,7.4897,7.4778,7.4748,7.4689,7.4389,7.4239,7.4239,0.0,0.0,0.0,0.0,0.0,0.0,0.0,0.0,0.0,0.0,0.0,0.0,0.0,0.0,0.0,0.0,0.0,0.0,3.22,3.22,3.2472,3.3061,3.3601,3.445,3.5662,3.7452,3.87,3.9319,4.049,4.0669,3.9864,3.8385,0.0,0.0,0.0,0.0,0.0,0.0,0.0,0.0,3.6694,3.6871,3.7674,0.0,0.0,0.0,0.0,0.0,0.0,0.0,3.7403,3.8004,3.8527,3.9128,3.9778,4.057,4.3228,4.5943,4.5943,4.6215,4.7096,4.9817,4.924,4.9562,5.5496,5.4521,5.4556,6.2239,6.2605,6.2255,6.4509,6.362,6.3285,6.5527,6.7596,6.9135,6.9813,6.9905,7.0151,7.0828,7.0587,7.0373,7.0404,7.0097,6.9881,6.9942,7.1138,7.1752,7.1444,7.3288,7.4269,7.3905,7.4538,7.4897,7.4897,7.4897,7.4897,7.4897,7.4897,7.4897,7.4897,7.4897,7.4897,7.4897,7.4897,7.4897,7.4897,7.4897,7.4897,7.4867,7.4539,7.4389,7.4359,7.3996,7.3905,7.3905,0.0,0.0,0.0,0.0,0.0,0.0,0.0,0.0,0.0,0.0,0.0,0.0,0.0,0.0,0.0,0.0,0.0,0.0,3.22,3.22,3.2472,3.3061,3.3601,3.407,3.4423,3.6618,3.87,4.0571,4.0329,3.9988,3.9589,0.0,0.0,0.0,0.0,0.0,0.0,0.0,0.0,0.0,3.6935,3.7074,3.7679,0.0,0.0,0.0,0.0,0.0,0.0,0.0,0.0,0.0,3.8658,3.9509,4.0493,4.0724,4.183,4.3015,4.3219,4.6381,4.971,4.9996,5.3204,5.7037,6.0,5.8439,5.8063,6.3928,6.5444,6.5704,6.5614,6.6361,6.692,6.6649,6.8304,6.9843,7.0521,7.0613,7.0584,7.0556,7.0435,7.0465,7.0735,7.0641,7.0886,7.1592,7.2025,7.2521,7.3137,7.372,7.4207,7.4568,7.4808,7.4897,7.4897,7.4897,7.4897,7.4897,7.4897,7.4897,7.4897,7.4897,7.4897,7.4897,7.4897,7.4897,7.4897,7.4659,7.4419,7.4177,7.4087,7.4026,7.3996,7.3692,7.3631,7.3631,0.0,0.0,0.0,0.0,0.0,0.0,0.0,0.0,3.1436,3.2123,3.2004,3.1915,0.0,0.0,0.0,3.22,3.22,0.0,3.22,3.22,3.2472,3.3061,3.3601,3.4368,3.5317,3.7235,3.8808,4.0029,3.9758,3.9343,3.8785,0.0,0.0,0.0,0.0,0.0,0.0,0.0,0.0,0.0,3.7904,3.8105,3.8603,0.0,0.0,0.0,0.0,0.0,0.0,0.0,0.0,0.0,3.939,4.0029,4.1116,4.2666,4.3819,4.4986,4.6973,5.0176,5.3284,5.4782,5.7823,6.1144,6.3864,6.3603,6.3536,6.6057,6.7177,6.7571,6.7174,6.7679,6.8114,6.8094,6.932,7.046,7.1015,7.1077,7.1077,7.1044,7.0887,7.0946,7.1278,7.1055,7.1206,7.1949,7.239,7.2859,7.3477,7.3996,7.4478,7.4897,7.4897,7.4897,7.4897,7.4897,7.4897,7.4897,7.4897,7.4897,7.4897,7.4897,7.4897,7.4897,7.4897,7.4897,7.4897,7.4689,7.4419,7.4118,7.3935,7.3814,7.3692,7.3416,7.3293,7.3293,0.0,0.0,0.0,0.0,0.0,0.0,0.0,3.2261,3.3045,3.3151,3.3016,3.294,0.0,0.0,0.0,3.22,3.22,3.22,3.22,3.22,3.2499,3.3142,3.3791,3.5209,3.7431,3.8618,3.8912,3.8239,3.8912,3.8696,0.0,0.0,0.0,0.0,0.0,0.0,0.0,0.0,0.0,0.0,0.0,3.9409,3.9894,4.0392,0.0,0.0,0.0,0.0,0.0,0.0,0.0,0.0,4.0385,4.0582,4.151,4.5103,4.7432,4.9803,5.3958,5.5669,5.7398,6.2074,6.2799,6.3406,6.7344,6.9228,6.9705,6.8258,6.8203,6.8454,6.8868,6.8061,6.794,6.9697,7.0522,7.1077,7.1413,7.1442,7.1562,7.1916,7.1628,7.1564,7.185,7.1371,7.118,7.1501,7.2453,7.3015,7.3077,7.4238,7.4897,7.4897,7.4897,7.4897,7.4897,7.4897,7.4897,7.4897,7.4897,7.4897,7.4897,7.4897,7.4897,7.4897,7.4867,7.4838,7.4808,7.4778,7.4569,7.4239,7.3966,7.3662,7.3417,7.3107,7.3014,7.3014,0.0,0.0,0.0,0.0,0.0,0.0,3.1507,3.1181,3.1099,3.1992,3.1861,3.1792,3.2052,3.2165,0.0,3.22,3.22,3.22,3.22,3.22,3.2662,3.3664,3.5201,3.6476,3.7458,3.8212,3.807,3.6985,3.807,3.8297,0.0,0.0,0.0,0.0,0.0,0.0,0.0,0.0,0.0,0.0,0.0,3.802,3.8681,3.9408,3.8992,0.0,0.0,0.0,0.0,0.0,0.0,0.0,4.0254,4.0582,4.1039,4.2353,4.5584,4.8898,5.0123,5.5054,6.0441,6.2765,6.6553,7.0098,7.1528,7.1717,7.1013,6.9014,6.9971,7.0771,6.9547,6.973,7.019,7.0615,7.1014,7.1412,7.1831,7.1859,7.1763,7.1564,7.1754,7.169,7.1178,7.1725,7.2233,7.2547,7.3262,7.3905,7.4418,7.4748,7.4897,7.4897,7.4897,7.4897,7.4897,7.4897,7.4897,7.4897,7.4897,7.4897,7.4897,7.4897,7.4897,7.4897,7.4629,7.4359,7.4087,7.3906,7.3601,7.3293,7.3231,7.3169,7.3107,7.3014,7.3014,7.3014,0.0,0.0,0.0,0.0,0.0,0.0,0.0,0.0,3.1934,3.2104,3.2064,3.2102,3.2403,3.2295,0.0,0.0,3.22,3.22,3.22,3.2472,3.3286,3.4713,3.6232,3.7317,3.7913,3.8239,3.794,3.7018,3.7371,0.0,0.0,0.0,0.0,0.0,0.0,0.0,0.0,0.0,0.0,0.0,0.0,0.0,0.0,3.9344,3.8944,3.8139,3.9032,0.0,0.0,0.0,0.0,0.0,0.0,0.0,4.1591,4.3331,4.526,4.7852,5.2462,5.6908,6.1397,6.6302,7.0005,7.2583,7.2891,7.2983,7.2397,7.0457,7.0801,7.1168,7.0098,7.0587,7.1108,7.0947,7.1344,7.1678,7.1725,7.1722,7.1564,7.118,7.1787,7.2105,7.1884,7.261,7.3262,7.36,7.4055,7.4448,7.4657,7.4956,7.5045,7.4927,7.4897,7.4897,7.4897,7.4897,7.4897,7.4897,7.4897,7.4897,7.4897,7.4748,7.4569,7.4388,7.4269,7.4056,7.3874,7.3753,7.3509,7.3231,7.3231,7.3138,7.3014,7.3014,7.3014,7.3014,0.0,0.0,0.0,0.0,0.0,0.0,0.0,0.0,0.0,3.2467,3.2519,3.2718,3.2957,3.2517,3.22,0.0,0.0,0.0,3.22,3.2852,3.3938,3.5473,3.6801,3.7778,3.8374,3.8401,3.8103,3.7485,3.6991,0.0,0.0,0.0,0.0,0.0,0.0,0.0,0.0,0.0,0.0,0.0,0.0,0.0,0.0,0.0,0.0,3.8382,3.8988,3.9425,3.9808,4.0228,0.0,0.0,0.0,0.0,4.2121,4.4679,4.5453,4.7189,5.5215,5.8868,6.2362,7.0217,7.2614,7.3045,7.3137,7.3475,7.335,7.2025,7.1599,7.1199,7.0526,7.1045,7.1441,7.1001,7.1454,7.1818,7.1501,7.1469,7.1405,7.1244,7.2043,7.2672,7.2891,7.3569,7.4087,7.4298,7.4626,7.4715,7.4508,7.5016,7.5195,7.4927,7.4897,7.4897,7.4897,7.4897,7.4897,7.4897,7.4838,7.4748,7.4659,7.4359,7.4148,7.3966,7.3935,7.3874,7.3845,7.3753,7.36,7.3386,7.3386,7.3231,7.3014,7.3014,7.3014,7.3014,0.0,0.0,0.0,0.0,0.0,0.0,0.0,0.0,0.0,0.0,3.1966,3.213,3.2444,3.2305,3.22,3.22,3.22,3.22,3.22,0.0,0.0,3.4883,3.6584,3.7778,3.8374,3.8401,3.8103,3.7485,3.7425,0.0,0.0,0.0,0.0,0.0,0.0,0.0,0.0,0.0,0.0,0.0,0.0,0.0,0.0,0.0,0.0,0.0,0.0,0.0,4.028,4.0383,4.0803,0.0,0.0,0.0,4.1476,4.2121,4.4888,4.8282,5.0637,5.7835,6.5998,7.1506,7.2922,7.3137,7.3722,7.3194,7.2728,7.3156,7.3409,7.2917,7.0785,7.1464,7.2047,7.106,7.1247,7.1533,7.179,7.1822,7.2013,7.2578,7.2984,7.3169,7.2922,7.3753,7.4239,7.3996,7.4538,7.4866,7.4838,7.4927,7.4956,7.4897,7.4897,7.4897,7.4897,7.4897,7.4897,7.4897,7.4599,7.4178,7.3693,7.3631,7.3876,7.4329,7.4026,7.3784,7.3509,7.3231,7.3107,7.3076,7.3076,7.3045,7.3014,7.3014,7.3014,7.3014,0.0,0.0,0.0,0.0,0.0,0.0,0.0,0.0,0.0,0.0,0.0,3.2124,3.2734,3.2443,3.22,3.22,3.22,3.2336,3.268,3.3439,3.4314,3.5256,3.6699,3.7642,3.7886,3.7806,3.7509,3.6991,0.0,0.0,0.0,3.8461,3.9421,0.0,0.0,0.0,0.0,0.0,0.0,0.0,0.0,0.0,0.0,0.0,0.0,0.0,0.0,0.0,0.0,0.0,4.0567,4.0855,4.1194,0.0,0.0,0.0,4.3571,4.701,5.3354,5.9896,6.6247,7.166,7.2978,7.3062,7.3559,7.3733,7.3624,7.3007,7.372,7.3752,7.1411,7.1448,7.166,7.1016,7.1018,7.1148,7.1309,7.1663,7.2013,7.2297,7.3293,7.3904,7.3722,7.4627,7.5102,7.4984,7.522,7.534,7.5195,7.5195,7.5075,7.4927,7.4897,7.4897,7.4897,7.4897,7.4808,7.4629,7.4299,7.3997,7.3723,7.3723,7.3662,7.36,7.3447,7.3355,7.32,7.3045,7.3014,7.3014,7.3014,7.3014,7.3014,7.3014,7.3014,7.3014,0.0,0.0,0.0,0.0,0.0,0.0,0.0,0.0,0.0,0.0,0.0,3.2415,3.3042,0.0,0.0,0.0,3.22,3.239,3.2843,3.3403,3.4171,3.5201,3.6395,3.7127,3.7262,3.7115,3.6878,3.6522,0.0,0.0,3.8558,3.8747,3.9883,0.0,4.0145,0.0,0.0,0.0,0.0,0.0,0.0,4.2148,0.0,0.0,0.0,0.0,0.0,0.0,0.0,0.0,0.0,0.0,0.0,0.0,0.0,0.0,0.0,4.6205,5.5112,5.9834,6.3792,7.0251,7.187,7.2253,7.3608,7.4387,7.4417,7.3189,7.3708,7.3801,7.1881,7.1612,7.1487,7.0984,7.0889,7.0954,7.1115,7.1727,7.2202,7.2391,7.3661,7.4538,7.4538,7.5161,7.5571,7.5571,7.5571,7.5486,7.5283,7.5283,7.5166,7.4927,7.4897,7.4897,7.4897,7.4897,7.4689,7.4269,7.3996,7.3814,7.3661,7.3661,7.3416,7.3014,7.3076,7.3076,7.3014,7.3014,7.3014,7.3014,7.3014,7.3014,7.3014,7.3014,7.3014,7.3014,0.0,0.0,0.0,0.0,0.0,0.0,0.0,0.0,0.0,0.0,0.0,3.3042,3.3088,3.3061,3.2816,3.2255,3.22,3.22,3.2227,3.2816,3.3395,3.3962,3.5147,0.0,3.6632,3.6659,3.6529,0.0,0.0,0.0,3.8975,3.9477,4.0713,4.2382,4.0986,4.028,4.0087,0.0,0.0,0.0,0.0,4.3996,0.0,0.0,0.0,0.0,0.0,0.0,0.0,0.0,0.0,0.0,0.0,0.0,0.0,0.0,0.0,0.0,5.2145,5.4798,5.817,6.6645,6.897,7.0279,7.4436,7.4891,7.4419,7.4299,7.358,7.2777,7.1999,7.2141,7.2029,7.1074,7.0889,7.1115,7.1759,7.2453,7.3077,7.3722,7.4418,7.4867,7.4867,7.4927,7.4956,7.4956,7.4956,7.4956,7.4927,7.4927,7.4927,7.4897,7.4897,7.4897,7.4897,7.4897,7.4568,7.3935,7.3905,7.36,7.3045,7.3045,7.3045,7.3014,7.3355,7.3293,7.3014,7.3014,7.3014,7.3014,7.3014,7.3014,7.3014,7.3014,7.3014,7.3014,0.0,0.0,0.0,0.0,0.0,0.0,0.0,0.0,0.0,0.0,0.0,0.0,0.0,0.0,0.0,0.0,3.22,3.22,3.22,3.3105,3.371,3.3908,3.5805,3.6584,3.6015,3.6524,0.0,0.0,0.0,3.6496,3.8171,3.8715,3.9826,4.1331,4.0638,4.0627,4.0988,3.9207,0.0,0.0,0.0,0.0,0.0,0.0,0.0,0.0,0.0,0.0,0.0,0.0,0.0,0.0,0.0,0.0,0.0,0.0,4.558,4.6449,5.1999,5.366,5.5393,6.208,6.6093,6.8812,7.0606,7.2945,7.4594,7.4174,7.3803,7.3193,7.2086,7.1645,7.1318,7.0949,7.0889,7.0986,7.1212,7.1853,7.2485,7.32,7.3844,7.4418,7.4867,7.4897,7.4897,7.4897,7.4897,7.4897,7.4897,7.4897,7.4897,7.4897,7.4897,7.4808,7.4569,7.4389,7.4057,7.3662,7.3416,7.3231,7.3014,7.3014,7.3014,7.3014,7.3107,7.3107,7.2983,7.2552,7.2368,7.2306,7.1844,7.166,7.166,7.166,7.166,7.166,0.0,0.0,0.0,0.0,0.0,0.0,0.0,0.0,0.0,0.0,0.0,0.0,0.0,0.0,0.0,0.0,3.2689,3.2779,3.2779,3.3474,3.3989,3.4206,3.5913,3.657,3.5913,3.6488,0.0,0.0,0.0,0.0,0.0,0.0,3.941,4.0979,4.0392,0.0,0.0,0.0,0.0,4.1053,0.0,0.0,4.8754,0.0,0.0,0.0,0.0,0.0,0.0,0.0,0.0,0.0,0.0,0.0,0.0,0.0,0.0,0.0,5.0681,5.1715,5.2975,5.8844,6.2485,6.5532,6.8782,7.1418,7.3402,7.4091,7.4084,7.355,7.2418,7.1683,7.1148,7.0921,7.0889,7.0889,7.0889,7.1693,7.2391,7.2859,7.3692,7.4388,7.4867,7.4897,7.4897,7.4897,7.4897,0.0,7.4897,7.4897,7.4897,7.4897,7.4897,7.4748,7.4389,7.4178,7.3875,7.3509,7.3262,7.3107,7.3014,7.3014,7.3014,7.3014,7.3014,7.3014,7.2983,7.2522,7.2337,7.2306,7.1783,7.1475,7.1259,7.1259,7.1105,7.089,0.0,0.0,0.0,0.0,0.0,0.0,0.0,0.0,0.0,0.0,0.0,0.0,0.0,0.0,0.0,0.0,3.3628,3.3935,3.3935,3.3935,3.4206,3.4802,3.5398,3.594,3.6306,0.0,0.0,0.0,0.0,0.0,0.0,0.0,3.9646,0.0,4.0364,4.0638,4.193,0.0,4.1186,4.1852,0.0,4.9141,4.6427,0.0,0.0,0.0,5.1307,5.1408,0.0,0.0,0.0,0.0,0.0,0.0,0.0,0.0,0.0,0.0,0.0,0.0,0.0,5.6898,5.8226,6.0349,6.9082,7.0365,7.0709,7.4035,7.4212,7.36,7.2997,7.2374,7.1663,7.1018,7.0889,7.0889,7.0889,7.2043,7.2891,7.2891,7.4056,7.4897,7.4897,7.4897,7.4897,7.4897,7.4897,7.4897,7.4897,7.4897,7.4897,7.4897,7.4897,7.4748,7.4389,7.4389,7.4089,7.3509,7.3509,7.3293,7.3014,7.3014,7.3014,7.3014,7.3014,7.3014,7.3014,7.2983,7.2952,7.2983,7.2953,7.2552,7.1936,7.1936,7.1505,7.089,0.0,0.0,0.0,0.0,0.0,3.7208,3.7046,3.6612,0.0,0.0,0.0,0.0,0.0,0.0,0.0,0.0,3.4713,3.4558,3.4558,3.4558,3.477,3.5197,3.6222,3.6763,0.0,0.0,0.0,0.0,0.0,0.0,0.0,0.0,0.0,0.0,4.0871,4.1079,4.1019,4.0425,0.0,0.0,4.7455,4.982,0.0,0.0,0.0,0.0,0.0,5.4459,0.0,0.0,5.0948,4.6458,0.0,0.0,0.0,0.0,0.0,0.0,4.7475,0.0,0.0,0.0,0.0,0.0,6.0436,6.3825,6.7181,7.0024,7.085,7.1428,7.2657,7.2365,7.1822,7.1631,7.1212,7.0889,7.0889,7.1661,7.236,7.2828,7.3661,7.4358,7.4867,7.4897,7.4897,0.0,7.4897,7.4897,7.4897,7.4897,7.4897,7.4897,7.4897,7.4748,7.4389,7.4178,7.3845,7.3509,7.3231,7.3076,7.3014,7.3014,7.3014,7.3014,7.3262,7.32,7.2983,7.2491,7.2275,7.2244,7.169,7.1075,7.0459,7.0459,7.0336,7.0182,0.0,0.0,3.8239,3.8239,3.8456,3.8618,3.8618,3.8125,0.0,0.0,0.0,0.0,0.0,0.0,0.0,0.0,3.5988,3.5913,3.5913,3.569,3.5764,3.6236,3.6853,3.7193,3.7168,0.0,0.0,0.0,0.0,0.0,0.0,0.0,0.0,0.0,0.0,0.0,0.0,0.0,0.0,0.0,4.8324,0.0,0.0,5.5604,5.7444,0.0,0.0,0.0,5.4367,5.7678,5.449,0.0,0.0,0.0,0.0,0.0,0.0,0.0,0.0,0.0,0.0,0.0,0.0,0.0,5.9431,6.2362,6.5592,7.0456,7.156,7.1992,7.3121,7.3007,7.2642,7.236,7.2011,7.1725,7.1725,7.2297,7.286,7.3262,7.3905,7.4448,7.4867,7.4897,7.4897,7.4897,7.4897,7.4897,7.4897,7.4897,7.4897,7.4897,7.4778,7.4539,7.4209,7.3875,7.357,7.3293,7.3076,7.3014,7.3014,7.3014,7.3076,7.32,7.3417,7.3447,7.3355,7.2952,7.2736,7.2614,7.2272,7.1685,7.0947,7.1096,7.0791,7.0425,0.0,0.0,3.9509,3.9509,3.9965,4.0341,4.0296,3.9857,3.9531,0.0,0.0,0.0,0.0,0.0,0.0,0.0,0.0,3.7594,3.7594,3.7018,3.6943,3.7503,3.7359,3.7391,3.7719,3.7741,0.0,0.0,0.0,0.0,0.0,0.0,0.0,0.0,4.0831,4.1157,4.1106,4.1504,0.0,4.2017,4.9996,5.1053,0.0,0.0,5.6917,0.0,5.7274,5.7266,5.6361,6.065,5.9529,0.0,0.0,0.0,0.0,0.0,4.8584,0.0,0.0,0.0,0.0,0.0,0.0,0.0,0.0,6.275,6.4151,7.1425,7.2574,7.2367,7.2675,7.2705,7.2514,7.1967,7.2183,7.2583,7.286,7.3477,7.3905,7.3905,7.4478,7.4897,7.4897,7.4897,7.4897,7.4897,7.4897,7.4897,7.4897,7.4897,7.4897,7.4897,7.4569,7.4269,7.3966,7.3662,7.3324,7.3045,7.3014,7.3014,7.3014,7.3045,7.32,7.3509,7.357,7.3692,7.3905,7.3966,7.3814,7.357,7.3814,7.3318,7.2515,7.2935,7.2321,7.1583,0.0,4.0268,4.0734,4.0734,4.1027,4.1177,4.097,4.1022,0.0,0.0,0.0,0.0,0.0,0.0,0.0,0.0,0.0,0.0,3.8212,3.7669,3.7445,3.7646,3.7629,3.7674,3.7854,3.8009,3.7907,0.0,0.0,0.0,0.0,0.0,0.0,0.0,0.0,4.1318,4.055,0.0,0.0,4.4937,4.8083,0.0,5.1983,5.6712,5.947,6.097,6.2479,6.155,5.9411,0.0,5.8574,5.8811,0.0,0.0,0.0,0.0,0.0,0.0,0.0,0.0,0.0,0.0,0.0,0.0,0.0,5.497,5.6852,5.9978,6.1378,6.2652,6.4821,6.5209,6.5287,6.554,6.7933,7.0519,7.2614,7.3477,7.3905,7.3905,7.4478,7.4897,7.4897,7.4897,7.4897,7.4897,7.4897,7.4897,7.4897,7.4897,7.4897,7.4897,7.4569,7.4359,7.4299,7.3784,7.3478,7.3417,7.3107,7.3014,7.3014,7.3262,7.3447,7.354,7.4028,7.4118,7.3935,7.4478,7.4359,7.3845,7.3874,7.3469,7.2935,7.3903,7.4094,7.4082,4.054,4.1137,4.1547,4.1547,4.1909,4.2147,4.2029,4.1879,0.0,0.0,0.0,0.0,0.0,0.0,0.0,0.0,0.0,0.0,0.0,3.859,3.8226,3.8301,3.7794,3.7813,3.8477,3.8303,3.8258,3.8398,0.0,0.0,0.0,0.0,0.0,0.0,0.0,0.0,0.0,0.0,4.2617,4.3886,4.8839,0.0,5.5999,6.0773,6.3532,6.5001,6.6203,6.5681,6.4082,6.2072,6.083,0.0,0.0,5.662,5.5873,0.0,5.2654,5.3474,0.0,0.0,0.0,5.1116,0.0,0.0,0.0,0.0,5.6221,5.9913,6.0628,6.1226,6.3231,6.3537,6.3657,6.4208,6.7121,6.9441,6.9729,7.2455,7.4388,7.4388,7.4719,7.4897,7.4897,7.4897,7.4897,7.4897,7.4897,7.4897,7.4897,7.4897,7.4897,7.4897,7.4419,7.4178,7.4178,7.357,7.3324,7.3509,7.3324,7.3324,7.3447,7.3631,7.3784,7.3967,7.4269,7.4419,7.4418,7.4778,7.5043,7.5244,7.5244,7.4963,7.4643,7.595,7.6224,7.6224,4.1141,4.1761,4.2168,4.2168,4.2623,4.2946,4.2925,4.2514,0.0,0.0,0.0,0.0,0.0,0.0,0.0,0.0,0.0,0.0,0.0,0.0,3.9976,3.9999,3.8542,3.8421,3.9905,3.8995,3.8694,3.9064,0.0,0.0,0.0,0.0,0.0,0.0,0.0,0.0,0.0,0.0,0.0,4.452,0.0,5.4833,5.6873,6.3144,6.5673,6.6138,6.8558,6.9317,6.8869,6.6979,0.0,6.1005,6.1113,5.9361,0.0,0.0,0.0,0.0,0.0,0.0,0.0,0.0,0.0,5.2641,0.0,0.0,0.0,0.0,0.0,0.0,6.1559,6.1655,6.1736,6.2368,6.5439,0.0,0.0,6.9683,0.0,7.3285,7.4233,7.4676,7.4139,7.3981,7.417,7.4834,7.4265,7.417,7.4866,7.4897,7.4897,7.4897,7.4238,7.3905,7.3905,7.3293,7.3169,7.3509,7.3509,7.3662,7.3905,7.3966,7.4117,7.4389,7.4479,7.4659,7.4927,7.5132,7.5768,7.6593,7.6593,7.656,7.6664,7.8124,7.8338,7.8139,4.1788,4.2385,4.2792,4.2792,4.3063,4.3163,4.2949,4.3036,0.0,0.0,0.0,0.0,0.0,0.0,0.0,0.0,0.0,0.0,4.5445,0.0,0.0,4.3932,4.0922,4.0381,4.2859,4.0733,3.9409,3.8926,3.8993,0.0,0.0,0.0,0.0,0.0,4.7598,0.0,0.0,0.0,5.0793,0.0,5.5264,5.2698,0.0,5.7422,6.1245,6.2818,6.8782,7.1833,7.2263,0.0,6.5896,6.4714,0.0,6.0407,0.0,0.0,0.0,0.0,0.0,0.0,0.0,0.0,5.3054,0.0,0.0,0.0,0.0,0.0,0.0,0.0,0.0,0.0,0.0,0.0,0.0,0.0,5.9365,6.3514,6.6897,6.7471,7.1895,7.3917,7.1512,7.069,7.1547,7.4644,7.205,7.161,7.4707,7.4897,7.4897,7.4897,7.4238,7.3905,7.3905,7.3293,7.3169,7.3509,7.3509,7.3662,7.3905,7.4209,7.4359,7.4419,7.4719,7.4867,7.4986,7.5999,7.648,7.6593,7.6593,7.7203,7.8178,7.9361,7.9778,7.9972,0.0,4.2711,0.0,4.2925,4.297,4.3018,4.2925,4.2994,0.0,0.0,0.0,0.0,0.0,0.0,0.0,0.0,0.0,4.8462,0.0,0.0,0.0,0.0,4.0377,4.0144,4.1331,4.0183,3.962,3.9703,4.0003,4.0599,0.0,0.0,0.0,0.0,4.9398,0.0,5.0601,0.0,5.218,0.0,0.0,0.0,0.0,6.294,6.8806,7.051,7.3269,7.4243,7.3863,0.0,6.8286,0.0,0.0,0.0,0.0,0.0,0.0,0.0,0.0,0.0,0.0,0.0,0.0,0.0,0.0,0.0,5.1295,0.0,0.0,0.0,0.0,0.0,0.0,0.0,0.0,0.0,0.0,0.0,6.4626,0.0,0.0,0.0,7.009,7.0631,7.2021,7.4707,7.2432,7.2085,7.4739,7.4897,7.4897,7.4897,7.4238,7.3996,7.4209,7.3601,7.3539,7.4028,7.4028,7.4178,7.4509,7.4629,7.4689,7.4689,7.4838,7.5279,7.5913,7.6395,7.7396,7.8611,7.8577,7.8867,7.9446,8.0598,8.1058,8.1166,0.0,0.0,0.0,4.2925,4.2925,4.2979,4.3115,4.3169,0.0,0.0,0.0,0.0,4.6319,4.7541,0.0,0.0,0.0,5.1372,0.0,0.0,4.644,0.0,4.1525,0.0,0.0,4.0885,4.0158,4.0706,4.1106,4.1544,4.2022,0.0,0.0,0.0,0.0,5.3224,5.5424,0.0,5.5337,5.4941,5.6464,5.7274,5.861,6.8392,7.4008,7.6653,7.6653,7.6027,7.5007,7.3833,7.0099,0.0,6.8943,0.0,0.0,0.0,0.0,0.0,5.5954,0.0,0.0,0.0,0.0,0.0,0.0,0.0,0.0,0.0,0.0,0.0,0.0,0.0,0.0,0.0,0.0,0.0,0.0,0.0,0.0,0.0,0.0,0.0,0.0,6.9082,7.0504,7.3538,0.0,7.1705,7.4739,7.4897,7.4897,7.4897,7.4238,7.4056,7.4389,7.3815,7.3815,7.4389,7.4389,7.4569,7.4897,7.4897,7.4897,7.4897,7.4897,7.5539,7.6621,7.6925,7.8265,8.0124,8.0365,8.0465,8.0598,8.1479,8.181,8.181,0.0,4.2925,0.0,4.2925,4.2925,4.3115,4.3685,4.3766,0.0,0.0,0.0,0.0,0.0,0.0,0.0,0.0,0.0,6.0246,5.7051,0.0,5.2193,0.0,0.0,4.365,0.0,4.4175,4.1315,4.1763,4.1786,4.2205,4.3074,4.3755,0.0,0.0,5.1224,5.3325,5.205,5.811,6.291,6.6485,6.6948,7.0744,7.5554,0.0,7.1916,7.6983,7.6983,0.0,0.0,7.2602,7.0975,0.0,0.0,0.0,0.0,0.0,0.0,0.0,0.0,0.0,0.0,5.4311,0.0,0.0,0.0,0.0,5.2187,0.0,0.0,0.0,0.0,0.0,0.0,0.0,0.0,0.0,0.0,0.0,0.0,0.0,0.0,0.0,0.0,0.0,0.0,0.0,6.8324,0.0,7.4613,7.4897,7.4897,7.4897,7.4238,7.4056,7.4389,7.3815,7.3815,7.4389,7.4389,7.4569,7.4897,7.4897,7.4897,7.4897,7.4897,7.5539,7.6705,7.7806,7.8919,8.0106,8.1311,8.1728,8.1763,8.1787,8.181,8.181,0.0,0.0,4.2925,4.2925,4.2925,4.3115,4.3712,4.4146,0.0,0.0,0.0,0.0,0.0,5.4475,5.6193,0.0,0.0,5.8692,5.704,5.3805,0.0,0.0,0.0,4.3887,0.0,0.0,4.1962,4.2339,4.2046,4.2865,4.4624,4.4344,4.4801,0.0,0.0,5.6376,0.0,0.0,0.0,0.0,0.0,7.0275,7.3312,0.0,7.5051,7.6983,7.6752,7.662,0.0,7.4615,7.2474,7.0717,7.1964,6.9809,6.7093,6.8544,6.7938,0.0,0.0,0.0,6.4367,5.8614,0.0,0.0,0.0,0.0,0.0,0.0,0.0,0.0,0.0,0.0,0.0,0.0,0.0,0.0,0.0,0.0,0.0,0.0,0.0,0.0,0.0,0.0,0.0,0.0,0.0,0.0,0.0,7.4897,7.4897,7.4897,7.4238,7.4147,7.4719,7.4088,7.4088,7.4719,7.4719,7.4808,7.4897,7.4897,7.4897,7.4897,7.4897,7.597,7.7752,7.8157,7.942,8.1228,8.1633,8.181,8.181,8.181,8.181,8.181,4.3223,4.306,4.2925,4.2925,4.3088,4.3441,4.4038,0.0,0.0,0.0,5.0182,0.0,5.3922,0.0,5.6259,0.0,5.8929,5.8892,5.7503,5.5674,0.0,5.4367,4.9453,0.0,0.0,0.0,0.0,4.5483,4.4311,4.4485,4.5936,4.5772,4.6174,4.7195,0.0,5.6973,6.2683,6.4086,6.7457,0.0,0.0,7.2305,0.0,0.0,7.5801,7.5096,0.0,7.6221,7.6024,7.5278,7.3735,7.2383,7.4254,7.2432,6.9915,7.1544,7.088,6.9275,6.788,6.8444,0.0,6.266,6.2291,0.0,5.5446,0.0,0.0,0.0,0.0,0.0,0.0,0.0,0.0,0.0,0.0,0.0,0.0,0.0,0.0,0.0,0.0,0.0,0.0,0.0,0.0,0.0,0.0,0.0,0.0,0.0,7.4897,7.4897,7.4389,7.4328,7.4897,7.4328,7.4328,7.4897,7.4897,7.4897,7.4897,7.4897,7.4964,7.5095,7.5374,7.6637,7.8515,7.8816,8.004,8.181,8.181,8.181,8.181,8.181,8.181,8.1787,4.3744,4.3337,4.3009,4.2958,4.3443,4.404,0.0,0.0,4.786,0.0,5.1846,5.3258,5.4474,5.6886,5.8402,5.8402,6.064,0.0,5.8915,5.8627,0.0,0.0,5.5674,5.5072,5.8444,0.0,0.0,0.0,0.0,4.6882,4.7062,4.7849,4.7913,4.7357,4.9665,0.0,6.2883,6.3881,6.9385,7.7384,7.7116,7.6837,7.6586,7.6133,7.3991,7.1717,7.4747,7.5661,7.5301,7.4671,7.4629,7.4704,7.3437,7.4375,7.5679,7.4453,7.4972,7.5192,7.1425,7.084,7.0341,6.6412,6.5886,0.0,0.0,0.0,6.1168,0.0,0.0,0.0,0.0,0.0,0.0,0.0,0.0,0.0,0.0,0.0,0.0,0.0,0.0,0.0,0.0,0.0,0.0,0.0,0.0,0.0,0.0,0.0,7.4707,7.4897,7.4569,7.4569,7.4897,7.4569,7.4569,7.4897,7.4897,7.4897,7.4929,7.4929,7.516,7.5516,7.6355,7.7581,7.9051,7.9789,8.0799,8.1914,8.1879,8.1845,8.181,8.181,8.181,8.1763,4.3224,4.3913,4.4313,4.368,4.4089,4.4513,0.0,0.0,0.0,0.0,5.5426,5.8113,6.0335,6.1573,6.228,6.228,6.2885,0.0,0.0,0.0,0.0,6.2507,5.7477,5.5883,5.8435,5.3507,0.0,5.1662,0.0,4.7546,4.895,4.7955,4.7755,4.8311,4.9944,5.5225,6.2856,6.3879,6.8922,7.6337,7.6526,7.4654,7.1935,0.0,7.279,7.0404,7.4186,7.5485,7.5317,7.4907,7.4846,7.4912,7.508,7.5863,7.6676,7.6324,7.6788,7.7225,7.623,7.5738,7.4625,7.1177,6.9641,6.8052,0.0,0.0,0.0,0.0,0.0,0.0,0.0,0.0,0.0,0.0,0.0,0.0,0.0,0.0,0.0,0.0,0.0,0.0,0.0,0.0,0.0,0.0,0.0,0.0,0.0,0.0,0.0,7.4802,7.4569,7.4569,7.4897,7.4569,7.4569,7.4897,7.4897,7.5182,7.5719,7.5719,7.6036,7.6668,7.7753,7.8957,8.0173,8.1264,8.2392,8.3397,8.2845,8.2293,8.181,8.181,8.181,8.1787,4.409,4.5181,4.5795,4.4891,4.6196,0.0,4.6993,4.8163,0.0,5.4062,5.6555,0.0,6.0718,6.2365,6.3306,6.3306,6.3541,0.0,6.2234,0.0,0.0,6.2548,6.0849,6.0704,6.2522,5.8349,0.0,5.5674,0.0,0.0,5.0112,4.8539,4.8276,4.9127,5.0205,5.4474,6.1151,6.5883,7.0315,7.4278,7.5706,7.48,0.0,7.4066,7.3448,7.2113,7.4374,7.5174,7.5083,7.4646,7.465,7.484,7.4656,7.5714,7.6901,7.6304,7.702,7.7959,7.7638,7.7487,7.6994,7.5152,7.4081,7.2571,6.8987,6.8194,6.8435,0.0,0.0,0.0,0.0,0.0,0.0,0.0,0.0,0.0,0.0,0.0,0.0,0.0,0.0,0.0,0.0,0.0,0.0,0.0,0.0,0.0,0.0,0.0,0.0,7.3741,7.406,7.4435,7.4897,7.4435,7.4503,7.51,7.5311,7.569,7.6201,7.6353,7.7004,7.8059,7.9087,8.0277,8.1584,8.264,8.3407,8.3959,8.3545,8.3121,8.2776,8.2776,8.2362,8.181,4.5475,4.6618,4.7173,4.6207,4.8806,0.0,0.0,5.0284,0.0,5.5465,0.0,5.8209,5.9202,6.1607,6.3137,6.3137,0.0,6.3045,6.1032,6.3724,6.4273,6.179,6.4605,6.6757,6.786,6.4615,0.0,0.0,0.0,5.2847,5.0944,4.9528,4.922,4.9857,5.0513,5.388,5.965,6.8426,7.2221,7.2549,7.4908,7.5815,7.5664,7.4994,7.477,7.4752,7.4775,7.4843,7.4806,7.4219,7.4408,7.4685,7.354,7.4871,7.6643,7.5463,7.6582,7.7992,7.7318,7.7608,7.812,7.8026,7.7936,7.6987,7.3638,7.2391,7.2111,7.2861,7.0605,7.05,0.0,0.0,0.0,0.0,0.0,0.0,0.0,0.0,0.0,0.0,0.0,0.0,0.0,0.0,0.0,0.0,0.0,0.0,0.0,0.0,0.0,7.2655,7.3579,7.4297,7.4897,7.4328,7.4528,7.5486,7.5821,7.6322,7.6925,7.723,7.8213,7.9771,8.0672,8.1784,8.3072,8.393,8.4235,8.4131,8.4131,8.4097,8.3993,8.3993,8.319,8.2086,4.5486,0.0,0.0,0.0,0.0,5.3113,5.4643,5.6134,5.7509,5.8586,6.1304,6.3215,6.3424,6.4351,6.4926,6.4926,6.5031,0.0,0.0,0.0,0.0,6.4665,6.6463,6.7707,6.8197,6.7132,6.5237,0.0,0.0,5.5413,5.2306,5.0974,5.0389,5.0543,5.1221,5.5899,6.3563,6.8274,0.0,7.4787,7.4988,7.4788,7.4244,7.4122,7.409,7.4088,7.406,7.4428,7.4884,7.4758,7.4787,7.4876,7.4631,7.5286,7.6131,7.5889,7.7274,7.8754,7.803,7.8345,7.8754,7.8155,7.7586,7.7141,7.6987,7.6862,7.6988,7.7713,7.7397,7.6324,7.4267,0.0,0.0,0.0,0.0,0.0,0.0,0.0,0.0,0.0,0.0,0.0,0.0,0.0,0.0,0.0,0.0,0.0,0.0,0.0,0.0,0.0,7.4615,0.0,0.0,0.0,7.512,7.5881,7.5973,7.7114,7.922,7.928,8.034,8.2147,8.33,8.3954,8.4268,8.5437,8.5535,8.4984,8.4984,8.4604,8.3993,8.3993,8.3821,8.3535,0.0,0.0,0.0,0.0,0.0,0.0,0.0,6.0226,6.1442,6.0441,6.1738,6.2719,6.2719,6.4325,6.5726,6.6562,6.664,6.7002,6.7794,6.8197,6.8397,6.8397,6.9718,0.0,7.1301,7.0639,6.8141,6.3668,0.0,5.7375,5.2869,5.1039,5.0608,5.1456,5.4004,5.7569,6.2072,0.0,0.0,7.3472,7.4866,7.5475,7.5517,7.5517,7.5517,7.5517,7.5517,7.573,7.5877,7.515,7.4897,7.496,7.534,7.594,7.6572,7.6951,7.8026,7.9037,7.8658,7.8847,7.9006,7.8689,7.8057,7.7615,7.7931,7.7741,7.7678,7.8405,7.85,7.7362,7.3507,6.8829,0.0,0.0,0.0,0.0,0.0,0.0,0.0,0.0,0.0,0.0,0.0,0.0,0.0,0.0,0.0,0.0,0.0,0.0,0.0,0.0,0.0,0.0,0.0,0.0,7.5345,7.6266,7.7397,7.8726,8.0138,8.0961,8.2156,8.3662,8.4264,8.4856,8.5489,8.6068,8.6087,8.5777,8.5777,8.5535,8.519,8.519,8.5264,8.5214,0.0,4.9958,0.0,0.0,5.574,5.8077,6.0362,6.3287,6.4398,6.2141,6.2246,6.2374,6.2063,6.4642,6.6808,6.7822,6.8214,6.8943,7.0227,7.0894,7.125,7.1393,7.2686,7.3702,7.4392,7.4258,7.1561,0.0,0.0,0.0,5.4589,5.1691,5.1496,5.372,5.7335,6.0017,0.0,0.0,7.1363,7.2805,7.5218,7.6539,7.7013,7.7013,7.7013,7.7013,7.7013,7.7013,7.6855,7.5719,7.534,7.5434,7.6035,7.654,7.7108,7.7646,7.8405,7.91,7.8911,7.9069,7.929,7.9163,7.8689,7.8247,7.8247,7.7931,7.7773,7.8152,7.8247,7.7078,7.3285,7.0283,0.0,0.0,0.0,0.0,0.0,0.0,0.0,0.0,0.0,0.0,0.0,0.0,0.0,0.0,0.0,0.0,0.0,0.0,0.0,0.0,0.0,7.3254,7.3791,0.0,7.578,7.7012,7.8881,8.0327,8.1333,8.2515,8.3744,8.4883,8.4883,8.5438,8.6294,8.6294,8.6319,8.6369,8.6369,8.6419,8.6469,8.6469,8.6593,8.6592,0.0,0.0,0.0,0.0,0.0,6.2042,6.234,6.5302,6.6692,6.4455,6.5932,6.6638,6.5175,6.7795,6.929,6.8349,6.9588,7.0622,7.1076,7.1156,7.145,7.2094,7.389,7.5081,7.5463,7.7391,7.6365,0.0,0.0,6.3484,5.9508,5.4676,5.4638,5.8694,6.0309,0.0,0.0,7.102,7.3334,7.6509,7.6793,7.695,7.7013,7.7013,7.7013,7.7013,7.7013,7.7013,7.6982,7.6855,7.6824,7.6824,7.6887,7.695,7.7013,7.7077,7.8057,7.8974,7.8279,7.9037,7.9859,7.9258,7.9069,7.8974,7.8974,7.9416,7.9669,7.9132,7.8974,7.7521,7.278,7.512,7.5782,0.0,0.0,0.0,0.0,0.0,0.0,0.0,0.0,0.0,0.0,0.0,0.0,0.0,0.0,0.0,0.0,0.0,0.0,6.9813,7.003,7.0121,7.0216,7.3981,7.6824,7.8587,7.9412,8.1307,8.4123,8.4291,8.4988,8.6144,8.6144,8.6194,8.6294,8.6294,8.6444,8.6667,8.6667,8.6814,8.7044,8.7044,8.7044,8.7033,0.0,0.0,0.0,0.0,0.0,0.0,0.0,6.7773,6.8372,6.7517,6.7428,6.7663,6.8197,6.9374,7.0424,7.1048,7.1927,7.3064,7.4591,7.5038,7.5567,7.6246,7.7266,7.7753,7.7688,7.859,7.6869,0.0,0.0,0.0,6.0924,5.8425,5.9166,6.2793,6.5956,6.8872,7.1551,7.3775,7.585,7.7615,7.7615,7.7868,7.8247,7.8247,7.8247,7.8247,7.8247,7.8247,7.8247,7.8247,7.7678,7.7077,7.7457,7.7615,7.7678,7.8121,7.8658,7.9037,7.8753,7.9069,7.9448,7.9195,7.91,7.91,7.91,7.9321,7.9448,7.9163,7.8753,7.7994,7.6477,7.5055,7.4139,0.0,0.0,0.0,0.0,0.0,0.0,0.0,0.0,0.0,0.0,0.0,0.0,0.0,0.0,0.0,0.0,0.0,0.0,6.8197,0.0,7.2401,7.1579,7.4518,7.6945,7.8816,7.9794,8.1492,8.3862,8.4574,8.5419,8.6294,8.6294,8.6294,8.6294,8.6294,8.6444,8.6716,8.6716,8.6863,8.7117,8.7117,8.7213,8.7357,6.226,0.0,6.4043,0.0,6.6434,6.7706,6.9948,7.0325,7.0542,7.1037,7.0062,6.9567,7.0207,7.1245,7.2286,7.3245,7.4174,7.5496,7.7183,7.7927,7.8564,7.9164,7.9542,0.0,7.9259,7.9416,7.7775,7.4111,7.0939,0.0,6.465,6.3209,6.4171,6.7308,7.0774,7.2807,7.384,7.648,7.7899,7.8311,7.8311,7.8658,7.91,7.91,7.91,7.91,7.91,7.91,7.91,7.91,7.8437,7.771,7.8184,7.8311,7.8437,7.8974,7.91,7.91,7.91,7.91,7.91,7.91,7.91,7.91,7.91,7.9258,7.9416,7.9416,7.8816,7.8437,7.8721,7.5561,7.3759,7.6382,0.0,0.0,0.0,0.0,0.0,0.0,0.0,0.0,0.0,0.0,0.0,0.0,0.0,0.0,0.0,0.0,0.0,0.0,0.0,0.0,7.1895,7.4802,7.7315,7.9357,8.0342,8.1919,8.3951,8.4808,8.5466,8.5984,8.6225,8.6294,8.6294,8.6294,8.6494,8.6814,8.6814,8.7009,8.7357,8.7357,8.7477,8.7619,6.5476,6.6014,6.6883,6.8983,7.0557,7.1772,7.2469,7.2776,7.3544,7.5112,7.4563,7.3176,7.0939,7.3852,7.5422,7.4179,7.6166,7.7604,7.7959,7.8628,7.9164,0.0,0.0,7.9921,7.96,8.0238,8.0047,7.9006,0.0,0.0,7.2306,6.9258,6.9446,7.2464,7.3849,7.6141,7.9006,7.9069,7.91,7.91,7.91,7.91,7.91,7.91,7.91,7.91,7.91,7.91,7.91,7.91,7.91,7.91,7.9069,7.91,7.91,7.91,7.91,7.91,7.91,7.91,7.91,7.91,7.91,7.91,7.91,7.9606,8.008,8.008,7.9574,7.8879,7.8152,7.7963,7.7046,7.4391,0.0,0.0,0.0,0.0,0.0,0.0,0.0,6.5537,7.0343,0.0,0.0,0.0,0.0,0.0,0.0,0.0,0.0,6.9616,6.9742,0.0,6.975,7.4549,7.8206,8.0586,8.1265,8.2858,8.5166,8.519,8.519,8.5259,8.5984,8.6294,8.6294,8.6294,8.6593,8.7092,8.7092,8.7429,8.7901,8.7901,8.7901,8.7901,7.068,7.1877,7.2728,7.2326,7.3319,7.4505,7.5462,7.5665,7.6066,7.7054,7.7131,7.6813,7.611,7.6819,7.7302,0.0,7.7768,7.8406,0.0,7.9068,7.932,7.9917,7.9823,7.9698,7.9573,7.9573,7.9416,7.91,0.0,0.0,7.3849,7.2727,7.389,7.7018,7.746,7.8185,7.91,7.91,7.91,7.91,7.91,7.91,7.91,7.91,7.91,7.91,7.91,7.91,7.91,7.91,7.91,7.91,7.91,7.91,7.91,7.91,7.91,7.91,7.91,7.91,7.91,7.91,7.91,7.91,7.91,7.929,7.9416,7.9416,7.9258,7.9037,7.8785,7.8342,7.7583,7.6224,7.6161,0.0,0.0,0.0,0.0,0.0,0.0,7.2622,0.0,7.101,0.0,0.0,0.0,0.0,0.0,0.0,0.0,0.0,7.1431,0.0,7.114,7.4853,7.7784,7.9938,8.0868,8.27,8.519,8.519,8.5466,8.5949,8.6191,8.6294,8.6294,8.6294,8.6627,8.7117,8.7117,8.7429,8.7901,8.7901,8.7901,8.7901,7.453,7.5481,7.6093,7.5344,7.5846,7.6584,7.7227,7.7468,7.7702,7.812,7.8596,7.888,7.888,7.8813,0.0,7.8691,7.8786,7.9068,7.9472,7.9473,7.963,7.9876,7.9691,7.9537,7.9412,7.9194,0.0,7.91,7.7178,7.6235,7.6204,7.6095,7.7136,7.91,7.91,7.91,7.91,7.91,7.91,7.91,7.91,7.91,7.91,7.91,7.91,7.91,7.91,7.91,7.91,7.91,7.91,7.91,7.91,7.91,7.91,7.91,7.91,7.91,7.91,7.91,7.91,7.91,7.91,7.91,7.91,7.91,7.91,7.91,7.91,7.91,7.91,7.85,7.7868,7.7425,7.6793,7.6381,7.6381,0.0,0.0,0.0,0.0,0.0,0.0,7.1674,7.0568,0.0,0.0,0.0,0.0,0.0,0.0,7.0592,7.3669,0.0,7.4419,7.6156,7.8204,8.0615,8.1749,8.299,8.4363,8.4949,8.5466,8.5915,8.6191,8.6294,8.6294,8.6294,8.6627,8.7117,8.7117,8.7429,8.7901,8.7901,8.7901,8.7901,7.7042,7.7114,7.7299,7.7887,7.801,7.805,7.8019,7.827,7.8502,7.8534,7.9035,7.9375,7.9375,7.9779,7.9782,7.913,7.9348,0.0,7.9503,7.9845,7.9876,7.9568,7.9568,7.9412,7.9132,7.91,7.91,7.91,7.91,7.91,7.91,7.91,7.91,7.91,7.91,7.91,7.91,7.91,7.91,7.91,7.91,7.91,7.91,7.91,7.91,7.91,7.91,7.91,7.91,7.91,7.91,7.91,7.91,7.91,7.91,7.91,7.91,7.91,7.91,7.91,7.91,7.91,7.91,7.91,7.91,7.91,7.91,7.91,7.91,7.91,7.91,7.8563,7.8057,7.8026,7.7488,7.7077,7.7013,7.7013,0.0,0.0,0.0,0.0,0.0,6.9272,7.0757,0.0,0.0,0.0,0.0,0.0,7.0882,7.5845,7.6003,7.6822,7.8532,7.8002,7.9293,8.2351,8.3482,8.3638,8.3052,8.4535,8.519,8.5225,8.5984,8.6294,8.6294,8.6294,8.6627,8.7117,8.7117,8.7429,8.7901,8.7901,8.7901,8.7901,7.8052,7.83,7.8486,7.872,7.8532,7.8533,7.9038,7.8751,7.8587,7.8862,7.8566,7.8367,7.8367,7.8909,7.9422,7.9813,7.9691,7.9599,7.9599,7.9412,7.9288,7.9194,7.9194,7.9163,7.91,7.91,7.91,7.91,7.91,7.91,7.91,7.91,7.91,7.91,7.91,7.91,7.91,7.91,7.91,7.91,7.91,7.91,7.91,7.91,7.91,7.91,7.91,7.91,7.91,7.91,7.91,7.91,7.91,7.91,7.91,7.91,7.91,7.91,7.91,7.91,7.91,7.91,7.91,7.91,7.91,7.91,7.91,7.91,7.91,7.91,7.91,7.8974,7.8689,7.809,7.7868,7.7583,7.7077,7.7013,7.6571,0.0,7.5275,7.5211,7.5053,7.5053,7.4328,0.0,0.0,0.0,7.2782,7.1981,7.2895,7.5908,7.6003,7.6121,7.6358,7.7544,7.9719,8.2757,8.362,8.389,8.3776,8.4742,8.519,8.5225,8.5984,8.6294,8.6294,8.6294,8.6627,8.7117,8.7117,8.7429,8.7901,8.7901,8.7901,8.7901,7.869,7.8879,7.9005,7.9037,7.9131,7.9256,7.9318,7.928,7.9398,7.9901,7.9489,7.9302,7.9621,7.985,8.017,8.0552,8.0267,8.0203,8.049,8.0207,8.008,8.008,8.008,8.008,8.008,7.9732,7.9416,7.91,7.91,7.91,7.91,7.91,7.91,7.91,7.91,7.91,7.91,7.91,7.91,7.91,7.91,7.91,7.91,7.91,7.91,7.91,7.91,7.91,7.91,7.91,7.91,7.91,7.91,7.91,7.91,7.91,7.8848,7.8531,7.8215,7.8373,7.8689,7.9037,7.91,7.91,7.91,7.91,7.91,7.91,7.91,7.91,7.91,7.91,7.8974,7.8595,7.7963,7.7646,7.7899,7.7394,7.714,7.7425,7.7457,7.733,7.7045,7.7013,7.6223,7.4328,7.4116,0.0,7.417,7.4116,7.4752,7.6201,7.6607,7.7036,7.7623,7.9473,8.1068,8.2431,8.3156,8.3649,8.4028,8.4846,8.5397,8.5742,8.6122,8.6294,8.6294,8.6419,8.6716,8.7117,8.7237,8.7548,8.7901,8.7901,8.7901,8.7901,7.9132,7.9256,7.9288,7.9383,7.9882,8.0068,7.9541,7.9883,8.0383,8.0864,8.0615,8.0586,8.1157,8.1125,8.1091,8.1186,8.0967,8.103,8.1507,8.1346,8.1218,8.1218,8.1218,8.1218,8.1218,8.0585,7.9953,7.9258,7.9258,7.9227,7.91,7.91,7.91,7.91,7.91,7.91,7.9132,7.9227,7.9195,7.91,7.9227,7.9258,7.9258,7.9163,7.9163,7.9258,7.9163,7.91,7.9132,7.9227,7.9258,7.929,7.9385,7.9448,7.9385,7.9163,7.8753,7.8184,7.7488,7.7741,7.8342,7.8911,7.91,7.91,7.91,7.91,7.91,7.91,7.91,7.91,7.91,7.91,7.8974,7.8563,7.7804,7.7583,7.8373,7.7804,7.752,7.8121,7.8184,7.7931,7.7362,7.7235,7.7171,7.7171,7.6509,7.6382,7.6982,7.6321,7.6074,7.6366,7.7233,7.8424,7.9997,8.1807,8.2431,8.181,8.2431,8.3121,8.3855,8.4673,8.5432,8.6156,8.626,8.6294,8.6319,8.6593,8.6863,8.7141,8.7405,8.7667,8.7901,8.7901,8.7901,8.7901,7.9816,7.9938,8.013,8.0672,8.0893,8.1023,8.1157,8.0839,8.0458,8.027,7.97,7.9353,7.9479,7.9953,8.0522,8.1154,8.1661,8.1789,8.1282,8.1218,8.1218,8.1218,8.1218,8.1218,8.1218,8.1091,8.068,7.9953,7.9953,7.9669,7.91,7.91,7.91,7.91,7.91,7.91,7.9163,7.9701,7.9637,7.9163,7.9732,7.9953,7.989,7.9321,7.9448,7.989,7.9321,7.91,7.9195,7.9764,7.9953,8.0048,8.068,8.087,8.0649,7.9448,7.9416,7.9637,7.8974,7.8847,7.8974,7.91,7.91,7.91,7.91,7.91,7.91,7.91,7.91,7.91,7.91,7.91,7.8342,7.594,7.7362,7.8026,7.5845,7.7425,7.8816,7.8942,7.8911,7.8911,7.8784,7.8215,7.7868,7.7868,7.7204,7.6887,7.7013,7.6077,7.561,7.5643,7.6977,7.8436,7.9987,8.1322,8.1914,8.181,8.1914,8.2362,8.3121,8.3845,8.4639,8.5397,8.6018,8.6294,8.6319,8.6593,8.6863,8.7141,8.7405,8.7667,8.7901,8.7901,8.7901,8.7901,8.0554,8.0681,8.0776,8.1094,8.1126,8.1221,8.1347,8.1125,8.0998,8.1218,8.0965,8.0902,8.1249,8.1564,8.1913,8.226,8.2576,8.2608,8.2324,8.2292,8.2292,8.2292,8.2292,8.2102,8.1755,8.1723,8.1407,8.068,8.068,8.0522,8.0238,8.0238,8.0238,8.0238,8.0238,8.0238,8.0269,8.0554,8.0522,8.0269,8.0585,8.068,8.0649,8.0364,8.0427,8.0649,8.0364,8.0238,8.0301,8.0585,8.068,8.0744,8.1091,8.1218,8.106,8.0427,7.9637,7.9005,7.91,7.91,7.91,7.91,7.91,7.91,7.91,7.91,7.91,7.91,7.91,7.91,7.91,7.91,7.8658,7.7394,7.7615,7.7773,7.7236,7.7615,7.8247,7.9037,7.91,7.91,7.91,7.8785,7.8595,7.8595,7.7583,7.7013,7.7013,7.5851,7.5162,7.5162,7.6879,7.8428,7.9753,8.1542,8.2397,8.2397,8.2397,8.3018,8.4156,8.4052,8.4673,8.5811,8.6306,8.6518,8.6543,8.696,8.7202,8.7357,8.7619,8.7808,8.7901,8.7901,8.7901,8.7901,8.1091,8.1218,8.1249,8.1407,8.1439,8.1502,8.166,8.166,8.185,8.2355,8.2418,8.264,8.3144,8.3207,8.3207,8.3207,8.3207,8.3207,8.3207,8.3207,8.3207,8.3207,8.3207,8.2954,8.245,8.2418,8.2102,8.1439,8.1439,8.1344,8.1218,8.1218,8.1218,8.1218,8.1218,8.1218,8.1218,8.1376,8.1344,8.1218,8.1376,8.1439,8.1407,8.1249,8.1312,8.1407,8.1249,8.1218,8.1218,8.1376,8.1439,8.147,8.1628,8.166,8.1628,8.147,8.0269,7.9037,7.929,7.9479,7.9606,7.9606,7.9606,7.9606,7.9606,7.9606,7.9606,7.9606,7.9606,7.9606,7.9606,7.9606,7.9321,7.8531,7.7994,7.7804,7.8089,7.7741,7.7899,7.8974,7.91,7.91,7.91,7.8911,7.8847,7.8847,7.771,7.7013,7.7013,7.5911,7.5371,7.5578,7.7334,7.875,7.9676,8.1826,8.2914,8.2914,8.2914,8.3707,8.519,8.4643,8.5116,8.6394,8.6667,8.6789,8.6838,8.7299,8.7501,8.7548,8.7808,8.7901,8.7901,8.7971,8.7948,8.7925,8.1186,8.1218,8.1407,8.2008,8.2134,8.2324,8.2954,8.3049,8.3049,8.3112,8.3112,8.3144,8.3175,8.3207,8.3207,8.3207,8.3207,8.3207,8.3207,8.3207,8.3207,8.3207,8.3207,8.3175,8.3112,8.3112,8.2798,8.2134,8.2134,8.1818,8.1218,8.1218,8.1218,8.1218,8.1218,8.1218,8.1249,8.185,8.1755,8.1249,8.1881,8.2134,8.2039,8.1439,8.1597,8.2039,8.1407,8.1218,8.1281,8.1913,8.2134,8.2229,8.2861,8.3049,8.2923,8.2292,8.2008,8.1597,8.0364,8.0522,8.106,8.106,8.106,8.106,8.106,8.106,8.106,8.106,8.106,8.106,8.106,8.106,7.9985,7.673,7.8279,7.8784,7.5656,7.7362,7.9005,7.91,7.91,7.91,7.91,7.85,7.8089,7.8089,7.7394,7.7013,7.7013,7.6613,7.6762,7.7566,7.8733,7.9575,7.9955,8.1934,8.2914,8.2914,8.2914,8.3707,8.519,8.5391,8.5929,8.6691,8.6936,8.7092,8.7092,8.7381,8.7501,8.7548,8.7808,8.7901,8.7925,8.8098,8.8052,8.7925,8.2355,8.245,8.2512,8.2798,8.2829,8.2924,8.3144,8.3207,8.3207,8.3207,8.2861,8.2576,8.2576,8.2229,8.2134,8.2545,8.2576,8.2576,8.2576,8.2576,8.2766,8.3175,8.3207,8.3207,8.3207,8.3207,8.3081,8.2829,8.2829,8.2703,8.245,8.245,8.245,8.245,8.245,8.245,8.2482,8.2734,8.2671,8.2449,8.2734,8.2829,8.2798,8.2545,8.2608,8.2798,8.2545,8.245,8.2449,8.2734,8.2829,8.2861,8.3112,8.3207,8.3144,8.286,8.2829,8.2703,8.2197,8.1913,8.1723,8.1312,8.1218,8.1218,8.1218,8.1218,8.1218,8.1218,8.1218,8.1218,8.1218,8.1218,8.0775,7.9448,8.0111,8.0333,7.9005,7.9321,7.9732,7.9732,7.9353,7.91,7.91,7.8879,7.8658,7.8658,7.8026,7.7615,7.7615,7.7808,7.8086,7.8406,8.0752,8.1727,8.1127,8.3255,8.4328,8.4328,8.4328,8.488,8.588,8.5693,8.5988,8.6716,8.7154,8.7357,8.7381,8.7643,8.7761,8.7761,8.7878,8.7901,8.7925,8.8121,8.8052,8.7948,8.2861,8.2892,8.2829,8.264,8.2544,8.2544,8.2544,8.2544,8.2544,8.2544,8.2166,8.1976,8.2166,8.1786,8.1692,8.2134,8.2197,8.2102,8.1881,8.2071,8.2418,8.2892,8.3081,8.3207,8.3207,8.3207,8.3207,8.3207,8.3207,8.3207,8.3207,8.3207,8.3207,8.3207,8.3207,8.3207,8.3207,8.3207,8.3207,8.3207,8.3207,8.3207,8.3207,8.3207,8.3207,8.3207,8.3207,8.3207,8.3207,8.3207,8.3207,8.3207,8.3207,8.3207,8.3207,8.3207,8.3207,8.3207,8.3207,8.2861,8.2387,8.1944,8.185,8.185,8.185,8.185,8.185,8.185,8.185,8.185,8.185,8.166,8.1502,8.1502,8.1344,8.1218,8.1218,8.0775,8.0459,8.0459,8.0048,7.9701,7.9605,7.948,7.9353,7.9259,7.869,7.8528,7.8896,7.9639,8.0215,8.0584,8.2857,8.3679,8.2895,8.4158,8.4949,8.519,8.4949,8.5328,8.6294,8.6147,8.6353,8.6863,8.737,8.7643,8.7643,8.7831,8.7901,8.7901,8.7901,8.7901,8.7925,8.8121,8.8052,8.7948,8.2324,8.2197,8.1976,8.1312,8.1218,8.1218,8.1218,8.1218,8.1218,8.1218,8.1186,8.1439,8.2102,8.2166,8.2166,8.2166,8.2166,8.1881,8.1249,8.1818,8.2197,8.2197,8.2861,8.3207,8.3175,8.3207,8.3207,8.3207,8.3207,8.3207,8.3207,8.3207,8.3207,8.3207,8.3207,8.3207,8.3207,8.3207,8.3207,8.3207,8.3207,8.3207,8.3207,8.3207,8.3207,8.3207,8.3207,8.3207,8.3207,8.3207,8.3207,8.3207,8.3207,8.3207,8.3207,8.3207,8.3207,8.3207,8.3207,8.3207,8.3207,8.3207,8.3207,8.3207,8.3207,8.3207,8.3207,8.3207,8.3207,8.3207,8.3207,8.2671,8.2197,8.2197,8.1628,8.1218,8.1218,8.1218,8.1186,8.1186,8.1186,8.0993,8.0605,8.0267,7.9921,7.9633,7.929,7.966,8.0869,8.2063,8.3277,8.4452,8.4958,8.519,8.519,8.4397,8.4397,8.519,8.4397,8.4786,8.6319,8.6838,8.7082,8.7141,8.7632,8.7901,8.7901,8.7901,8.7901,8.7901,8.7901,8.7901,8.7925,8.8121,8.8052,8.7948,8.1534,8.1881,8.2134,8.1944,8.1881,8.1881,8.1881,8.1502,8.1218,8.1218,8.0744,8.0712,8.1407,8.0617,8.0427,8.1407,8.1028,8.087,8.1186,8.1818,8.2197,8.2197,8.2861,8.2987,8.2513,8.2954,8.3207,8.3207,8.3207,8.3207,8.3207,8.3207,8.3207,8.3207,8.3207,8.3207,8.3207,8.3207,8.3207,8.3207,8.3207,8.3207,8.3207,8.3207,8.3207,8.3207,8.3207,8.3207,8.3207,8.3207,8.3207,8.3207,8.3207,8.3207,8.3207,8.3207,8.3207,8.3207,8.3207,8.3207,8.3207,8.3207,8.3207,8.3207,8.3207,8.3207,8.3207,8.3207,8.3207,8.3207,8.3207,8.3018,8.2924,8.2924,8.2355,8.1881,8.1881,8.106,8.0427,8.0427,7.9826,7.9415,7.9542,7.9226,7.9101,7.9259,7.9939,8.0898,8.2091,8.3304,8.4157,8.4478,8.5438,8.5984,8.5984,8.4673,8.4097,8.4363,8.4097,8.4535,8.5526,8.5485,8.6072,8.7106,8.7071,8.7375,8.7901,8.7901,8.7901,8.7901,8.7901,8.7901,8.7925,8.8121,8.8052,8.7948,8.0838,8.1091,8.1281,8.1028,8.0965,8.0965,8.0965,8.0649,8.0364,8.0364,7.9985,7.9985,8.068,8.0269,8.0269,8.1123,8.0522,8.0301,8.0744,8.1154,8.1376,8.1376,8.2039,8.2482,8.2576,8.3019,8.3207,8.3207,8.3207,8.3207,8.3207,8.3207,8.3207,8.3207,8.3207,8.3207,8.3207,8.3207,8.3207,8.3207,8.3207,8.3207,8.3207,8.3207,8.3207,8.3207,8.3207,8.3207,8.3207,8.3207,8.3207,8.3207,8.3207,8.3207,8.3207,8.3207,8.3207,8.3207,8.3207,8.3207,8.3207,8.3207,8.3207,8.3207,8.3207,8.3207,8.3207,8.3207,8.3207,8.3207,8.3207,8.2954,8.2892,8.3144,8.264,8.2259,8.238,8.1686,8.1085,8.0955,8.0383,8.0035,8.0067,7.9784,7.9698,7.998,8.0998,8.2149,8.336,8.4096,8.4717,8.5196,8.5632,8.5846,8.5846,8.4639,8.4131,8.4466,8.388,8.3983,8.4708,8.466,8.5212,8.6201,8.6114,8.6615,8.7445,8.7445,8.762,8.7901,8.7901,8.7901,8.7925,8.8029,8.7983,8.7925,8.0238,8.0111,7.9922,7.9385,7.9227,7.9195,7.9195,7.9163,7.91,7.91,7.91,7.9385,8.0017,8.0649,8.1028,8.1091,8.0491,8.0111,8.0111,8.0175,8.0206,8.0206,8.0838,8.1786,8.2986,8.3018,8.3018,8.3018,8.3081,8.3112,8.3112,8.3175,8.3207,8.3207,8.3207,8.3207,8.3207,8.3207,8.3207,8.3207,8.3207,8.3207,8.3207,8.3207,8.3207,8.3207,8.3207,8.3207,8.3207,8.3207,8.3207,8.3207,8.3207,8.3207,8.3207,8.3207,8.3207,8.3207,8.3207,8.3144,8.3112,8.3112,8.3049,8.3049,8.3175,8.3207,8.3207,8.3207,8.3207,8.3207,8.3207,8.2703,8.2482,8.3048,8.2544,8.216,8.2427,8.236,8.2197,8.1958,8.1891,8.1787,8.148,8.1191,8.1178,8.1638,8.2385,8.3449,8.4788,8.48,8.5247,8.6347,8.5673,8.5294,8.5294,8.4501,8.4466,8.5087,8.3604,8.3293,8.4018,8.4111,8.4409,8.4808,8.4996,8.567,8.6614,8.6684,8.7141,8.7796,8.7866,8.7901,8.7901,8.7901,8.7901,8.7901,8.0017,8.0111,8.0238,8.068,8.0269,7.989,7.989,7.9448,7.91,7.91,7.91,7.9385,8.0017,7.9795,7.9764,8.0301,8.0206,8.0111,8.0111,8.0649,8.0965,8.0965,8.1123,8.1344,8.1628,8.1628,8.1628,8.1628,8.2166,8.2418,8.2418,8.2956,8.3207,8.3207,8.3207,8.3207,8.3207,8.3207,8.3207,8.3207,8.3207,8.3207,8.3207,8.3207,8.3207,8.3207,8.3207,8.3207,8.3207,8.3207,8.3207,8.3207,8.3207,8.3207,8.3207,8.3207,8.3207,8.3207,8.3207,8.2829,8.2418,8.2418,8.2039,8.1913,8.2954,8.3207,8.3207,8.3207,8.3207,8.3207,8.3207,8.3081,8.2952,8.2844,8.1773,8.0888,8.0715,7.9776,7.9275,7.9707,7.954,7.9658,8.0386,8.0359,8.1251,8.3489,8.3856,8.5052,8.7589,8.7109,8.6902,8.7131,8.6467,8.6053,8.6053,8.5328,8.4708,8.4259,8.3362,8.3293,8.3983,8.3015,8.3379,8.4773,8.4414,8.4842,8.5807,8.6439,8.679,8.7,8.7656,8.7901,8.7901,8.7901,8.7901,8.7901,7.9985,7.9859,7.9953,8.1028,8.0585,8.0238,8.0585,8.0333,7.9985,7.9637,7.989,8.0111,8.0111,8.0396,8.0585,8.0617,8.0617,8.0333,7.9669,7.9985,8.0206,8.0206,8.0206,8.0206,8.0206,8.0206,8.0522,8.1218,8.1565,8.1723,8.1723,8.2418,8.2734,8.2734,8.3049,8.3207,8.3207,8.3207,8.3207,8.3207,8.3207,8.3207,8.3207,8.3207,8.3207,8.3207,8.3207,8.3207,8.3207,8.3207,8.3207,8.3207,8.3207,8.3207,8.3207,8.3207,8.2954,8.2734,8.2734,8.2229,8.1723,8.1723,8.147,8.1376,8.2102,8.226,8.226,8.226,8.226,8.229,8.2441,8.2471,8.2467,8.2446,8.1849,8.1121,8.0444,8.0004,7.9722,7.9585,7.9697,8.0004,8.0513,8.1627,8.2959,8.4445,8.5663,8.7003,8.8519,8.8191,8.7639,8.6915,8.6846,8.6501,8.5777,8.5742,8.5328,8.457,8.3811,8.3442,8.3466,8.2911,8.3032,8.3694,8.3541,8.4036,8.5034,8.5455,8.5807,8.6228,8.7,8.7339,8.7375,8.7761,8.7901,8.7901,8.0301,7.9922,7.9859,8.1154,8.0775,8.0491,8.1123,8.1218,8.0933,8.0206,8.0649,8.0775,8.0175,8.1123,8.1628,8.106,8.0902,8.0364,7.9195,7.91,7.91,7.91,7.91,7.91,7.91,7.91,7.9669,8.0838,8.0965,8.0996,8.1028,8.1818,8.2197,8.2229,8.2924,8.3207,8.3207,8.3207,8.3207,8.3207,8.3207,8.3207,8.3207,8.3207,8.3207,8.3207,8.3207,8.3207,8.3207,8.3207,8.3207,8.3207,8.3207,8.3207,8.3207,8.3207,8.2829,8.2355,8.2355,8.1881,8.1344,8.1218,8.1059,8.09,8.0774,8.0996,8.1154,8.1122,8.1089,8.115,8.139,8.1419,8.1539,8.1891,8.173,8.1315,8.0603,8.0693,8.065,8.0159,8.0679,8.1186,8.1464,8.3387,8.4804,8.5376,8.7353,8.8691,8.8984,8.8846,8.8191,8.6915,8.7363,8.7018,8.5777,8.626,8.6191,8.557,8.4777,8.3924,8.3087,8.306,8.2904,8.2685,8.2785,8.3349,8.4227,8.4345,8.4753,8.5385,8.6193,8.6509,8.6579,8.741,8.7691,8.7726,8.166,8.1376,8.1154,8.1913,8.1502,8.1091,8.1186,8.1218,8.0933,8.0206,8.0175,8.0206,8.0111,8.0269,8.0364,8.0269,7.9732,7.929,7.91,7.91,7.91,7.91,7.91,7.91,7.91,7.91,7.9164,7.9385,7.9953,8.0238,8.0269,8.1597,8.2197,8.2229,8.2924,8.3207,8.3207,8.3207,8.3207,8.3207,8.3207,8.3207,8.3207,8.3207,8.3207,8.3207,8.3207,8.3207,8.3207,8.3207,8.3207,8.3207,8.3207,8.3207,8.3207,8.3207,8.3144,8.3049,8.3049,8.2576,8.1913,8.1344,8.0487,7.9665,7.9099,8.0141,8.1089,8.0735,8.0703,8.0637,8.0371,8.0305,8.0456,8.0774,7.9838,7.9364,8.0076,7.8714,7.8219,7.9909,8.0679,8.1669,8.3019,8.348,8.4847,8.7701,8.8239,8.9048,9.0423,8.9916,8.9467,8.926,8.8708,8.8329,8.8122,8.757,8.7225,8.7087,8.6363,8.5259,8.3811,8.2559,8.2532,8.3427,8.2812,8.2876,8.3419,8.4099,8.445,8.4648,8.5385,8.5666,8.5771,8.6579,8.686,8.6965,8.2513,8.1913,8.166,8.3114,8.2482,8.1881,8.226,8.2324,8.2229,8.1849,8.185,8.2008,8.2387,8.245,8.2134,8.1344,8.0996,8.068,8.0301,8.0269,8.0269,8.0269,8.0269,8.0269,8.0269,8.0269,8.008,7.9669,7.9606,7.9543,7.9574,8.0554,8.1249,8.166,8.2355,8.2861,8.3207,8.3207,8.3207,8.3207,8.3207,8.3207,8.3207,8.3207,8.3207,8.3207,8.3207,8.3207,8.3207,8.3207,8.3207,8.3207,8.3207,8.3207,8.3079,8.2536,8.2061,8.165,8.1076,8.0829,8.0548,7.9663,7.9506,7.938,7.8498,7.8907,7.941,7.925,7.9218,7.9246,7.9261,7.9289,7.9375,7.972,7.9251,7.8876,7.8924,7.8493,7.8647,7.9971,8.1162,8.2311,8.3381,8.5163,8.6869,8.8304,8.9209,9.0043,9.076,9.0502,8.995,8.9122,8.9157,8.8812,8.795,8.8019,8.7715,8.7002,8.6691,8.5891,8.4639,8.4105,8.4012,8.4263,8.4054,8.419,8.4472,8.4437,8.438,8.4415,8.4753,8.542,8.6263,8.707,8.7375,8.7445]}]]